Time,TemperatureF,DewpointF,PressureIn,WindDirection,WindDirectionDegrees,WindSpeedMPH,WindSpeedGustMPH,Humidity,HourlyPrecipIn,Conditions,Clouds,dailyrainin,SoftwareType,DateUTC
2013-05-31 00:00:00,59.0,54.2,29.51,South,171,4.0,5.0,84,0.00,,---,0.12,VWS V14.01,2013-05-31 05:00:00,
2013-05-31 00:01:00,59.0,53.8,29.51,SSE,167,3.0,4.0,83,0.00,,---,0.12,VWS V14.01,2013-05-31 05:01:00,
2013-05-31 00:02:00,59.0,54.2,29.50,South,176,3.0,4.0,84,0.00,,---,0.00,VWS V14.01,2013-05-31 05:02:00,
2013-05-31 00:03:00,59.0,54.2,29.50,South,170,1.0,3.0,84,0.00,,---,0.00,VWS V14.01,2013-05-31 05:03:00,
2013-05-31 00:04:00,59.0,54.2,29.50,South,175,3.0,6.0,84,0.00,,---,0.00,VWS V14.01,2013-05-31 05:04:00,
2013-05-31 00:05:00,59.0,54.2,29.50,South,174,1.0,4.0,84,0.00,,---,0.00,VWS V14.01,2013-05-31 05:05:00,
2013-05-31 00:06:00,59.0,54.2,29.50,South,181,3.0,3.0,84,0.00,,---,0.00,VWS V14.01,2013-05-31 05:06:00,
2013-05-31 00:07:00,59.0,54.2,29.50,South,173,2.0,4.0,84,0.00,,---,0.00,VWS V14.01,2013-05-31 05:07:00,
2013-05-31 00:08:00,59.0,54.2,29.50,SSE,165,2.0,3.0,84,0.00,,---,0.00,VWS V14.01,2013-05-31 05:08:00,
2013-05-31 00:09:00,59.0,54.2,29.50,South,179,3.0,3.0,84,0.00,,---,0.00,VWS V14.01,2013-05-31 05:09:00,
2013-05-31 00:10:00,59.0,54.8,29.50,SSE,162,3.0,4.0,86,0.00,,---,0.00,VWS V14.01,2013-05-31 05:10:00,
2013-05-31 00:11:00,59.0,54.2,29.50,South,176,4.0,4.0,84,0.00,,---,0.00,VWS V14.01,2013-05-31 05:11:00,
2013-05-31 00:12:00,59.0,54.2,29.50,SSE,160,5.0,10.0,84,0.00,,---,0.00,VWS V14.01,2013-05-31 05:12:00,
2013-05-31 00:13:00,58.9,54.1,29.50,SSE,167,7.0,10.0,84,0.00,,---,0.00,VWS V14.01,2013-05-31 05:13:00,
2013-05-31 00:14:00,58.9,54.1,29.50,SSE,147,7.0,9.0,84,0.00,,---,0.00,VWS V14.01,2013-05-31 05:14:00,
2013-05-31 00:15:00,58.8,54.0,29.50,SSE,157,5.0,9.0,84,0.00,,---,0.00,VWS V14.01,2013-05-31 05:15:00,
2013-05-31 00:16:00,59.0,54.8,29.50,SSE,160,4.0,5.0,86,0.00,,---,0.00,VWS V14.01,2013-05-31 05:16:00,
2013-05-31 00:17:00,58.7,53.9,29.50,SSE,163,4.0,7.0,84,0.00,,---,0.00,VWS V14.01,2013-05-31 05:17:00,
2013-05-31 00:18:00,58.6,53.8,29.50,SSE,167,3.0,6.0,84,0.00,,---,0.00,VWS V14.01,2013-05-31 05:18:00,
2013-05-31 00:19:00,58.5,53.7,29.50,SSE,160,6.0,10.0,84,0.00,,---,0.00,VWS V14.01,2013-05-31 05:19:00,
2013-05-31 00:20:00,58.5,53.7,29.50,SSE,161,4.0,11.0,84,0.00,,---,0.00,VWS V14.01,2013-05-31 05:20:00,
2013-05-31 00:21:00,58.7,53.9,29.50,SSE,150,6.0,6.0,84,0.00,,---,0.00,VWS V14.01,2013-05-31 05:21:00,
2013-05-31 00:22:00,58.3,53.5,29.50,SSE,168,6.0,10.0,84,0.00,,---,0.00,VWS V14.01,2013-05-31 05:22:00,
2013-05-31 00:23:00,58.3,53.8,29.50,SSE,163,6.0,10.0,85,0.00,,---,0.00,VWS V14.01,2013-05-31 05:23:00,
2013-05-31 00:24:00,58.2,53.7,29.50,SSE,160,7.0,10.0,85,0.00,,---,0.00,VWS V14.01,2013-05-31 05:24:00,
2013-05-31 00:25:00,58.2,53.7,29.50,SSE,155,7.0,10.0,85,0.00,,---,0.00,VWS V14.01,2013-05-31 05:25:00,
2013-05-31 00:26:00,58.4,53.9,29.50,SSE,165,5.0,9.0,85,0.00,,---,0.00,VWS V14.01,2013-05-31 05:26:00,
2013-05-31 00:27:00,58.1,53.6,29.50,SSE,159,13.0,13.0,85,0.00,,---,0.00,VWS V14.01,2013-05-31 05:27:00,
2013-05-31 00:28:00,58.1,53.6,29.50,South,171,7.0,13.0,85,0.00,,---,0.00,VWS V14.01,2013-05-31 05:28:00,
2013-05-31 00:29:00,58.1,53.6,29.50,SSE,159,10.0,12.0,85,0.00,,---,0.00,VWS V14.01,2013-05-31 05:29:00,
2013-05-31 00:30:00,58.0,53.5,29.50,SSE,167,12.0,12.0,85,0.00,,---,0.00,VWS V14.01,2013-05-31 05:30:00,
2013-05-31 00:31:00,58.2,53.7,29.50,SSE,166,9.0,9.0,85,0.00,,---,0.00,VWS V14.01,2013-05-31 05:31:00,
2013-05-31 00:32:00,58.0,53.8,29.50,SSE,150,9.0,12.0,86,0.00,,---,0.00,VWS V14.01,2013-05-31 05:32:00,
2013-05-31 00:33:00,58.0,53.8,29.50,South,175,5.0,10.0,86,0.00,,---,0.00,VWS V14.01,2013-05-31 05:33:00,
2013-05-31 00:34:00,58.0,53.8,29.50,SSE,165,7.0,12.0,86,0.00,,---,0.00,VWS V14.01,2013-05-31 05:34:00,
2013-05-31 00:35:00,58.1,53.9,29.50,SSE,165,3.0,9.0,86,0.00,,---,0.00,VWS V14.01,2013-05-31 05:35:00,
2013-05-31 00:36:00,58.0,53.8,29.50,South,176,5.0,5.0,86,0.00,,---,0.00,VWS V14.01,2013-05-31 05:36:00,
2013-05-31 00:37:00,58.1,53.9,29.50,South,182,7.0,11.0,86,0.00,,---,0.00,VWS V14.01,2013-05-31 05:37:00,
2013-05-31 00:38:00,58.1,53.9,29.50,South,173,8.0,11.0,86,0.00,,---,0.00,VWS V14.01,2013-05-31 05:38:00,
2013-05-31 00:39:00,58.1,53.9,29.50,SSE,159,7.0,10.0,86,0.00,,---,0.00,VWS V14.01,2013-05-31 05:39:00,
2013-05-31 00:40:00,58.2,54.0,29.50,South,179,5.0,11.0,86,0.00,,---,0.00,VWS V14.01,2013-05-31 05:40:00,
2013-05-31 00:41:00,58.1,53.9,29.50,SSE,165,6.0,6.0,86,0.00,,---,0.00,VWS V14.01,2013-05-31 05:41:00,
2013-05-31 00:42:00,58.3,53.8,29.50,South,171,4.0,7.0,85,0.00,,---,0.00,VWS V14.01,2013-05-31 05:42:00,
2013-05-31 00:43:00,58.3,53.8,29.50,SSE,163,4.0,7.0,85,0.00,,---,0.00,VWS V14.01,2013-05-31 05:43:00,
2013-05-31 00:44:00,58.3,53.8,29.50,SSE,168,3.0,10.0,85,0.00,,---,0.00,VWS V14.01,2013-05-31 05:44:00,
2013-05-31 00:45:00,58.4,53.9,29.50,South,175,3.0,6.0,85,0.00,,---,0.00,VWS V14.01,2013-05-31 05:45:00,
2013-05-31 00:46:00,58.2,53.7,29.50,South,181,7.0,7.0,85,0.00,,---,0.00,VWS V14.01,2013-05-31 05:46:00,
2013-05-31 00:47:00,58.4,53.9,29.51,South,186,3.0,9.0,85,0.00,,---,0.00,VWS V14.01,2013-05-31 05:47:00,
2013-05-31 00:48:00,58.5,54.0,29.51,SSE,167,1.0,6.0,85,0.00,,---,0.00,VWS V14.01,2013-05-31 05:48:00,
2013-05-31 00:49:00,58.5,54.0,29.51,South,170,0.0,3.0,85,0.00,,---,0.00,VWS V14.01,2013-05-31 05:49:00,
2013-05-31 00:50:00,58.5,54.0,29.51,South,173,2.0,3.0,85,0.00,,---,0.00,VWS V14.01,2013-05-31 05:50:00,
2013-05-31 00:51:00,58.4,53.9,29.50,South,179,5.0,5.0,85,0.00,,---,0.00,VWS V14.01,2013-05-31 05:51:00,
2013-05-31 00:52:00,58.5,54.0,29.51,South,179,2.0,5.0,85,0.00,,---,0.00,VWS V14.01,2013-05-31 05:52:00,
2013-05-31 00:53:00,58.5,54.0,29.51,SSW,193,3.0,4.0,85,0.00,,---,0.00,VWS V14.01,2013-05-31 05:53:00,
2013-05-31 00:54:00,58.5,54.0,29.51,SSE,159,3.0,4.0,85,0.00,,---,0.00,VWS V14.01,2013-05-31 05:54:00,
2013-05-31 00:55:00,58.5,54.0,29.51,South,188,1.0,4.0,85,0.00,,---,0.00,VWS V14.01,2013-05-31 05:55:00,
2013-05-31 00:56:00,58.5,54.0,29.50,South,188,5.0,5.0,85,0.00,,---,0.00,VWS V14.01,2013-05-31 05:56:00,
2013-05-31 00:57:00,58.5,54.0,29.51,South,183,3.0,4.0,85,0.00,,---,0.00,VWS V14.01,2013-05-31 05:57:00,
2013-05-31 00:58:00,58.5,54.0,29.51,South,174,3.0,4.0,85,0.00,,---,0.00,VWS V14.01,2013-05-31 05:58:00,
2013-05-31 00:59:00,58.5,54.0,29.51,South,186,3.0,4.0,85,0.00,,---,0.00,VWS V14.01,2013-05-31 05:59:00,
2013-05-31 01:00:00,58.5,54.0,29.51,South,169,3.0,6.0,85,0.00,,---,0.00,VWS V14.01,2013-05-31 06:00:00,
2013-05-31 01:01:00,58.5,54.0,29.51,South,180,4.0,5.0,85,0.00,,---,0.00,VWS V14.01,2013-05-31 06:01:00,
2013-05-31 01:02:00,58.5,54.0,29.51,South,190,4.0,4.0,85,0.00,,---,0.00,VWS V14.01,2013-05-31 06:02:00,
2013-05-31 01:03:00,58.5,54.0,29.51,SSW,196,3.0,4.0,85,0.00,,---,0.00,VWS V14.01,2013-05-31 06:03:00,
2013-05-31 01:04:00,58.5,54.0,29.51,SSW,195,3.0,6.0,85,0.00,,---,0.00,VWS V14.01,2013-05-31 06:04:00,
2013-05-31 01:05:00,58.5,54.0,29.51,SSW,211,3.0,6.0,85,0.00,,---,0.00,VWS V14.01,2013-05-31 06:05:00,
2013-05-31 01:06:00,58.5,54.0,29.50,South,182,2.0,5.0,85,0.00,,---,0.00,VWS V14.01,2013-05-31 06:06:00,
2013-05-31 01:07:00,58.4,53.9,29.52,South,189,2.0,5.0,85,0.00,,---,0.00,VWS V14.01,2013-05-31 06:07:00,
2013-05-31 01:08:00,58.4,53.9,29.52,South,184,3.0,7.0,85,0.00,,---,0.00,VWS V14.01,2013-05-31 06:08:00,
2013-05-31 01:09:00,58.4,53.9,29.52,South,190,3.0,5.0,85,0.00,,---,0.00,VWS V14.01,2013-05-31 06:09:00,
2013-05-31 01:10:00,58.3,53.8,29.52,SW,219,4.0,7.0,85,0.00,,---,0.00,VWS V14.01,2013-05-31 06:10:00,
2013-05-31 01:11:00,58.4,53.9,29.52,SSW,209,2.0,5.0,85,0.00,,---,0.00,VWS V14.01,2013-05-31 06:11:00,
2013-05-31 01:12:00,58.2,53.7,29.53,SSW,201,5.0,5.0,85,0.00,,---,0.00,VWS V14.01,2013-05-31 06:12:00,
2013-05-31 01:13:00,58.2,54.0,29.52,SSW,197,3.0,11.0,86,0.00,,---,0.00,VWS V14.01,2013-05-31 06:13:00,
2013-05-31 01:14:00,58.2,54.0,29.52,SW,214,2.0,10.0,86,0.00,,---,0.00,VWS V14.01,2013-05-31 06:14:00,
2013-05-31 01:15:00,58.2,54.0,29.53,SSW,197,5.0,6.0,86,0.00,,---,0.00,VWS V14.01,2013-05-31 06:15:00,
2013-05-31 01:16:00,58.3,53.8,29.53,SW,215,3.0,4.0,85,0.00,,---,0.00,VWS V14.01,2013-05-31 06:16:00,
2013-05-31 01:17:00,58.1,53.9,29.53,SSW,212,3.0,6.0,86,0.00,,---,0.00,VWS V14.01,2013-05-31 06:17:00,
2013-05-31 01:18:00,58.0,53.8,29.53,SW,216,4.0,6.0,86,0.00,,---,0.00,VWS V14.01,2013-05-31 06:18:00,
2013-05-31 01:19:00,58.0,53.8,29.53,SW,231,3.0,4.0,86,0.00,,---,0.00,VWS V14.01,2013-05-31 06:19:00,
2013-05-31 01:20:00,58.0,53.8,29.53,SSW,196,3.0,5.0,86,0.00,,---,0.00,VWS V14.01,2013-05-31 06:20:00,
2013-05-31 01:21:00,58.1,53.9,29.53,SW,221,4.0,5.0,86,0.00,,---,0.00,VWS V14.01,2013-05-31 06:21:00,
2013-05-31 01:22:00,57.9,53.7,29.52,SSW,208,3.0,4.0,86,0.00,,---,0.00,VWS V14.01,2013-05-31 06:22:00,
2013-05-31 01:23:00,57.8,53.7,29.52,SSW,196,2.0,3.0,86,0.00,,---,0.00,VWS V14.01,2013-05-31 06:23:00,
2013-05-31 01:24:00,57.8,53.7,29.52,SSE,155,2.0,3.0,86,0.00,,---,0.00,VWS V14.01,2013-05-31 06:24:00,
2013-05-31 01:25:00,57.8,53.7,29.52,SSW,193,2.0,4.0,86,0.00,,---,0.00,VWS V14.01,2013-05-31 06:25:00,
2013-05-31 01:26:00,57.9,53.7,29.53,SSW,195,4.0,5.0,86,0.00,,---,0.00,VWS V14.01,2013-05-31 06:26:00,
2013-05-31 01:27:00,57.7,53.5,29.52,South,181,4.0,4.0,86,0.00,,---,0.00,VWS V14.01,2013-05-31 06:27:00,
2013-05-31 01:28:00,57.7,53.9,29.52,SSW,212,3.0,4.0,87,0.00,,---,0.00,VWS V14.01,2013-05-31 06:28:00,
2013-05-31 01:29:00,57.7,53.9,29.52,SSW,196,2.0,3.0,87,0.00,,---,0.00,VWS V14.01,2013-05-31 06:29:00,
2013-05-31 01:30:00,57.7,53.9,29.52,SSW,197,4.0,4.0,87,0.00,,---,0.00,VWS V14.01,2013-05-31 06:30:00,
2013-05-31 01:31:00,57.7,53.5,29.52,SSE,163,5.0,5.0,86,0.00,,---,0.00,VWS V14.01,2013-05-31 06:31:00,
2013-05-31 01:32:00,57.7,53.9,29.53,SSW,196,4.0,4.0,87,0.00,,---,0.00,VWS V14.01,2013-05-31 06:32:00,
2013-05-31 01:33:00,57.7,53.9,29.53,SW,228,2.0,4.0,87,0.00,,---,0.00,VWS V14.01,2013-05-31 06:33:00,
2013-05-31 01:34:00,57.7,53.9,29.53,SW,214,2.0,4.0,87,0.00,,---,0.00,VWS V14.01,2013-05-31 06:34:00,
2013-05-31 01:35:00,57.7,53.9,29.53,SSW,205,3.0,3.0,87,0.00,,---,0.00,VWS V14.01,2013-05-31 06:35:00,
2013-05-31 01:36:00,57.7,53.9,29.52,SW,216,3.0,4.0,87,0.00,,---,0.00,VWS V14.01,2013-05-31 06:36:00,
2013-05-31 01:37:00,57.6,53.8,29.52,SW,215,4.0,4.0,87,0.00,,---,0.00,VWS V14.01,2013-05-31 06:37:00,
2013-05-31 01:38:00,57.6,53.8,29.52,South,186,2.0,4.0,87,0.00,,---,0.00,VWS V14.01,2013-05-31 06:38:00,
2013-05-31 01:39:00,57.6,53.8,29.52,SSW,192,2.0,4.0,87,0.00,,---,0.00,VWS V14.01,2013-05-31 06:39:00,
2013-05-31 01:40:00,57.6,53.8,29.52,SSE,163,3.0,5.0,87,0.00,,---,0.00,VWS V14.01,2013-05-31 06:40:00,
2013-05-31 01:41:00,57.7,53.9,29.53,SSW,205,2.0,4.0,87,0.00,,---,0.00,VWS V14.01,2013-05-31 06:41:00,
2013-05-31 01:42:00,57.6,53.8,29.53,South,180,3.0,5.0,87,0.00,,---,0.00,VWS V14.01,2013-05-31 06:42:00,
2013-05-31 01:43:00,57.6,53.8,29.52,SSW,196,3.0,3.0,87,0.00,,---,0.00,VWS V14.01,2013-05-31 06:43:00,
2013-05-31 01:44:00,57.6,53.8,29.52,SSW,194,0.0,3.0,87,0.00,,---,0.00,VWS V14.01,2013-05-31 06:44:00,
2013-05-31 01:45:00,57.6,53.8,29.52,South,171,3.0,5.0,87,0.00,,---,0.00,VWS V14.01,2013-05-31 06:45:00,
2013-05-31 01:46:00,57.6,53.8,29.52,SSE,162,2.0,4.0,87,0.00,,---,0.00,VWS V14.01,2013-05-31 06:46:00,
2013-05-31 01:47:00,57.6,53.8,29.52,SW,228,3.0,4.0,87,0.00,,---,0.00,VWS V14.01,2013-05-31 06:47:00,
2013-05-31 01:48:00,57.5,53.7,29.52,SSW,201,2.0,4.0,87,0.00,,---,0.00,VWS V14.01,2013-05-31 06:48:00,
2013-05-31 01:49:00,57.6,53.8,29.52,South,186,1.0,2.0,87,0.00,,---,0.00,VWS V14.01,2013-05-31 06:49:00,
2013-05-31 01:50:00,57.6,53.8,29.52,South,176,2.0,5.0,87,0.00,,---,0.00,VWS V14.01,2013-05-31 06:50:00,
2013-05-31 01:51:00,57.6,53.8,29.52,SE,142,2.0,3.0,87,0.00,,---,0.00,VWS V14.01,2013-05-31 06:51:00,
2013-05-31 01:52:00,57.5,53.7,29.53,SSW,200,3.0,4.0,87,0.00,,---,0.00,VWS V14.01,2013-05-31 06:52:00,
2013-05-31 01:53:00,57.5,53.7,29.53,South,182,3.0,4.0,87,0.00,,---,0.00,VWS V14.01,2013-05-31 06:53:00,
2013-05-31 01:55:00,57.5,53.7,29.53,SSE,168,3.0,3.0,87,0.00,,---,0.00,VWS V14.01,2013-05-31 06:55:00,
2013-05-31 01:56:00,57.6,53.8,29.53,South,173,4.0,4.0,87,0.00,,---,0.00,VWS V14.01,2013-05-31 06:56:00,
2013-05-31 01:57:00,57.5,53.7,29.53,SSW,208,1.0,3.0,87,0.00,,---,0.00,VWS V14.01,2013-05-31 06:57:00,
2013-05-31 01:58:00,57.5,53.7,29.53,South,177,3.0,5.0,87,0.00,,---,0.00,VWS V14.01,2013-05-31 06:58:00,
2013-05-31 01:59:00,57.5,53.7,29.53,South,177,4.0,6.0,87,0.00,,---,0.00,VWS V14.01,2013-05-31 06:59:00,
2013-05-31 02:00:00,57.5,53.7,29.53,SSE,164,4.0,5.0,87,0.00,,---,0.00,VWS V14.01,2013-05-31 07:00:00,
2013-05-31 02:01:00,57.5,53.7,29.53,South,175,4.0,4.0,87,0.00,,---,0.00,VWS V14.01,2013-05-31 07:01:00,
2013-05-31 02:02:00,57.5,53.7,29.53,South,181,2.0,3.0,87,0.00,,---,0.00,VWS V14.01,2013-05-31 07:02:00,
2013-05-31 02:03:00,57.5,53.7,29.52,South,186,4.0,4.0,87,0.00,,---,0.00,VWS V14.01,2013-05-31 07:03:00,
2013-05-31 02:04:00,57.5,53.7,29.52,South,189,2.0,4.0,87,0.00,,---,0.00,VWS V14.01,2013-05-31 07:04:00,
2013-05-31 02:05:00,57.5,53.7,29.52,SSE,167,3.0,6.0,87,0.00,,---,0.00,VWS V14.01,2013-05-31 07:05:00,
2013-05-31 02:06:00,57.5,53.7,29.53,South,173,3.0,6.0,87,0.00,,---,0.00,VWS V14.01,2013-05-31 07:06:00,
2013-05-31 02:07:00,57.5,53.7,29.52,South,179,4.0,5.0,87,0.00,,---,0.00,VWS V14.01,2013-05-31 07:07:00,
2013-05-31 02:08:00,57.4,53.6,29.52,South,185,3.0,5.0,87,0.00,,---,0.00,VWS V14.01,2013-05-31 07:08:00,
2013-05-31 02:09:00,57.4,53.6,29.53,South,185,2.0,3.0,87,0.00,,---,0.00,VWS V14.01,2013-05-31 07:09:00,
2013-05-31 02:10:00,57.4,53.6,29.53,South,174,2.0,4.0,87,0.00,,---,0.00,VWS V14.01,2013-05-31 07:10:00,
2013-05-31 02:11:00,57.5,53.7,29.53,South,177,5.0,6.0,87,0.00,,---,0.00,VWS V14.01,2013-05-31 07:11:00,
2013-05-31 02:12:00,57.3,53.5,29.53,South,185,3.0,3.0,87,0.00,,---,0.00,VWS V14.01,2013-05-31 07:12:00,
2013-05-31 02:13:00,57.3,53.5,29.53,South,175,2.0,4.0,87,0.00,,---,0.00,VWS V14.01,2013-05-31 07:13:00,
2013-05-31 02:14:00,57.3,53.5,29.53,SSW,193,2.0,4.0,87,0.00,,---,0.00,VWS V14.01,2013-05-31 07:14:00,
2013-05-31 02:15:00,57.2,53.4,29.53,SSW,200,2.0,3.0,87,0.00,,---,0.00,VWS V14.01,2013-05-31 07:15:00,
2013-05-31 02:16:00,57.4,53.6,29.53,South,176,1.0,4.0,87,0.00,,---,0.00,VWS V14.01,2013-05-31 07:16:00,
2013-05-31 02:17:00,57.2,53.4,29.53,SW,220,2.0,4.0,87,0.00,,---,0.00,VWS V14.01,2013-05-31 07:17:00,
2013-05-31 02:18:00,57.1,53.3,29.53,SSW,205,2.0,3.0,87,0.00,,---,0.00,VWS V14.01,2013-05-31 07:18:00,
2013-05-31 02:19:00,57.1,53.3,29.52,SSW,205,1.0,2.0,87,0.00,,---,0.00,VWS V14.01,2013-05-31 07:19:00,
2013-05-31 02:20:00,57.1,53.3,29.52,South,175,1.0,2.0,87,0.00,,---,0.00,VWS V14.01,2013-05-31 07:20:00,
2013-05-31 02:21:00,57.2,53.4,29.53,SSW,207,3.0,3.0,87,0.00,,---,0.00,VWS V14.01,2013-05-31 07:21:00,
2013-05-31 02:22:00,57.0,53.5,29.53,SSW,199,1.0,3.0,88,0.00,,---,0.00,VWS V14.01,2013-05-31 07:22:00,
2013-05-31 02:23:00,57.0,53.5,29.53,SSW,195,1.0,2.0,88,0.00,,---,0.00,VWS V14.01,2013-05-31 07:23:00,
2013-05-31 02:24:00,57.0,53.2,29.52,SSW,201,2.0,3.0,87,0.00,,---,0.00,VWS V14.01,2013-05-31 07:24:00,
2013-05-31 02:25:00,57.0,53.2,29.52,SW,235,0.0,2.0,87,0.00,,---,0.00,VWS V14.01,2013-05-31 07:25:00,
2013-05-31 02:26:00,57.1,53.6,29.52,South,190,2.0,3.0,88,0.00,,---,0.00,VWS V14.01,2013-05-31 07:26:00,
2013-05-31 02:27:00,56.9,53.4,29.52,South,180,4.0,4.0,88,0.00,,---,0.00,VWS V14.01,2013-05-31 07:27:00,
2013-05-31 02:28:00,56.9,53.4,29.52,South,190,2.0,4.0,88,0.00,,---,0.00,VWS V14.01,2013-05-31 07:28:00,
2013-05-31 02:29:00,56.8,53.3,29.52,South,180,1.0,2.0,88,0.00,,---,0.00,VWS V14.01,2013-05-31 07:29:00,
2013-05-31 02:30:00,56.8,53.3,29.52,SSW,196,1.0,4.0,88,0.00,,---,0.00,VWS V14.01,2013-05-31 07:30:00,
2013-05-31 02:31:00,56.9,53.1,29.52,South,187,1.0,3.0,87,0.00,,---,0.00,VWS V14.01,2013-05-31 07:31:00,
2013-05-31 02:32:00,56.7,53.2,29.52,SSE,162,0.0,2.0,88,0.00,,---,0.00,VWS V14.01,2013-05-31 07:32:00,
2013-05-31 02:33:00,56.7,53.2,29.52,SSE,162,0.0,1.0,88,0.00,,---,0.00,VWS V14.01,2013-05-31 07:33:00,
2013-05-31 02:34:00,56.6,53.1,29.52,SSE,163,2.0,3.0,88,0.00,,---,0.00,VWS V14.01,2013-05-31 07:34:00,
2013-05-31 02:35:00,56.6,53.1,29.52,SSE,165,3.0,4.0,88,0.00,,---,0.00,VWS V14.01,2013-05-31 07:35:00,
2013-05-31 02:36:00,56.7,53.2,29.52,SSW,207,1.0,2.0,88,0.00,,---,0.00,VWS V14.01,2013-05-31 07:36:00,
2013-05-31 02:37:00,56.5,53.0,29.52,SSW,192,0.0,3.0,88,0.00,,---,0.00,VWS V14.01,2013-05-31 07:37:00,
2013-05-31 02:38:00,56.5,53.0,29.52,South,189,1.0,3.0,88,0.00,,---,0.00,VWS V14.01,2013-05-31 07:38:00,
2013-05-31 02:39:00,56.5,53.0,29.52,South,189,2.0,2.0,88,0.00,,---,0.00,VWS V14.01,2013-05-31 07:39:00,
2013-05-31 02:40:00,56.5,53.0,29.52,South,188,1.0,2.0,88,0.00,,---,0.00,VWS V14.01,2013-05-31 07:40:00,
2013-05-31 02:41:00,56.6,53.1,29.52,SSE,164,4.0,4.0,88,0.00,,---,0.00,VWS V14.01,2013-05-31 07:41:00,
2013-05-31 02:42:00,56.5,53.0,29.52,SSW,213,3.0,4.0,88,0.00,,---,0.00,VWS V14.01,2013-05-31 07:42:00,
2013-05-31 02:43:00,56.5,53.0,29.52,SSW,209,3.0,3.0,88,0.00,,---,0.00,VWS V14.01,2013-05-31 07:43:00,
2013-05-31 02:44:00,56.5,53.0,29.52,SW,228,5.0,5.0,88,0.00,,---,0.00,VWS V14.01,2013-05-31 07:44:00,
2013-05-31 02:45:00,56.5,53.0,29.52,SW,220,3.0,6.0,88,0.00,,---,0.00,VWS V14.01,2013-05-31 07:45:00,
2013-05-31 02:46:00,56.5,53.0,29.52,SSW,192,2.0,3.0,88,0.00,,---,0.00,VWS V14.01,2013-05-31 07:46:00,
2013-05-31 02:47:00,56.4,52.9,29.52,SW,219,1.0,4.0,88,0.00,,---,0.00,VWS V14.01,2013-05-31 07:47:00,
2013-05-31 02:48:00,56.4,52.9,29.52,SSW,194,1.0,4.0,88,0.00,,---,0.00,VWS V14.01,2013-05-31 07:48:00,
2013-05-31 02:49:00,56.4,52.9,29.52,SW,221,2.0,3.0,88,0.00,,---,0.00,VWS V14.01,2013-05-31 07:49:00,
2013-05-31 02:50:00,56.4,52.9,29.51,SW,222,0.0,2.0,88,0.00,,---,0.00,VWS V14.01,2013-05-31 07:50:00,
2013-05-31 02:51:00,56.5,53.0,29.52,SW,224,3.0,5.0,88,0.00,,---,0.00,VWS V14.01,2013-05-31 07:51:00,
2013-05-31 02:52:00,56.3,52.8,29.51,SW,222,0.0,1.0,88,0.00,,---,0.00,VWS V14.01,2013-05-31 07:52:00,
2013-05-31 02:53:00,56.3,52.8,29.51,SW,222,0.0,1.0,88,0.00,,---,0.00,VWS V14.01,2013-05-31 07:53:00,
2013-05-31 02:54:00,56.3,52.8,29.51,SW,221,0.0,1.0,88,0.00,,---,0.00,VWS V14.01,2013-05-31 07:54:00,
2013-05-31 02:55:00,56.2,52.7,29.51,SW,221,1.0,2.0,88,0.00,,---,0.00,VWS V14.01,2013-05-31 07:55:00,
2013-05-31 02:56:00,56.3,52.8,29.51,SW,222,0.0,1.0,88,0.00,,---,0.00,VWS V14.01,2013-05-31 07:56:00,
2013-05-31 02:57:00,56.2,52.7,29.51,SW,216,1.0,1.0,88,0.00,,---,0.00,VWS V14.01,2013-05-31 07:57:00,
2013-05-31 02:58:00,56.2,52.7,29.51,SW,221,0.0,2.0,88,0.00,,---,0.00,VWS V14.01,2013-05-31 07:58:00,
2013-05-31 02:59:00,56.2,52.7,29.51,SW,219,0.0,0.0,88,0.00,,---,0.00,VWS V14.01,2013-05-31 07:59:00,
2013-05-31 03:00:00,56.2,52.7,29.51,SW,219,0.0,1.0,88,0.00,,---,0.00,VWS V14.01,2013-05-31 08:00:00,
2013-05-31 03:01:00,56.2,52.7,29.51,SW,216,1.0,1.0,88,0.00,,---,0.00,VWS V14.01,2013-05-31 08:01:00,
2013-05-31 03:02:00,56.1,52.6,29.51,SSE,159,1.0,1.0,88,0.00,,---,0.00,VWS V14.01,2013-05-31 08:02:00,
2013-05-31 03:03:00,56.1,52.6,29.51,SSE,163,0.0,2.0,88,0.00,,---,0.00,VWS V14.01,2013-05-31 08:03:00,
2013-05-31 03:04:00,56.1,52.6,29.51,South,191,0.0,3.0,88,0.00,,---,0.00,VWS V14.01,2013-05-31 08:04:00,
2013-05-31 03:05:00,56.1,52.6,29.51,South,190,0.0,3.0,88,0.00,,---,0.00,VWS V14.01,2013-05-31 08:05:00,
2013-05-31 03:06:00,56.1,52.6,29.51,SW,219,0.0,1.0,88,0.00,,---,0.00,VWS V14.01,2013-05-31 08:06:00,
2013-05-31 03:07:00,56.1,52.6,29.51,SW,215,2.0,3.0,88,0.00,,---,0.00,VWS V14.01,2013-05-31 08:07:00,
2013-05-31 03:08:00,56.1,52.6,29.51,SSW,213,1.0,3.0,88,0.00,,---,0.00,VWS V14.01,2013-05-31 08:08:00,
2013-05-31 03:09:00,56.1,52.6,29.51,SW,229,4.0,4.0,88,0.00,,---,0.00,VWS V14.01,2013-05-31 08:09:00,
2013-05-31 03:10:00,56.1,52.6,29.51,SW,221,1.0,4.0,88,0.00,,---,0.00,VWS V14.01,2013-05-31 08:10:00,
2013-05-31 03:11:00,56.1,52.6,29.51,SSW,194,2.0,2.0,88,0.00,,---,0.00,VWS V14.01,2013-05-31 08:11:00,
2013-05-31 03:12:00,56.1,52.6,29.51,SW,221,2.0,2.0,88,0.00,,---,0.00,VWS V14.01,2013-05-31 08:12:00,
2013-05-31 03:13:00,56.0,52.5,29.51,SW,221,0.0,2.0,88,0.00,,---,0.00,VWS V14.01,2013-05-31 08:13:00,
2013-05-31 03:14:00,56.0,52.5,29.51,SW,221,1.0,1.0,88,0.00,,---,0.00,VWS V14.01,2013-05-31 08:14:00,
2013-05-31 03:15:00,56.0,52.5,29.51,SW,221,0.0,1.0,88,0.00,,---,0.00,VWS V14.01,2013-05-31 08:15:00,
2013-05-31 03:16:00,56.1,52.6,29.51,SW,221,0.0,2.0,88,0.00,,---,0.00,VWS V14.01,2013-05-31 08:16:00,
2013-05-31 03:17:00,55.9,52.4,29.51,SW,221,3.0,3.0,88,0.00,,---,0.00,VWS V14.01,2013-05-31 08:17:00,
2013-05-31 03:18:00,55.9,52.4,29.51,SW,221,3.0,3.0,88,0.00,,---,0.00,VWS V14.01,2013-05-31 08:18:00,
2013-05-31 03:19:00,55.8,52.3,29.52,SW,221,1.0,3.0,88,0.00,,---,0.00,VWS V14.01,2013-05-31 08:19:00,
2013-05-31 03:20:00,55.8,52.3,29.52,SW,221,2.0,2.0,88,0.00,,---,0.00,VWS V14.01,2013-05-31 08:20:00,
2013-05-31 03:21:00,56.0,52.5,29.51,SW,221,0.0,1.0,88,0.00,,---,0.00,VWS V14.01,2013-05-31 08:21:00,
2013-05-31 03:22:00,55.7,52.2,29.52,SW,221,1.0,2.0,88,0.00,,---,0.00,VWS V14.01,2013-05-31 08:22:00,
2013-05-31 03:23:00,55.7,52.2,29.52,SW,221,0.0,2.0,88,0.00,,---,0.00,VWS V14.01,2013-05-31 08:23:00,
2013-05-31 03:24:00,55.6,52.1,29.52,SW,221,2.0,3.0,88,0.00,,---,0.00,VWS V14.01,2013-05-31 08:24:00,
2013-05-31 03:25:00,55.6,52.1,29.52,SW,221,2.0,3.0,88,0.00,,---,0.00,VWS V14.01,2013-05-31 08:25:00,
2013-05-31 03:26:00,55.7,52.2,29.52,SW,221,0.0,2.0,88,0.00,,---,0.00,VWS V14.01,2013-05-31 08:26:00,
2013-05-31 03:27:00,55.5,52.3,29.52,SW,221,1.0,2.0,89,0.00,,---,0.00,VWS V14.01,2013-05-31 08:27:00,
2013-05-31 03:28:00,55.5,52.3,29.52,SW,221,3.0,3.0,89,0.00,,---,0.00,VWS V14.01,2013-05-31 08:28:00,
2013-05-31 03:29:00,55.5,52.3,29.52,SW,221,2.0,3.0,89,0.00,,---,0.00,VWS V14.01,2013-05-31 08:29:00,
2013-05-31 03:30:00,55.4,52.2,29.51,SW,221,2.0,3.0,89,0.00,,---,0.00,VWS V14.01,2013-05-31 08:30:00,
2013-05-31 03:31:00,55.6,52.1,29.52,SW,221,1.0,4.0,88,0.00,,---,0.00,VWS V14.01,2013-05-31 08:31:00,
2013-05-31 03:32:00,55.3,52.1,29.51,SSE,150,1.0,2.0,89,0.00,,---,0.00,VWS V14.01,2013-05-31 08:32:00,
2013-05-31 03:33:00,55.3,52.1,29.51,SSE,150,2.0,2.0,89,0.00,,---,0.00,VWS V14.01,2013-05-31 08:33:00,
2013-05-31 03:34:00,55.2,52.0,29.51,SSE,150,0.0,2.0,89,0.00,,---,0.00,VWS V14.01,2013-05-31 08:34:00,
2013-05-31 03:35:00,55.2,52.0,29.51,SSE,150,0.0,1.0,89,0.00,,---,0.00,VWS V14.01,2013-05-31 08:35:00,
2013-05-31 03:36:00,55.4,52.2,29.51,SW,221,1.0,3.0,89,0.00,,---,0.00,VWS V14.01,2013-05-31 08:36:00,
2013-05-31 03:37:00,55.1,51.9,29.51,SSE,150,0.0,1.0,89,0.00,,---,0.00,VWS V14.01,2013-05-31 08:37:00,
2013-05-31 03:38:00,55.0,51.8,29.51,SSE,151,1.0,1.0,89,0.00,,---,0.00,VWS V14.01,2013-05-31 08:38:00,
2013-05-31 03:39:00,55.0,51.8,29.51,SSE,151,1.0,1.0,89,0.00,,---,0.00,VWS V14.01,2013-05-31 08:39:00,
2013-05-31 03:40:00,55.0,51.8,29.51,SSE,151,0.0,1.0,89,0.00,,---,0.00,VWS V14.01,2013-05-31 08:40:00,
2013-05-31 03:41:00,55.1,51.9,29.51,SSE,150,0.0,2.0,89,0.00,,---,0.00,VWS V14.01,2013-05-31 08:41:00,
2013-05-31 03:42:00,54.9,51.7,29.51,SSE,151,0.0,1.0,89,0.00,,---,0.00,VWS V14.01,2013-05-31 08:42:00,
2013-05-31 03:43:00,54.9,51.7,29.51,SSE,151,1.0,1.0,89,0.00,,---,0.00,VWS V14.01,2013-05-31 08:43:00,
2013-05-31 03:44:00,54.8,51.6,29.52,SSE,151,0.0,1.0,89,0.00,,---,0.00,VWS V14.01,2013-05-31 08:44:00,
2013-05-31 03:45:00,54.8,51.6,29.51,SSE,151,0.0,1.0,89,0.00,,---,0.00,VWS V14.01,2013-05-31 08:45:00,
2013-05-31 03:46:00,55.0,51.8,29.51,SSE,151,1.0,1.0,89,0.00,,---,0.00,VWS V14.01,2013-05-31 08:46:00,
2013-05-31 03:47:00,54.7,51.5,29.51,SSE,151,0.0,0.0,89,0.00,,---,0.00,VWS V14.01,2013-05-31 08:47:00,
2013-05-31 03:48:00,54.7,51.5,29.51,SSE,151,1.0,1.0,89,0.00,,---,0.00,VWS V14.01,2013-05-31 08:48:00,
2013-05-31 03:49:00,54.7,51.5,29.51,SSE,151,1.0,1.0,89,0.00,,---,0.00,VWS V14.01,2013-05-31 08:49:00,
2013-05-31 03:50:00,54.7,51.8,29.51,SSE,151,0.0,1.0,90,0.00,,---,0.00,VWS V14.01,2013-05-31 08:50:00,
2013-05-31 03:51:00,54.8,51.6,29.51,SSE,151,0.0,0.0,89,0.00,,---,0.00,VWS V14.01,2013-05-31 08:51:00,
2013-05-31 03:52:00,54.7,51.8,29.51,SSE,151,1.0,1.0,90,0.00,,---,0.00,VWS V14.01,2013-05-31 08:52:00,
2013-05-31 03:53:00,54.7,51.8,29.51,SSE,151,0.0,2.0,90,0.00,,---,0.00,VWS V14.01,2013-05-31 08:53:00,
2013-05-31 03:54:00,54.7,51.8,29.51,SSW,198,2.0,3.0,90,0.00,,---,0.00,VWS V14.01,2013-05-31 08:54:00,
2013-05-31 03:55:00,54.7,51.8,29.51,SSW,198,1.0,2.0,90,0.00,,---,0.00,VWS V14.01,2013-05-31 08:55:00,
2013-05-31 03:56:00,54.7,51.8,29.51,SSE,151,0.0,0.0,90,0.00,,---,0.00,VWS V14.01,2013-05-31 08:56:00,
2013-05-31 03:57:00,54.7,51.8,29.51,South,185,1.0,3.0,90,0.00,,---,0.00,VWS V14.01,2013-05-31 08:57:00,
2013-05-31 03:58:00,54.7,51.8,29.51,South,185,1.0,1.0,90,0.00,,---,0.00,VWS V14.01,2013-05-31 08:58:00,
2013-05-31 03:59:00,54.7,51.8,29.51,South,185,0.0,2.0,90,0.00,,---,0.00,VWS V14.01,2013-05-31 08:59:00,
2013-05-31 04:00:00,54.7,51.8,29.51,South,185,0.0,1.0,90,0.00,,---,0.00,VWS V14.01,2013-05-31 09:00:00,
2013-05-31 04:01:00,54.7,51.8,29.51,South,178,3.0,3.0,90,0.00,,---,0.00,VWS V14.01,2013-05-31 09:01:00,
2013-05-31 04:02:00,54.7,51.8,29.52,South,185,0.0,1.0,90,0.00,,---,0.00,VWS V14.01,2013-05-31 09:02:00,
2013-05-31 04:03:00,54.7,51.8,29.52,South,185,1.0,1.0,90,0.00,,---,0.00,VWS V14.01,2013-05-31 09:03:00,
2013-05-31 04:04:00,54.7,51.8,29.52,SSW,204,2.0,4.0,90,0.00,,---,0.00,VWS V14.01,2013-05-31 09:04:00,
2013-05-31 04:05:00,54.7,51.8,29.52,SSW,204,2.0,2.0,90,0.00,,---,0.00,VWS V14.01,2013-05-31 09:05:00,
2013-05-31 04:06:00,54.7,51.8,29.52,South,185,0.0,1.0,90,0.00,,---,0.00,VWS V14.01,2013-05-31 09:06:00,
2013-05-31 04:07:00,54.7,51.8,29.51,SSW,204,1.0,5.0,90,0.00,,---,0.00,VWS V14.01,2013-05-31 09:07:00,
2013-05-31 04:08:00,54.7,51.8,29.51,SSW,204,1.0,2.0,90,0.00,,---,0.00,VWS V14.01,2013-05-31 09:08:00,
2013-05-31 04:09:00,54.7,51.8,29.51,South,186,0.0,3.0,90,0.00,,---,0.00,VWS V14.01,2013-05-31 09:09:00,
2013-05-31 04:10:00,54.7,51.8,29.51,SSW,196,1.0,2.0,90,0.00,,---,0.00,VWS V14.01,2013-05-31 09:10:00,
2013-05-31 04:11:00,54.7,51.8,29.52,SSW,204,1.0,2.0,90,0.00,,---,0.00,VWS V14.01,2013-05-31 09:11:00,
2013-05-31 04:12:00,54.6,51.7,29.52,SW,221,2.0,4.0,90,0.00,,---,0.00,VWS V14.01,2013-05-31 09:12:00,
2013-05-31 04:13:00,54.6,51.7,29.52,SW,216,2.0,4.0,90,0.00,,---,0.00,VWS V14.01,2013-05-31 09:13:00,
2013-05-31 04:14:00,54.6,51.7,29.52,SW,216,0.0,3.0,90,0.00,,---,0.00,VWS V14.01,2013-05-31 09:14:00,
2013-05-31 04:15:00,54.7,51.8,29.51,SSW,196,2.0,2.0,90,0.00,,---,0.00,VWS V14.01,2013-05-31 09:15:00,
2013-05-31 04:16:00,54.6,51.7,29.52,SW,215,2.0,2.0,90,0.00,,---,0.00,VWS V14.01,2013-05-31 09:16:00,
2013-05-31 04:17:00,54.6,51.7,29.52,SW,215,1.0,3.0,90,0.00,,---,0.00,VWS V14.01,2013-05-31 09:17:00,
2013-05-31 04:18:00,54.5,51.6,29.52,SW,215,2.0,3.0,90,0.00,,---,0.00,VWS V14.01,2013-05-31 09:18:00,
2013-05-31 04:19:00,54.5,51.6,29.52,SW,214,1.0,3.0,90,0.00,,---,0.00,VWS V14.01,2013-05-31 09:19:00,
2013-05-31 04:20:00,54.6,51.7,29.52,SW,216,1.0,1.0,90,0.00,,---,0.00,VWS V14.01,2013-05-31 09:20:00,
2013-05-31 04:21:00,54.5,51.6,29.52,SW,221,2.0,4.0,90,0.00,,---,0.00,VWS V14.01,2013-05-31 09:21:00,
2013-05-31 04:22:00,54.5,51.6,29.52,SW,219,2.0,3.0,90,0.00,,---,0.00,VWS V14.01,2013-05-31 09:22:00,
2013-05-31 04:23:00,54.5,51.6,29.52,SW,219,1.0,3.0,90,0.00,,---,0.00,VWS V14.01,2013-05-31 09:23:00,
2013-05-31 04:24:00,54.5,51.6,29.52,SW,219,1.0,3.0,90,0.00,,---,0.00,VWS V14.01,2013-05-31 09:24:00,
2013-05-31 04:25:00,54.5,51.6,29.52,SW,223,3.0,3.0,90,0.00,,---,0.00,VWS V14.01,2013-05-31 09:25:00,
2013-05-31 04:26:00,54.4,51.5,29.52,SW,219,2.0,2.0,90,0.00,,---,0.00,VWS V14.01,2013-05-31 09:26:00,
2013-05-31 04:27:00,54.4,51.5,29.51,SW,219,0.0,2.0,90,0.00,,---,0.00,VWS V14.01,2013-05-31 09:27:00,
2013-05-31 04:28:00,54.4,51.5,29.51,SW,219,1.0,2.0,90,0.00,,---,0.00,VWS V14.01,2013-05-31 09:28:00,
2013-05-31 04:29:00,54.3,51.4,29.51,SW,219,0.0,2.0,90,0.00,,---,0.00,VWS V14.01,2013-05-31 09:29:00,
2013-05-31 04:30:00,54.4,51.5,29.52,SW,219,2.0,2.0,90,0.00,,---,0.00,VWS V14.01,2013-05-31 09:30:00,
2013-05-31 04:31:00,54.3,51.4,29.51,SW,217,0.0,1.0,90,0.00,,---,0.00,VWS V14.01,2013-05-31 09:31:00,
2013-05-31 04:32:00,54.2,51.3,29.51,SW,217,0.0,1.0,90,0.00,,---,0.00,VWS V14.01,2013-05-31 09:32:00,
2013-05-31 04:33:00,54.2,51.3,29.52,SW,217,0.0,2.0,90,0.00,,---,0.00,VWS V14.01,2013-05-31 09:33:00,
2013-05-31 04:34:00,54.2,51.3,29.52,SW,217,0.0,1.0,90,0.00,,---,0.00,VWS V14.01,2013-05-31 09:34:00,
2013-05-31 04:35:00,54.3,51.4,29.51,SW,217,0.0,1.0,90,0.00,,---,0.00,VWS V14.01,2013-05-31 09:35:00,
2013-05-31 04:36:00,54.1,51.2,29.52,SW,217,0.0,1.0,90,0.00,,---,0.00,VWS V14.01,2013-05-31 09:36:00,
2013-05-31 04:37:00,54.0,51.1,29.52,SW,217,0.0,0.0,90,0.00,,---,0.00,VWS V14.01,2013-05-31 09:37:00,
2013-05-31 04:38:00,53.9,51.0,29.52,SW,218,0.0,1.0,90,0.00,,---,0.00,VWS V14.01,2013-05-31 09:38:00,
2013-05-31 04:39:00,53.9,51.0,29.52,SSW,192,2.0,2.0,90,0.00,,---,0.00,VWS V14.01,2013-05-31 09:39:00,
2013-05-31 04:40:00,54.1,51.2,29.52,SW,217,0.0,1.0,90,0.00,,---,0.00,VWS V14.01,2013-05-31 09:40:00,
2013-05-31 04:41:00,53.9,51.0,29.52,SW,222,1.0,4.0,90,0.00,,---,0.00,VWS V14.01,2013-05-31 09:41:00,
2013-05-31 04:42:00,53.8,50.9,29.52,SW,222,0.0,2.0,90,0.00,,---,0.00,VWS V14.01,2013-05-31 09:42:00,
2013-05-31 04:43:00,53.8,50.9,29.52,SW,222,3.0,4.0,90,0.00,,---,0.00,VWS V14.01,2013-05-31 09:43:00,
2013-05-31 04:44:00,53.7,50.8,29.52,SW,222,3.0,3.0,90,0.00,,---,0.00,VWS V14.01,2013-05-31 09:44:00,
2013-05-31 04:45:00,53.8,50.9,29.52,SW,222,3.0,4.0,90,0.00,,---,0.00,VWS V14.01,2013-05-31 09:45:00,
2013-05-31 04:46:00,53.7,50.8,29.52,SW,224,1.0,4.0,90,0.00,,---,0.00,VWS V14.01,2013-05-31 09:46:00,
2013-05-31 04:47:00,53.6,50.7,29.52,SW,224,1.0,2.0,90,0.00,,---,0.00,VWS V14.01,2013-05-31 09:47:00,
2013-05-31 04:48:00,53.6,50.7,29.52,SW,224,0.0,2.0,90,0.00,,---,0.00,VWS V14.01,2013-05-31 09:48:00,
2013-05-31 04:49:00,53.6,50.7,29.52,SW,224,0.0,1.0,90,0.00,,---,0.00,VWS V14.01,2013-05-31 09:49:00,
2013-05-31 04:50:00,53.7,50.8,29.52,SW,224,3.0,4.0,90,0.00,,---,0.00,VWS V14.01,2013-05-31 09:50:00,
2013-05-31 04:51:00,53.5,50.7,29.52,SW,224,1.0,1.0,90,0.00,,---,0.00,VWS V14.01,2013-05-31 09:51:00,
2013-05-31 04:52:00,53.5,50.7,29.52,SW,224,0.0,1.0,90,0.00,,---,0.00,VWS V14.01,2013-05-31 09:52:00,
2013-05-31 04:53:00,53.4,50.5,29.52,SW,224,1.0,1.0,90,0.00,,---,0.00,VWS V14.01,2013-05-31 09:53:00,
2013-05-31 04:54:00,53.4,50.8,29.53,SW,224,0.0,1.0,91,0.00,,---,0.00,VWS V14.01,2013-05-31 09:54:00,
2013-05-31 04:55:00,53.5,50.6,29.52,SW,224,0.0,0.0,90,0.00,,---,0.00,VWS V14.01,2013-05-31 09:55:00,
2013-05-31 04:56:00,53.4,50.8,29.53,SW,224,0.0,1.0,91,0.00,,---,0.00,VWS V14.01,2013-05-31 09:56:00,
2013-05-31 04:57:00,53.4,50.8,29.53,SW,224,0.0,1.0,91,0.00,,---,0.00,VWS V14.01,2013-05-31 09:57:00,
2013-05-31 04:58:00,53.4,50.8,29.53,SW,224,1.0,1.0,91,0.00,,---,0.00,VWS V14.01,2013-05-31 09:58:00,
2013-05-31 04:59:00,53.4,50.8,29.53,SW,221,1.0,1.0,91,0.00,,---,0.00,VWS V14.01,2013-05-31 09:59:00,
2013-05-31 05:00:00,53.4,50.8,29.53,SW,224,0.0,1.0,91,0.00,,---,0.00,VWS V14.01,2013-05-31 10:00:00,
2013-05-31 05:01:00,53.4,50.8,29.52,SW,221,1.0,1.0,91,0.00,,---,0.00,VWS V14.01,2013-05-31 10:01:00,
2013-05-31 05:02:00,53.5,50.9,29.52,SW,220,0.0,1.0,91,0.00,,---,0.00,VWS V14.01,2013-05-31 10:02:00,
2013-05-31 05:03:00,53.5,50.9,29.51,SW,220,0.0,0.0,91,0.00,,---,0.00,VWS V14.01,2013-05-31 10:03:00,
2013-05-31 05:04:00,53.6,51.0,29.51,SW,220,0.0,1.0,91,0.00,,---,0.00,VWS V14.01,2013-05-31 10:04:00,
2013-05-31 05:05:00,53.4,50.8,29.52,SW,221,0.0,1.0,91,0.00,,---,0.00,VWS V14.01,2013-05-31 10:05:00,
2013-05-31 05:06:00,53.7,51.1,29.50,South,175,0.0,2.0,91,0.00,,---,0.00,VWS V14.01,2013-05-31 10:06:00,
2013-05-31 05:07:00,53.7,51.1,29.50,South,175,0.0,1.0,91,0.00,,---,0.00,VWS V14.01,2013-05-31 10:07:00,
2013-05-31 05:08:00,53.7,51.1,29.50,South,175,0.0,0.0,91,0.00,,---,0.00,VWS V14.01,2013-05-31 10:08:00,
2013-05-31 05:09:00,53.8,51.2,29.50,South,175,0.0,1.0,91,0.00,,---,0.00,VWS V14.01,2013-05-31 10:09:00,
2013-05-31 05:10:00,53.6,51.0,29.50,South,175,0.0,2.0,91,0.00,,---,0.00,VWS V14.01,2013-05-31 10:10:00,
2013-05-31 05:11:00,53.9,51.3,29.50,South,175,0.0,0.0,91,0.00,,---,0.00,VWS V14.01,2013-05-31 10:11:00,
2013-05-31 05:12:00,54.0,51.4,29.50,South,175,1.0,1.0,91,0.00,,---,0.00,VWS V14.01,2013-05-31 10:12:00,
2013-05-31 05:13:00,54.0,51.4,29.50,South,175,0.0,1.0,91,0.00,,---,0.00,VWS V14.01,2013-05-31 10:13:00,
2013-05-31 05:14:00,54.1,51.2,29.50,South,175,0.0,2.0,90,0.00,,---,0.00,VWS V14.01,2013-05-31 10:14:00,
2013-05-31 05:15:00,53.9,51.3,29.50,South,175,0.0,0.0,91,0.00,,---,0.00,VWS V14.01,2013-05-31 10:15:00,
2013-05-31 05:16:00,54.2,51.3,29.50,South,175,0.0,1.0,90,0.00,,---,0.00,VWS V14.01,2013-05-31 10:16:00,
2013-05-31 05:17:00,54.2,51.3,29.50,South,174,1.0,2.0,90,0.00,,---,0.00,VWS V14.01,2013-05-31 10:17:00,
2013-05-31 05:18:00,54.3,51.4,29.50,South,171,0.0,3.0,90,0.00,,---,0.00,VWS V14.01,2013-05-31 10:18:00,
2013-05-31 05:19:00,54.3,51.4,29.50,South,171,0.0,1.0,90,0.00,,---,0.00,VWS V14.01,2013-05-31 10:19:00,
2013-05-31 05:20:00,54.1,51.2,29.50,South,175,0.0,0.0,90,0.00,,---,0.00,VWS V14.01,2013-05-31 10:20:00,
2013-05-31 05:21:00,54.4,51.5,29.50,South,171,0.0,1.0,90,0.00,,---,0.00,VWS V14.01,2013-05-31 10:21:00,
2013-05-31 05:22:00,54.4,51.5,29.50,South,171,0.0,1.0,90,0.00,,---,0.00,VWS V14.01,2013-05-31 10:22:00,
2013-05-31 05:23:00,54.5,51.6,29.50,South,171,0.0,0.0,90,0.00,,---,0.00,VWS V14.01,2013-05-31 10:23:00,
2013-05-31 05:24:00,54.5,51.3,29.50,South,171,1.0,2.0,89,0.00,,---,0.00,VWS V14.01,2013-05-31 10:24:00,
2013-05-31 05:25:00,54.4,51.5,29.50,South,171,0.0,1.0,90,0.00,,---,0.00,VWS V14.01,2013-05-31 10:25:00,
2013-05-31 05:26:00,54.6,51.4,29.50,South,171,0.0,1.0,89,0.00,,---,0.00,VWS V14.01,2013-05-31 10:26:00,
2013-05-31 05:27:00,54.7,51.5,29.49,South,172,2.0,2.0,89,0.00,,---,0.00,VWS V14.01,2013-05-31 10:27:00,
2013-05-31 05:28:00,54.7,52.4,29.49,South,172,1.0,2.0,92,0.00,,---,0.00,VWS V14.01,2013-05-31 10:28:00,
2013-05-31 05:29:00,54.7,51.5,29.49,SW,219,1.0,4.0,89,0.00,,---,0.00,VWS V14.01,2013-05-31 10:29:00,
2013-05-31 05:30:00,54.6,51.4,29.50,South,171,0.0,0.0,89,0.00,,---,0.00,VWS V14.01,2013-05-31 10:30:00,
2013-05-31 05:31:00,54.7,51.5,29.49,SW,221,2.0,3.0,89,0.00,,---,0.00,VWS V14.01,2013-05-31 10:31:00,
2013-05-31 05:32:00,54.7,51.5,29.49,SW,221,0.0,2.0,89,0.00,,---,0.00,VWS V14.01,2013-05-31 10:32:00,
2013-05-31 05:33:00,54.6,51.4,29.49,SW,221,0.0,0.0,89,0.00,,---,0.00,VWS V14.01,2013-05-31 10:33:00,
2013-05-31 05:34:00,54.6,51.4,29.49,SW,221,0.0,0.0,89,0.00,,---,0.00,VWS V14.01,2013-05-31 10:34:00,
2013-05-31 05:35:00,54.7,51.5,29.49,SW,221,2.0,3.0,89,0.00,,---,0.00,VWS V14.01,2013-05-31 10:35:00,
2013-05-31 05:36:00,54.5,51.3,29.49,SW,221,0.0,0.0,89,0.00,,---,0.00,VWS V14.01,2013-05-31 10:36:00,
2013-05-31 05:37:00,54.5,51.3,29.49,SW,221,0.0,0.0,89,0.00,,---,0.00,VWS V14.01,2013-05-31 10:37:00,
2013-05-31 05:38:00,54.5,51.3,29.49,SW,221,0.0,0.0,89,0.00,,---,0.00,VWS V14.01,2013-05-31 10:38:00,
2013-05-31 05:39:00,54.4,50.9,29.49,SW,221,0.0,2.0,88,0.00,,---,0.00,VWS V14.01,2013-05-31 10:39:00,
2013-05-31 05:40:00,54.6,51.4,29.49,SW,221,0.0,0.0,89,0.00,,---,0.00,VWS V14.01,2013-05-31 10:40:00,
2013-05-31 05:41:00,54.3,50.8,29.49,SW,221,1.0,1.0,88,0.00,,---,0.00,VWS V14.01,2013-05-31 10:41:00,
2013-05-31 05:42:00,54.2,50.7,29.49,SW,221,0.0,2.0,88,0.00,,---,0.00,VWS V14.01,2013-05-31 10:42:00,
2013-05-31 05:43:00,54.1,50.6,29.49,SW,221,0.0,0.0,88,0.00,,---,0.00,VWS V14.01,2013-05-31 10:43:00,
2013-05-31 05:44:00,54.1,50.6,29.49,SW,221,0.0,0.0,88,0.00,,---,0.00,VWS V14.01,2013-05-31 10:44:00,
2013-05-31 05:45:00,54.3,50.8,29.49,SW,221,1.0,1.0,88,0.00,,---,0.00,VWS V14.01,2013-05-31 10:45:00,
2013-05-31 05:46:00,54.0,50.8,29.49,SW,221,0.0,1.0,89,0.00,,---,0.00,VWS V14.01,2013-05-31 10:46:00,
2013-05-31 05:47:00,53.9,50.7,29.49,SW,221,2.0,2.0,89,0.00,,---,0.00,VWS V14.01,2013-05-31 10:47:00,
2013-05-31 05:48:00,53.8,50.6,29.49,SW,221,0.0,2.0,89,0.00,,---,0.00,VWS V14.01,2013-05-31 10:48:00,
2013-05-31 05:49:00,53.8,50.6,29.49,SW,221,0.0,1.0,89,0.00,,---,0.00,VWS V14.01,2013-05-31 10:49:00,
2013-05-31 05:50:00,54.0,50.8,29.49,SW,221,1.0,1.0,89,0.00,,---,0.00,VWS V14.01,2013-05-31 10:50:00,
2013-05-31 05:51:00,53.7,50.5,29.49,SW,221,0.0,1.0,89,0.00,,---,0.00,VWS V14.01,2013-05-31 10:51:00,
2013-05-31 05:52:00,53.6,50.4,29.49,SW,221,2.0,2.0,89,0.00,,---,0.00,VWS V14.01,2013-05-31 10:52:00,
2013-05-31 05:53:00,53.6,50.4,29.49,SW,221,2.0,2.0,89,0.00,,---,0.00,VWS V14.01,2013-05-31 10:53:00,
2013-05-31 05:54:00,53.6,50.4,29.49,SW,221,1.0,2.0,89,0.00,,---,0.00,VWS V14.01,2013-05-31 10:54:00,
2013-05-31 05:55:00,53.7,50.5,29.49,SW,221,0.0,1.0,89,0.00,,---,0.00,VWS V14.01,2013-05-31 10:55:00,
2013-05-31 05:56:00,53.5,50.3,29.49,SW,221,3.0,3.0,89,0.00,,---,0.00,VWS V14.01,2013-05-31 10:56:00,
2013-05-31 05:57:00,53.4,50.2,29.49,SW,221,0.0,3.0,89,0.00,,---,0.00,VWS V14.01,2013-05-31 10:57:00,
2013-05-31 05:58:00,53.4,50.2,29.50,SW,221,0.0,1.0,89,0.00,,---,0.00,VWS V14.01,2013-05-31 10:58:00,
2013-05-31 05:59:00,53.3,50.2,29.50,SW,221,0.0,1.0,89,0.00,,---,0.00,VWS V14.01,2013-05-31 10:59:00,
2013-05-31 06:00:00,53.5,50.3,29.49,SW,221,0.0,1.0,89,0.00,,---,0.00,VWS V14.01,2013-05-31 11:00:00,
2013-05-31 06:01:00,53.3,50.2,29.49,SW,221,1.0,1.0,89,0.00,,---,0.00,VWS V14.01,2013-05-31 11:01:00,
2013-05-31 06:02:00,53.2,50.0,29.49,SW,221,1.0,3.0,89,0.00,,---,0.00,VWS V14.01,2013-05-31 11:02:00,
2013-05-31 06:03:00,53.2,50.0,29.49,SSW,209,1.0,1.0,89,0.00,,---,0.00,VWS V14.01,2013-05-31 11:03:00,
2013-05-31 06:04:00,53.2,50.0,29.49,SSW,209,0.0,2.0,89,0.00,,---,0.00,VWS V14.01,2013-05-31 11:04:00,
2013-05-31 06:05:00,53.3,50.2,29.49,SW,221,1.0,1.0,89,0.00,,---,0.00,VWS V14.01,2013-05-31 11:05:00,
2013-05-31 06:06:00,53.1,50.2,29.49,SSW,209,0.0,1.0,90,0.00,,---,0.00,VWS V14.01,2013-05-31 11:06:00,
2013-05-31 06:07:00,53.1,50.2,29.49,SSW,209,0.0,1.0,90,0.00,,---,0.00,VWS V14.01,2013-05-31 11:07:00,
2013-05-31 06:08:00,53.1,50.2,29.49,SSW,209,0.0,2.0,90,0.00,,---,0.00,VWS V14.01,2013-05-31 11:08:00,
2013-05-31 06:09:00,53.1,50.2,29.49,SSW,209,0.0,1.0,90,0.00,,---,0.00,VWS V14.01,2013-05-31 11:09:00,
2013-05-31 06:10:00,53.2,50.0,29.49,SSW,209,0.0,0.0,89,0.00,,---,0.00,VWS V14.01,2013-05-31 11:10:00,
2013-05-31 06:11:00,53.1,50.2,29.49,SSW,209,0.0,2.0,90,0.00,,---,0.00,VWS V14.01,2013-05-31 11:11:00,
2013-05-31 06:12:00,53.2,50.3,29.49,SSW,209,1.0,3.0,90,0.00,,---,0.00,VWS V14.01,2013-05-31 11:12:00,
2013-05-31 06:13:00,53.2,50.3,29.49,SSW,208,0.0,2.0,90,0.00,,---,0.00,VWS V14.01,2013-05-31 11:13:00,
2013-05-31 06:14:00,53.2,50.3,29.49,SSW,207,0.0,1.0,90,0.00,,---,0.00,VWS V14.01,2013-05-31 11:14:00,
2013-05-31 06:15:00,53.1,50.2,29.49,SSW,209,0.0,2.0,90,0.00,,---,0.00,VWS V14.01,2013-05-31 11:15:00,
2013-05-31 06:16:00,53.2,50.3,29.49,SSW,207,1.0,3.0,90,0.00,,---,0.00,VWS V14.01,2013-05-31 11:16:00,
2013-05-31 06:17:00,53.3,50.5,29.49,SSW,207,1.0,2.0,90,0.00,,---,0.00,VWS V14.01,2013-05-31 11:17:00,
2013-05-31 06:18:00,53.3,50.5,29.49,SSW,207,1.0,1.0,90,0.00,,---,0.00,VWS V14.01,2013-05-31 11:18:00,
2013-05-31 06:19:00,53.3,50.5,29.49,SSW,207,0.0,1.0,90,0.00,,---,0.00,VWS V14.01,2013-05-31 11:19:00,
2013-05-31 06:20:00,53.2,50.3,29.49,SSW,207,0.0,1.0,90,0.00,,---,0.00,VWS V14.01,2013-05-31 11:20:00,
2013-05-31 06:21:00,53.4,50.5,29.49,SSW,202,1.0,2.0,90,0.00,,---,0.00,VWS V14.01,2013-05-31 11:21:00,
2013-05-31 06:22:00,53.4,50.5,29.50,SSW,202,0.0,1.0,90,0.00,,---,0.00,VWS V14.01,2013-05-31 11:22:00,
2013-05-31 06:23:00,53.4,50.5,29.50,SSW,202,1.0,1.0,90,0.00,,---,0.00,VWS V14.01,2013-05-31 11:23:00,
2013-05-31 06:24:00,53.5,50.7,29.50,SSW,202,1.0,1.0,90,0.00,,---,0.00,VWS V14.01,2013-05-31 11:24:00,
2013-05-31 06:25:00,53.4,50.5,29.49,SSW,207,1.0,2.0,90,0.00,,---,0.00,VWS V14.01,2013-05-31 11:25:00,
2013-05-31 06:26:00,53.5,50.7,29.50,SSW,202,0.0,1.0,90,0.00,,---,0.00,VWS V14.01,2013-05-31 11:26:00,
2013-05-31 06:27:00,53.6,50.7,29.50,SW,222,1.0,4.0,90,0.00,,---,0.00,VWS V14.01,2013-05-31 11:27:00,
2013-05-31 06:28:00,53.6,50.7,29.50,SW,217,2.0,3.0,90,0.00,,---,0.00,VWS V14.01,2013-05-31 11:28:00,
2013-05-31 06:29:00,53.7,50.8,29.50,SW,217,2.0,3.0,90,0.00,,---,0.00,VWS V14.01,2013-05-31 11:29:00,
2013-05-31 06:30:00,53.5,50.6,29.50,SSW,202,0.0,0.0,90,0.00,,---,0.00,VWS V14.01,2013-05-31 11:30:00,
2013-05-31 06:31:00,53.9,51.0,29.50,SSW,197,2.0,4.0,90,0.00,,---,0.00,VWS V14.01,2013-05-31 11:31:00,
2013-05-31 06:32:00,53.9,51.0,29.50,SW,217,2.0,4.0,90,0.00,,---,0.00,VWS V14.01,2013-05-31 11:32:00,
2013-05-31 06:33:00,54.0,51.1,29.50,SW,217,2.0,3.0,90,0.00,,---,0.00,VWS V14.01,2013-05-31 11:33:00,
2013-05-31 06:34:00,54.1,51.2,29.50,SW,218,1.0,3.0,90,0.00,,---,0.00,VWS V14.01,2013-05-31 11:34:00,
2013-05-31 06:35:00,53.8,50.9,29.50,SW,226,2.0,3.0,90,0.00,,---,0.00,VWS V14.01,2013-05-31 11:35:00,
2013-05-31 06:36:00,54.3,51.4,29.51,SW,221,1.0,3.0,90,0.00,,---,0.00,VWS V14.01,2013-05-31 11:36:00,
2013-05-31 06:37:00,54.4,51.5,29.50,SSW,209,1.0,3.0,90,0.00,,---,0.00,VWS V14.01,2013-05-31 11:37:00,
2013-05-31 06:38:00,54.5,51.3,29.50,SSW,196,2.0,4.0,89,0.00,,---,0.00,VWS V14.01,2013-05-31 11:38:00,
2013-05-31 06:39:00,54.6,51.4,29.50,SW,228,2.0,3.0,89,0.00,,---,0.00,VWS V14.01,2013-05-31 11:39:00,
2013-05-31 06:40:00,54.2,51.3,29.51,South,188,2.0,3.0,90,0.00,,---,0.00,VWS V14.01,2013-05-31 11:40:00,
2013-05-31 06:41:00,54.9,51.7,29.49,WSW,248,0.0,1.0,89,0.00,,---,0.00,VWS V14.01,2013-05-31 11:41:00,
2013-05-31 06:42:00,55.0,51.8,29.49,SW,219,3.0,3.0,89,0.00,,---,0.00,VWS V14.01,2013-05-31 11:42:00,
2013-05-31 06:43:00,55.1,51.9,29.49,SSW,205,0.0,3.0,89,0.00,,---,0.00,VWS V14.01,2013-05-31 11:43:00,
2013-05-31 06:44:00,55.3,52.1,29.49,SSW,205,0.0,1.0,89,0.00,,---,0.00,VWS V14.01,2013-05-31 11:44:00,
2013-05-31 06:45:00,54.8,51.6,29.49,WSW,248,1.0,1.0,89,0.00,,---,0.00,VWS V14.01,2013-05-31 11:45:00,
2013-05-31 06:46:00,55.5,52.3,29.49,SW,232,2.0,5.0,89,0.00,,---,0.00,VWS V14.01,2013-05-31 11:46:00,
2013-05-31 06:47:00,55.7,52.2,29.49,SSW,197,0.0,2.0,88,0.00,,---,0.00,VWS V14.01,2013-05-31 11:47:00,
2013-05-31 06:48:00,55.8,52.3,29.49,SW,230,0.0,4.0,88,0.00,,---,0.00,VWS V14.01,2013-05-31 11:48:00,
2013-05-31 06:49:00,55.9,52.4,29.49,SW,225,0.0,4.0,88,0.00,,---,0.00,VWS V14.01,2013-05-31 11:49:00,
2013-05-31 06:50:00,55.4,52.2,29.49,SSE,167,0.0,2.0,89,0.00,,---,0.00,VWS V14.01,2013-05-31 11:50:00,
2013-05-31 06:51:00,56.2,52.4,29.49,SW,226,1.0,1.0,87,0.00,,---,0.00,VWS V14.01,2013-05-31 11:51:00,
2013-05-31 06:52:00,56.4,52.6,29.49,SSW,196,2.0,5.0,87,0.00,,---,0.00,VWS V14.01,2013-05-31 11:52:00,
2013-05-31 06:53:00,56.6,52.8,29.49,SSW,196,2.0,2.0,87,0.00,,---,0.00,VWS V14.01,2013-05-31 11:53:00,
2013-05-31 06:54:00,56.8,53.0,29.48,WSW,245,0.0,3.0,87,0.00,,---,0.00,VWS V14.01,2013-05-31 11:54:00,
2013-05-31 06:55:00,56.1,52.6,29.49,SW,226,0.0,1.0,88,0.00,,---,0.00,VWS V14.01,2013-05-31 11:55:00,
2013-05-31 06:56:00,57.2,53.1,29.48,SW,226,2.0,5.0,86,0.00,,---,0.00,VWS V14.01,2013-05-31 11:56:00,
2013-05-31 06:57:00,57.4,52.9,29.48,SW,218,2.0,5.0,85,0.00,,---,0.00,VWS V14.01,2013-05-31 11:57:00,
2013-05-31 06:58:00,57.6,52.8,29.48,West,271,2.0,3.0,84,0.00,,---,0.00,VWS V14.01,2013-05-31 11:58:00,
2013-05-31 06:59:00,57.8,53.0,29.48,WSW,248,4.0,5.0,84,0.00,,---,0.00,VWS V14.01,2013-05-31 11:59:00,
2013-05-31 07:00:00,57.0,53.2,29.48,SSW,199,1.0,2.0,87,0.00,,---,0.00,VWS V14.01,2013-05-31 12:00:00,
2013-05-31 07:01:00,58.2,53.1,29.49,WSW,250,2.0,3.0,83,0.00,,---,0.00,VWS V14.01,2013-05-31 12:01:00,
2013-05-31 07:02:00,58.5,53.0,29.49,WSW,251,3.0,3.0,82,0.00,,---,0.00,VWS V14.01,2013-05-31 12:02:00,
2013-05-31 07:03:00,58.7,53.2,29.48,West,270,3.0,4.0,82,0.00,,---,0.00,VWS V14.01,2013-05-31 12:03:00,
2013-05-31 07:04:00,59.0,53.2,29.48,West,265,4.0,4.0,81,0.00,,---,0.00,VWS V14.01,2013-05-31 12:04:00,
2013-05-31 07:05:00,58.1,53.0,29.49,WSW,247,3.0,3.0,83,0.00,,---,0.00,VWS V14.01,2013-05-31 12:05:00,
2013-05-31 07:06:00,59.0,52.8,29.48,WSW,244,4.0,4.0,80,0.00,,---,0.00,VWS V14.01,2013-05-31 12:06:00,
2013-05-31 07:07:00,59.0,52.8,29.48,West,259,2.0,5.0,80,0.00,,---,0.00,VWS V14.01,2013-05-31 12:07:00,
2013-05-31 07:08:00,59.3,53.1,29.48,West,266,3.0,5.0,80,0.00,,---,0.00,VWS V14.01,2013-05-31 12:08:00,
2013-05-31 07:09:00,59.5,53.0,29.48,WSW,254,6.0,6.0,79,0.00,,---,0.00,VWS V14.01,2013-05-31 12:09:00,
2013-05-31 07:10:00,59.0,52.8,29.48,WSW,244,2.0,2.0,80,0.00,,---,0.00,VWS V14.01,2013-05-31 12:10:00,
2013-05-31 07:11:00,59.8,52.9,29.48,West,275,0.0,6.0,78,0.00,,---,0.00,VWS V14.01,2013-05-31 12:11:00,
2013-05-31 07:12:00,60.0,52.8,29.48,SW,228,3.0,6.0,77,0.00,,---,0.00,VWS V14.01,2013-05-31 12:12:00,
2013-05-31 07:13:00,60.0,52.8,29.48,WSW,252,4.0,7.0,77,0.00,,---,0.00,VWS V14.01,2013-05-31 12:13:00,
2013-05-31 07:14:00,60.1,52.9,29.48,WSW,243,3.0,4.0,77,0.00,,---,0.00,VWS V14.01,2013-05-31 12:14:00,
2013-05-31 07:15:00,59.7,53.2,29.48,SW,231,4.0,4.0,79,0.00,,---,0.00,VWS V14.01,2013-05-31 12:15:00,
2013-05-31 07:16:00,60.3,52.7,29.48,WSW,250,3.0,6.0,76,0.00,,---,0.00,VWS V14.01,2013-05-31 12:16:00,
2013-05-31 07:17:00,60.4,53.2,29.48,WSW,253,4.0,5.0,77,0.00,,---,0.00,VWS V14.01,2013-05-31 12:17:00,
2013-05-31 07:18:00,60.4,53.2,29.49,WSW,238,3.0,6.0,77,0.00,,---,0.00,VWS V14.01,2013-05-31 12:18:00,
2013-05-31 07:19:00,60.6,53.4,29.48,West,267,3.0,5.0,77,0.00,,---,0.00,VWS V14.01,2013-05-31 12:19:00,
2013-05-31 07:20:00,60.2,52.6,29.48,West,261,2.0,6.0,76,0.00,,---,0.00,VWS V14.01,2013-05-31 12:20:00,
2013-05-31 07:21:00,60.7,53.5,29.48,WNW,287,4.0,6.0,77,0.00,,---,0.00,VWS V14.01,2013-05-31 12:21:00,
2013-05-31 07:22:00,60.8,53.2,29.48,WSW,246,3.0,5.0,76,0.00,,---,0.00,VWS V14.01,2013-05-31 12:22:00,
2013-05-31 07:23:00,60.9,53.3,29.48,WSW,246,0.0,3.0,76,0.00,,---,0.00,VWS V14.01,2013-05-31 12:23:00,
2013-05-31 07:24:00,61.0,53.4,29.48,SW,223,2.0,4.0,76,0.00,,---,0.00,VWS V14.01,2013-05-31 12:24:00,
2013-05-31 07:25:00,60.7,53.5,29.48,West,259,1.0,3.0,77,0.00,,---,0.00,VWS V14.01,2013-05-31 12:25:00,
2013-05-31 07:26:00,61.2,53.2,29.48,WSW,257,4.0,5.0,75,0.00,,---,0.00,VWS V14.01,2013-05-31 12:26:00,
2013-05-31 07:27:00,61.2,53.2,29.48,SSW,209,6.0,10.0,75,0.00,,---,0.00,VWS V14.01,2013-05-31 12:27:00,
2013-05-31 07:28:00,61.3,53.0,29.48,WSW,253,3.0,6.0,74,0.00,,---,0.00,VWS V14.01,2013-05-31 12:28:00,
2013-05-31 07:29:00,61.3,53.0,29.48,WSW,250,5.0,5.0,74,0.00,,---,0.00,VWS V14.01,2013-05-31 12:29:00,
2013-05-31 07:30:00,61.1,53.1,29.48,South,177,3.0,5.0,75,0.00,,---,0.00,VWS V14.01,2013-05-31 12:30:00,
2013-05-31 07:31:00,61.4,53.0,29.48,SSW,209,1.0,5.0,74,0.00,,---,0.00,VWS V14.01,2013-05-31 12:31:00,
2013-05-31 07:32:00,61.4,53.0,29.48,WSW,251,3.0,4.0,74,0.00,,---,0.00,VWS V14.01,2013-05-31 12:32:00,
2013-05-31 07:33:00,61.5,53.2,29.48,WSW,242,5.0,10.0,74,0.00,,---,0.00,VWS V14.01,2013-05-31 12:33:00,
2013-05-31 07:34:00,61.5,53.5,29.48,WSW,249,4.0,5.0,75,0.00,,---,0.00,VWS V14.01,2013-05-31 12:34:00,
2013-05-31 07:35:00,61.3,53.0,29.48,WSW,250,4.0,4.0,74,0.00,,---,0.00,VWS V14.01,2013-05-31 12:35:00,
2013-05-31 07:36:00,61.7,53.3,29.49,WSW,252,2.0,3.0,74,0.00,,---,0.00,VWS V14.01,2013-05-31 12:36:00,
2013-05-31 07:37:00,61.8,53.4,29.49,WSW,242,5.0,5.0,74,0.00,,---,0.00,VWS V14.01,2013-05-31 12:37:00,
2013-05-31 07:38:00,61.8,53.4,29.49,WSW,253,0.0,5.0,74,0.00,,---,0.00,VWS V14.01,2013-05-31 12:38:00,
2013-05-31 07:39:00,61.9,53.2,29.49,WSW,241,2.0,4.0,73,0.00,,---,0.00,VWS V14.01,2013-05-31 12:39:00,
2013-05-31 07:40:00,61.6,53.2,29.49,WSW,252,3.0,3.0,74,0.00,,---,0.00,VWS V14.01,2013-05-31 12:40:00,
2013-05-31 07:41:00,62.1,53.7,29.49,WSW,256,1.0,3.0,74,0.00,,---,0.00,VWS V14.01,2013-05-31 12:41:00,
2013-05-31 07:42:00,62.1,53.3,29.49,West,261,2.0,6.0,73,0.00,,---,0.00,VWS V14.01,2013-05-31 12:42:00,
2013-05-31 07:43:00,62.2,53.8,29.49,West,267,2.0,6.0,74,0.00,,---,0.00,VWS V14.01,2013-05-31 12:43:00,
2013-05-31 07:44:00,62.3,53.5,29.49,WSW,242,2.0,5.0,73,0.00,,---,0.00,VWS V14.01,2013-05-31 12:44:00,
2013-05-31 07:45:00,62.0,53.6,29.49,West,266,3.0,3.0,74,0.00,,---,0.00,VWS V14.01,2013-05-31 12:45:00,
2013-05-31 07:46:00,62.4,54.0,29.49,SW,235,9.0,11.0,74,0.00,,---,0.00,VWS V14.01,2013-05-31 12:46:00,
2013-05-31 07:47:00,62.4,54.0,29.49,WSW,250,1.0,9.0,74,0.00,,---,0.00,VWS V14.01,2013-05-31 12:47:00,
2013-05-31 07:48:00,62.5,53.7,29.49,West,260,3.0,4.0,73,0.00,,---,0.00,VWS V14.01,2013-05-31 12:48:00,
2013-05-31 07:49:00,62.5,53.4,29.48,West,267,3.0,6.0,72,0.00,,---,0.00,VWS V14.01,2013-05-31 12:49:00,
2013-05-31 07:50:00,62.3,53.5,29.49,WSW,252,1.0,2.0,73,0.00,,---,0.00,VWS V14.01,2013-05-31 12:50:00,
2013-05-31 07:51:00,62.7,54.3,29.48,West,269,2.0,3.0,74,0.00,,---,0.00,VWS V14.01,2013-05-31 12:51:00,
2013-05-31 07:52:00,62.7,53.9,29.48,WSW,248,3.0,6.0,73,0.00,,---,0.00,VWS V14.01,2013-05-31 12:52:00,
2013-05-31 07:53:00,62.8,53.7,29.48,WSW,252,4.0,6.0,72,0.00,,---,0.00,VWS V14.01,2013-05-31 12:53:00,
2013-05-31 07:54:00,62.8,53.7,29.48,WSW,248,2.0,9.0,72,0.00,,---,0.00,VWS V14.01,2013-05-31 12:54:00,
2013-05-31 07:55:00,62.6,53.8,29.48,WSW,248,0.0,0.0,73,0.00,,---,0.00,VWS V14.01,2013-05-31 12:55:00,
2013-05-31 07:56:00,62.8,52.5,29.49,WSW,252,1.0,7.0,69,0.00,,---,0.00,VWS V14.01,2013-05-31 12:56:00,
2013-05-31 07:57:00,62.8,53.3,29.49,NW,317,5.0,5.0,71,0.00,,---,0.00,VWS V14.01,2013-05-31 12:57:00,
2013-05-31 07:58:00,62.9,53.4,29.49,SW,214,3.0,9.0,71,0.00,,---,0.00,VWS V14.01,2013-05-31 12:58:00,
2013-05-31 07:59:00,63.0,53.5,29.48,WSW,251,6.0,6.0,71,0.00,,---,0.00,VWS V14.01,2013-05-31 12:59:00,
2013-05-31 08:00:00,62.8,52.5,29.49,SW,236,5.0,7.0,69,0.00,,---,0.00,VWS V14.01,2013-05-31 13:00:00,
2013-05-31 08:01:00,63.1,53.6,29.50,WSW,256,4.0,9.0,71,0.00,,---,0.00,VWS V14.01,2013-05-31 13:01:00,
2013-05-31 08:02:00,63.2,52.9,29.50,SW,223,4.0,5.0,69,0.00,,---,0.00,VWS V14.01,2013-05-31 13:02:00,
2013-05-31 08:03:00,63.2,53.3,29.50,WSW,256,3.0,8.0,70,0.00,,---,0.00,VWS V14.01,2013-05-31 13:03:00,
2013-05-31 08:04:00,63.3,53.4,29.50,WSW,252,4.0,9.0,70,0.00,,---,0.00,VWS V14.01,2013-05-31 13:04:00,
2013-05-31 08:05:00,63.0,53.5,29.50,West,263,5.0,9.0,71,0.00,,---,0.00,VWS V14.01,2013-05-31 13:05:00,
2013-05-31 08:06:00,63.5,53.2,29.50,WSW,257,4.0,7.0,69,0.00,,---,0.00,VWS V14.01,2013-05-31 13:06:00,
2013-05-31 08:07:00,63.5,53.2,29.50,West,274,3.0,10.0,69,0.00,,---,0.00,VWS V14.01,2013-05-31 13:07:00,
2013-05-31 08:08:00,63.6,52.9,29.50,WSW,258,5.0,5.0,68,0.00,,---,0.00,VWS V14.01,2013-05-31 13:08:00,
2013-05-31 08:09:00,63.7,53.0,29.50,SW,236,1.0,6.0,68,0.00,,---,0.00,VWS V14.01,2013-05-31 13:09:00,
2013-05-31 08:10:00,63.4,53.5,29.50,West,279,3.0,5.0,70,0.00,,---,0.00,VWS V14.01,2013-05-31 13:10:00,
2013-05-31 08:11:00,63.9,53.2,29.50,WSW,252,5.0,5.0,68,0.00,,---,0.00,VWS V14.01,2013-05-31 13:11:00,
2013-05-31 08:12:00,63.9,53.2,29.50,WSW,240,2.0,5.0,68,0.00,,---,0.00,VWS V14.01,2013-05-31 13:12:00,
2013-05-31 08:13:00,64.0,53.2,29.50,West,269,4.0,5.0,68,0.00,,---,0.00,VWS V14.01,2013-05-31 13:13:00,
2013-05-31 08:14:00,64.1,53.7,29.50,West,272,4.0,11.0,69,0.00,,---,0.00,VWS V14.01,2013-05-31 13:14:00,
2013-05-31 08:15:00,63.8,52.7,29.50,West,279,1.0,1.0,67,0.00,,---,0.00,VWS V14.01,2013-05-31 13:15:00,
2013-05-31 08:16:00,64.4,54.0,29.50,West,269,4.0,9.0,69,0.00,,---,0.00,VWS V14.01,2013-05-31 13:16:00,
2013-05-31 08:17:00,64.5,54.5,29.50,WSW,238,4.0,7.0,70,0.00,,---,0.00,VWS V14.01,2013-05-31 13:17:00,
2013-05-31 08:18:00,64.7,54.7,29.49,South,174,1.0,6.0,70,0.00,,---,0.00,VWS V14.01,2013-05-31 13:18:00,
2013-05-31 08:19:00,64.8,54.4,29.49,WSW,242,3.0,9.0,69,0.00,,---,0.00,VWS V14.01,2013-05-31 13:19:00,
2013-05-31 08:20:00,64.2,54.2,29.50,West,261,9.0,9.0,70,0.00,,---,0.00,VWS V14.01,2013-05-31 13:20:00,
2013-05-31 08:21:00,64.9,52.9,29.49,WNW,288,4.0,13.0,65,0.00,,---,0.00,VWS V14.01,2013-05-31 13:21:00,
2013-05-31 08:22:00,64.9,52.5,29.49,West,273,5.0,17.0,64,0.00,,---,0.00,VWS V14.01,2013-05-31 13:22:00,
2013-05-31 08:23:00,64.9,52.5,29.49,WSW,253,6.0,7.0,64,0.00,,---,0.00,VWS V14.01,2013-05-31 13:23:00,
2013-05-31 08:24:00,65.0,53.0,29.49,WSW,242,4.0,11.0,65,0.00,,---,0.00,VWS V14.01,2013-05-31 13:24:00,
2013-05-31 08:25:00,64.8,53.2,29.49,WSW,252,7.0,13.0,66,0.00,,---,0.00,VWS V14.01,2013-05-31 13:25:00,
2013-05-31 08:26:00,65.0,53.4,29.49,NNW,344,5.0,16.0,66,0.00,,---,0.00,VWS V14.01,2013-05-31 13:26:00,
2013-05-31 08:27:00,65.0,52.5,29.49,NW,325,7.0,12.0,64,0.00,,---,0.00,VWS V14.01,2013-05-31 13:27:00,
2013-05-31 08:28:00,65.0,52.1,29.49,WSW,244,2.0,7.0,63,0.00,,---,0.00,VWS V14.01,2013-05-31 13:28:00,
2013-05-31 08:29:00,65.0,52.5,29.49,South,178,8.0,8.0,64,0.00,,---,0.00,VWS V14.01,2013-05-31 13:29:00,
2013-05-31 08:30:00,65.0,52.5,29.49,WSW,243,5.0,5.0,64,0.00,,---,0.00,VWS V14.01,2013-05-31 13:30:00,
2013-05-31 08:31:00,65.0,52.1,29.49,WSW,249,4.0,7.0,63,0.00,,---,0.00,VWS V14.01,2013-05-31 13:31:00,
2013-05-31 08:32:00,65.1,52.2,29.49,West,261,3.0,5.0,63,0.00,,---,0.00,VWS V14.01,2013-05-31 13:32:00,
2013-05-31 08:33:00,65.1,52.2,29.49,WSW,239,2.0,3.0,63,0.00,,---,0.00,VWS V14.01,2013-05-31 13:33:00,
2013-05-31 08:34:00,65.2,52.7,29.49,West,273,2.0,10.0,64,0.00,,---,0.00,VWS V14.01,2013-05-31 13:34:00,
2013-05-31 08:35:00,65.0,52.5,29.49,West,270,2.0,13.0,64,0.00,,---,0.00,VWS V14.01,2013-05-31 13:35:00,
2013-05-31 08:36:00,65.4,53.8,29.49,SW,232,3.0,11.0,66,0.00,,---,0.00,VWS V14.01,2013-05-31 13:36:00,
2013-05-31 08:37:00,65.4,53.8,29.49,WSW,244,3.0,6.0,66,0.00,,---,0.00,VWS V14.01,2013-05-31 13:37:00,
2013-05-31 08:38:00,65.6,54.0,29.49,West,261,5.0,9.0,66,0.00,,---,0.00,VWS V14.01,2013-05-31 13:38:00,
2013-05-31 08:39:00,65.7,54.5,29.49,WSW,249,3.0,9.0,67,0.00,,---,0.00,VWS V14.01,2013-05-31 13:39:00,
2013-05-31 08:40:00,65.3,53.2,29.49,WSW,257,7.0,7.0,65,0.00,,---,0.00,VWS V14.01,2013-05-31 13:40:00,
2013-05-31 08:41:00,66.0,53.9,29.49,WSW,239,2.0,5.0,65,0.00,,---,0.00,VWS V14.01,2013-05-31 13:41:00,
2013-05-31 08:42:00,66.1,53.2,29.49,WSW,250,3.0,5.0,63,0.00,,---,0.00,VWS V14.01,2013-05-31 13:42:00,
2013-05-31 08:43:00,66.1,53.2,29.49,West,261,3.0,6.0,63,0.00,,---,0.00,VWS V14.01,2013-05-31 13:43:00,
2013-05-31 08:44:00,66.3,53.3,29.49,WNW,295,3.0,7.0,63,0.00,,---,0.00,VWS V14.01,2013-05-31 13:44:00,
2013-05-31 08:45:00,65.9,54.7,29.49,West,277,2.0,2.0,67,0.00,,---,0.00,VWS V14.01,2013-05-31 13:45:00,
2013-05-31 08:46:00,66.5,54.4,29.49,WSW,256,4.0,9.0,65,0.00,,---,0.00,VWS V14.01,2013-05-31 13:46:00,
2013-05-31 08:47:00,66.6,54.1,29.48,WNW,291,4.0,9.0,64,0.00,,---,0.00,VWS V14.01,2013-05-31 13:47:00,
2013-05-31 08:48:00,66.6,54.1,29.48,SW,236,4.0,12.0,64,0.00,,---,0.00,VWS V14.01,2013-05-31 13:48:00,
2013-05-31 08:49:00,66.6,53.6,29.48,WSW,239,7.0,13.0,63,0.00,,---,0.00,VWS V14.01,2013-05-31 13:49:00,
2013-05-31 08:50:00,66.4,53.9,29.49,West,280,5.0,7.0,64,0.00,,---,0.00,VWS V14.01,2013-05-31 13:50:00,
2013-05-31 08:51:00,66.7,53.3,29.48,West,267,5.0,9.0,62,0.00,,---,0.00,VWS V14.01,2013-05-31 13:51:00,
2013-05-31 08:52:00,66.7,53.3,29.49,West,264,6.0,12.0,62,0.00,,---,0.00,VWS V14.01,2013-05-31 13:52:00,
2013-05-31 08:53:00,66.6,52.3,29.48,NNW,346,4.0,6.0,60,0.00,,---,0.00,VWS V14.01,2013-05-31 13:53:00,
2013-05-31 08:54:00,66.7,52.4,29.49,West,260,6.0,12.0,60,0.00,,---,0.00,VWS V14.01,2013-05-31 13:54:00,
2013-05-31 08:55:00,66.6,54.1,29.48,West,261,4.0,6.0,64,0.00,,---,0.00,VWS V14.01,2013-05-31 13:55:00,
2013-05-31 08:56:00,66.7,53.7,29.48,WSW,246,4.0,11.0,63,0.00,,---,0.00,VWS V14.01,2013-05-31 13:56:00,
2013-05-31 08:57:00,66.7,52.4,29.49,WSW,246,5.0,7.0,60,0.00,,---,0.00,VWS V14.01,2013-05-31 13:57:00,
2013-05-31 08:58:00,66.8,53.4,29.49,WNW,298,5.0,9.0,62,0.00,,---,0.00,VWS V14.01,2013-05-31 13:58:00,
2013-05-31 08:59:00,66.8,53.8,29.49,WSW,255,4.0,5.0,63,0.00,,---,0.00,VWS V14.01,2013-05-31 13:59:00,
2013-05-31 09:00:00,66.7,53.7,29.49,WSW,251,7.0,11.0,63,0.00,,---,0.00,VWS V14.01,2013-05-31 14:00:00,
2013-05-31 09:01:00,66.8,52.9,29.50,WSW,249,6.0,9.0,61,0.00,,---,0.00,VWS V14.01,2013-05-31 14:01:00,
2013-05-31 09:02:00,66.8,52.9,29.50,WSW,252,5.0,7.0,61,0.00,,---,0.00,VWS V14.01,2013-05-31 14:02:00,
2013-05-31 09:03:00,66.9,53.5,29.50,NW,309,5.0,8.0,62,0.00,,---,0.00,VWS V14.01,2013-05-31 14:03:00,
2013-05-31 09:04:00,67.0,53.6,29.50,West,262,6.0,7.0,62,0.00,,---,0.00,VWS V14.01,2013-05-31 14:04:00,
2013-05-31 09:05:00,66.8,52.5,29.49,WNW,300,4.0,6.0,60,0.00,,---,0.00,VWS V14.01,2013-05-31 14:05:00,
2013-05-31 09:06:00,67.1,53.7,29.50,West,267,3.0,12.0,62,0.00,,---,0.00,VWS V14.01,2013-05-31 14:06:00,
2013-05-31 09:07:00,67.2,52.9,29.50,NW,313,4.0,11.0,60,0.00,,---,0.00,VWS V14.01,2013-05-31 14:07:00,
2013-05-31 09:08:00,67.2,51.9,29.50,WNW,284,3.0,10.0,58,0.00,,---,0.00,VWS V14.01,2013-05-31 14:08:00,
2013-05-31 09:09:00,67.2,52.9,29.50,West,269,5.0,5.0,60,0.00,,---,0.00,VWS V14.01,2013-05-31 14:09:00,
2013-05-31 09:10:00,67.1,54.5,29.50,WSW,242,9.0,12.0,64,0.00,,---,0.00,VWS V14.01,2013-05-31 14:10:00,
2013-05-31 09:11:00,67.3,53.8,29.50,WSW,238,6.0,12.0,62,0.00,,---,0.00,VWS V14.01,2013-05-31 14:11:00,
2013-05-31 09:12:00,67.4,53.5,29.50,West,261,10.0,12.0,61,0.00,,---,0.00,VWS V14.01,2013-05-31 14:12:00,
2013-05-31 09:13:00,67.4,52.1,29.50,NW,311,10.0,14.0,58,0.00,,---,0.00,VWS V14.01,2013-05-31 14:13:00,
2013-05-31 09:14:00,67.5,53.6,29.50,WSW,248,3.0,10.0,61,0.00,,---,0.00,VWS V14.01,2013-05-31 14:14:00,
2013-05-31 09:15:00,67.2,53.3,29.50,West,259,5.0,16.0,61,0.00,,---,0.00,VWS V14.01,2013-05-31 14:15:00,
2013-05-31 09:16:00,67.7,53.3,29.49,WSW,258,5.0,9.0,60,0.00,,---,0.00,VWS V14.01,2013-05-31 14:16:00,
2013-05-31 09:17:00,67.8,53.4,29.49,WSW,241,4.0,6.0,60,0.00,,---,0.00,VWS V14.01,2013-05-31 14:17:00,
2013-05-31 09:18:00,67.9,53.5,29.49,West,264,5.0,5.0,60,0.00,,---,0.00,VWS V14.01,2013-05-31 14:18:00,
2013-05-31 09:19:00,67.9,53.5,29.49,NNW,330,4.0,9.0,60,0.00,,---,0.00,VWS V14.01,2013-05-31 14:19:00,
2013-05-31 09:20:00,67.6,53.7,29.49,WNW,292,4.0,11.0,61,0.00,,---,0.00,VWS V14.01,2013-05-31 14:20:00,
2013-05-31 09:21:00,68.0,52.7,29.48,SW,236,16.0,16.0,58,0.00,,---,0.00,VWS V14.01,2013-05-31 14:21:00,
2013-05-31 09:22:00,68.1,52.8,29.49,WNW,286,4.0,16.0,58,0.00,,---,0.00,VWS V14.01,2013-05-31 14:22:00,
2013-05-31 09:23:00,68.1,52.3,29.48,WSW,250,1.0,5.0,57,0.00,,---,0.00,VWS V14.01,2013-05-31 14:23:00,
2013-05-31 09:24:00,68.1,52.3,29.49,West,261,4.0,6.0,57,0.00,,---,0.00,VWS V14.01,2013-05-31 14:24:00,
2013-05-31 09:25:00,68.0,53.2,29.49,WSW,253,10.0,10.0,59,0.00,,---,0.00,VWS V14.01,2013-05-31 14:25:00,
2013-05-31 09:26:00,68.2,51.4,29.49,West,259,6.0,17.0,55,0.00,,---,0.00,VWS V14.01,2013-05-31 14:26:00,
2013-05-31 09:27:00,68.2,52.4,29.48,SSW,205,6.0,6.0,57,0.00,,---,0.00,VWS V14.01,2013-05-31 14:27:00,
2013-05-31 09:28:00,68.3,52.5,29.48,West,261,1.0,7.0,57,0.00,,---,0.00,VWS V14.01,2013-05-31 14:28:00,
2013-05-31 09:29:00,68.3,53.0,29.49,West,279,3.0,9.0,58,0.00,,---,0.00,VWS V14.01,2013-05-31 14:29:00,
2013-05-31 09:30:00,68.2,51.4,29.49,West,259,6.0,11.0,55,0.00,,---,0.00,VWS V14.01,2013-05-31 14:30:00,
2013-05-31 09:31:00,68.5,52.2,29.49,NW,306,3.0,7.0,56,0.00,,---,0.00,VWS V14.01,2013-05-31 14:31:00,
2013-05-31 09:32:00,68.5,52.7,29.49,WNW,298,4.0,13.0,57,0.00,,---,0.00,VWS V14.01,2013-05-31 14:32:00,
2013-05-31 09:33:00,68.6,53.7,29.49,SSW,205,6.0,12.0,59,0.00,,---,0.00,VWS V14.01,2013-05-31 14:33:00,
2013-05-31 09:34:00,68.8,53.4,29.49,West,263,4.0,7.0,58,0.00,,---,0.00,VWS V14.01,2013-05-31 14:34:00,
2013-05-31 09:35:00,68.4,52.1,29.48,West,259,1.0,9.0,56,0.00,,---,0.00,VWS V14.01,2013-05-31 14:35:00,
2013-05-31 09:36:00,68.9,53.1,29.49,WSW,254,2.0,15.0,57,0.00,,---,0.00,VWS V14.01,2013-05-31 14:36:00,
2013-05-31 09:37:00,69.0,53.2,29.49,WSW,242,4.0,6.0,57,0.00,,---,0.00,VWS V14.01,2013-05-31 14:37:00,
2013-05-31 09:38:00,69.2,54.3,29.49,WSW,257,11.0,16.0,59,0.00,,---,0.00,VWS V14.01,2013-05-31 14:38:00,
2013-05-31 09:39:00,69.2,52.4,29.49,West,274,4.0,11.0,55,0.00,,---,0.00,VWS V14.01,2013-05-31 14:39:00,
2013-05-31 09:40:00,68.9,52.6,29.49,WSW,240,4.0,5.0,56,0.00,,---,0.00,VWS V14.01,2013-05-31 14:40:00,
2013-05-31 09:41:00,69.4,53.5,29.50,WSW,248,6.0,7.0,57,0.00,,---,0.00,VWS V14.01,2013-05-31 14:41:00,
2013-05-31 09:42:00,69.5,55.0,29.50,SW,217,5.0,7.0,60,0.00,,---,0.00,VWS V14.01,2013-05-31 14:42:00,
2013-05-31 09:43:00,69.6,54.2,29.49,West,269,4.0,6.0,58,0.00,,---,0.00,VWS V14.01,2013-05-31 14:43:00,
2013-05-31 09:44:00,69.7,53.3,29.49,West,261,4.0,6.0,56,0.00,,---,0.00,VWS V14.01,2013-05-31 14:44:00,
2013-05-31 09:45:00,69.3,52.5,29.50,North,355,1.0,12.0,55,0.00,,---,0.00,VWS V14.01,2013-05-31 14:45:00,
2013-05-31 09:46:00,69.9,54.0,29.49,West,273,12.0,15.0,57,0.00,,---,0.00,VWS V14.01,2013-05-31 14:46:00,
2013-05-31 09:47:00,70.0,54.6,29.50,SW,229,15.0,15.0,58,0.00,,---,0.00,VWS V14.01,2013-05-31 14:47:00,
2013-05-31 09:48:00,70.1,53.2,29.50,West,267,4.0,15.0,55,0.00,,---,0.00,VWS V14.01,2013-05-31 14:48:00,
2013-05-31 09:49:00,70.1,53.2,29.49,SW,221,5.0,9.0,55,0.00,,---,0.00,VWS V14.01,2013-05-31 14:49:00,
2013-05-31 09:50:00,69.8,52.9,29.49,SSW,200,7.0,7.0,55,0.00,,---,0.00,VWS V14.01,2013-05-31 14:50:00,
2013-05-31 09:51:00,70.3,52.9,29.50,WSW,244,10.0,10.0,54,0.00,,---,0.00,VWS V14.01,2013-05-31 14:51:00,
2013-05-31 09:52:00,70.4,54.5,29.50,West,276,11.0,11.0,57,0.00,,---,0.00,VWS V14.01,2013-05-31 14:52:00,
2013-05-31 09:53:00,70.4,53.5,29.50,WSW,248,7.0,11.0,55,0.00,,---,0.00,VWS V14.01,2013-05-31 14:53:00,
2013-05-31 09:54:00,70.5,53.6,29.50,West,279,8.0,9.0,55,0.00,,---,0.00,VWS V14.01,2013-05-31 14:54:00,
2013-05-31 09:55:00,70.2,53.8,29.50,WSW,244,5.0,7.0,56,0.00,,---,0.00,VWS V14.01,2013-05-31 14:55:00,
2013-05-31 09:56:00,70.7,53.8,29.50,North,360,3.0,6.0,55,0.00,,---,0.00,VWS V14.01,2013-05-31 14:56:00,
2013-05-31 09:57:00,70.8,54.3,29.50,West,267,4.0,4.0,56,0.00,,---,0.00,VWS V14.01,2013-05-31 14:57:00,
2013-05-31 09:58:00,70.8,53.8,29.50,West,263,10.0,12.0,55,0.00,,---,0.00,VWS V14.01,2013-05-31 14:58:00,
2013-05-31 09:59:00,71.0,53.0,29.50,WSW,255,6.0,12.0,53,0.00,,---,0.00,VWS V14.01,2013-05-31 14:59:00,
2013-05-31 10:00:00,70.6,53.2,29.50,West,259,5.0,10.0,54,0.00,,---,0.00,VWS V14.01,2013-05-31 15:00:00,
2013-05-31 10:01:00,71.1,53.6,29.51,WSW,252,2.0,6.0,54,0.00,,---,0.00,VWS V14.01,2013-05-31 15:01:00,
2013-05-31 10:02:00,71.2,55.7,29.51,WNW,291,8.0,8.0,58,0.00,,---,0.00,VWS V14.01,2013-05-31 15:02:00,
2013-05-31 10:03:00,71.3,54.3,29.51,West,260,6.0,13.0,55,0.00,,---,0.00,VWS V14.01,2013-05-31 15:03:00,
2013-05-31 10:04:00,71.3,53.3,29.52,SW,229,5.0,15.0,53,0.00,,---,0.00,VWS V14.01,2013-05-31 15:04:00,
2013-05-31 10:05:00,71.0,53.0,29.50,NNW,346,3.0,6.0,53,0.00,,---,0.00,VWS V14.01,2013-05-31 15:05:00,
2013-05-31 10:06:00,71.5,53.5,29.52,WSW,244,9.0,9.0,53,0.00,,---,0.00,VWS V14.01,2013-05-31 15:06:00,
2013-05-31 10:07:00,71.5,53.0,29.51,SW,220,4.0,16.0,52,0.00,,---,0.00,VWS V14.01,2013-05-31 15:07:00,
2013-05-31 10:08:00,71.6,52.5,29.51,SSE,166,10.0,10.0,51,0.00,,---,0.00,VWS V14.01,2013-05-31 15:08:00,
2013-05-31 10:09:00,71.6,53.6,29.52,WSW,255,7.0,10.0,53,0.00,,---,0.00,VWS V14.01,2013-05-31 15:09:00,
2013-05-31 10:10:00,71.4,53.9,29.52,West,281,3.0,11.0,54,0.00,,---,0.00,VWS V14.01,2013-05-31 15:10:00,
2013-05-31 10:11:00,71.7,53.7,29.51,West,267,3.0,6.0,53,0.00,,---,0.00,VWS V14.01,2013-05-31 15:11:00,
2013-05-31 10:12:00,71.8,54.8,29.51,West,261,4.0,6.0,55,0.00,,---,0.00,VWS V14.01,2013-05-31 15:12:00,
2013-05-31 10:13:00,71.9,53.3,29.51,WSW,247,4.0,10.0,52,0.00,,---,0.00,VWS V14.01,2013-05-31 15:13:00,
2013-05-31 10:14:00,71.9,54.4,29.51,WSW,247,5.0,5.0,54,0.00,,---,0.00,VWS V14.01,2013-05-31 15:14:00,
2013-05-31 10:15:00,71.7,53.7,29.51,WSW,254,3.0,13.0,53,0.00,,---,0.00,VWS V14.01,2013-05-31 15:15:00,
2013-05-31 10:16:00,72.1,54.6,29.52,WSW,239,13.0,15.0,54,0.00,,---,0.00,VWS V14.01,2013-05-31 15:16:00,
2013-05-31 10:17:00,72.1,54.6,29.51,West,259,6.0,13.0,54,0.00,,---,0.00,VWS V14.01,2013-05-31 15:17:00,
2013-05-31 10:18:00,72.2,53.6,29.51,WSW,252,5.0,12.0,52,0.00,,---,0.00,VWS V14.01,2013-05-31 15:18:00,
2013-05-31 10:19:00,72.3,55.7,29.51,West,263,2.0,6.0,56,0.00,,---,0.00,VWS V14.01,2013-05-31 15:19:00,
2013-05-31 10:20:00,72.0,54.5,29.51,NW,306,2.0,9.0,54,0.00,,---,0.00,VWS V14.01,2013-05-31 15:20:00,
2013-05-31 10:21:00,72.4,54.3,29.52,SW,229,3.0,10.0,53,0.00,,---,0.00,VWS V14.01,2013-05-31 15:21:00,
2013-05-31 10:22:00,72.5,54.4,29.51,WSW,246,3.0,5.0,53,0.00,,---,0.00,VWS V14.01,2013-05-31 15:22:00,
2013-05-31 10:23:00,72.6,54.5,29.52,West,261,5.0,10.0,53,0.00,,---,0.00,VWS V14.01,2013-05-31 15:23:00,
2013-05-31 10:24:00,72.6,55.0,29.51,WSW,258,6.0,7.0,54,0.00,,---,0.00,VWS V14.01,2013-05-31 15:24:00,
2013-05-31 10:25:00,72.4,55.3,29.51,SW,223,5.0,5.0,55,0.00,,---,0.00,VWS V14.01,2013-05-31 15:25:00,
2013-05-31 10:26:00,72.7,53.5,29.52,WSW,250,4.0,6.0,51,0.00,,---,0.00,VWS V14.01,2013-05-31 15:26:00,
2013-05-31 10:27:00,72.7,52.5,29.51,SW,230,3.0,5.0,49,0.00,,---,0.00,VWS V14.01,2013-05-31 15:27:00,
2013-05-31 10:28:00,72.7,53.0,29.52,WSW,258,2.0,5.0,50,0.00,,---,0.00,VWS V14.01,2013-05-31 15:28:00,
2013-05-31 10:29:00,72.8,54.7,29.51,WSW,253,5.0,5.0,53,0.00,,---,0.00,VWS V14.01,2013-05-31 15:29:00,
2013-05-31 10:30:00,72.7,53.5,29.52,WSW,248,6.0,9.0,51,0.00,,---,0.00,VWS V14.01,2013-05-31 15:30:00,
2013-05-31 10:31:00,73.0,54.9,29.52,WSW,242,6.0,7.0,53,0.00,,---,0.00,VWS V14.01,2013-05-31 15:31:00,
2013-05-31 10:32:00,73.1,55.0,29.51,SW,229,4.0,9.0,53,0.00,,---,0.00,VWS V14.01,2013-05-31 15:32:00,
2013-05-31 10:33:00,73.1,55.0,29.52,WSW,248,5.0,9.0,53,0.00,,---,0.00,VWS V14.01,2013-05-31 15:33:00,
2013-05-31 10:34:00,73.2,55.1,29.52,West,275,6.0,6.0,53,0.00,,---,0.00,VWS V14.01,2013-05-31 15:34:00,
2013-05-31 10:35:00,72.9,55.3,29.52,West,275,9.0,9.0,54,0.00,,---,0.00,VWS V14.01,2013-05-31 15:35:00,
2013-05-31 10:36:00,73.3,55.2,29.51,WSW,248,10.0,10.0,53,0.00,,---,0.00,VWS V14.01,2013-05-31 15:36:00,
2013-05-31 10:37:00,73.2,54.5,29.51,WSW,257,4.0,10.0,52,0.00,,---,0.00,VWS V14.01,2013-05-31 15:37:00,
2013-05-31 10:38:00,73.3,54.6,29.51,SW,227,5.0,11.0,52,0.00,,---,0.00,VWS V14.01,2013-05-31 15:38:00,
2013-05-31 10:39:00,73.3,54.6,29.51,West,263,5.0,5.0,52,0.00,,---,0.00,VWS V14.01,2013-05-31 15:39:00,
2013-05-31 10:40:00,73.2,54.0,29.52,WSW,250,8.0,11.0,51,0.00,,---,0.00,VWS V14.01,2013-05-31 15:40:00,
2013-05-31 10:41:00,73.5,55.8,29.51,WSW,244,6.0,6.0,54,0.00,,---,0.00,VWS V14.01,2013-05-31 15:41:00,
2013-05-31 10:42:00,73.5,55.3,29.50,WSW,240,6.0,9.0,53,0.00,,---,0.00,VWS V14.01,2013-05-31 15:42:00,
2013-05-31 10:43:00,73.6,56.0,29.50,West,275,6.0,6.0,54,0.00,,---,0.00,VWS V14.01,2013-05-31 15:43:00,
2013-05-31 10:44:00,73.7,57.0,29.50,WSW,255,9.0,9.0,56,0.00,,---,0.00,VWS V14.01,2013-05-31 15:44:00,
2013-05-31 10:45:00,73.4,56.8,29.52,WSW,253,3.0,10.0,56,0.00,,---,0.00,VWS V14.01,2013-05-31 15:45:00,
2013-05-31 10:46:00,73.6,54.9,29.50,West,261,5.0,7.0,52,0.00,,---,0.00,VWS V14.01,2013-05-31 15:46:00,
2013-05-31 10:47:00,73.7,57.0,29.50,SE,128,4.0,7.0,56,0.00,,---,0.00,VWS V14.01,2013-05-31 15:47:00,
2013-05-31 10:48:00,73.7,55.5,29.50,West,260,2.0,4.0,53,0.00,,---,0.00,VWS V14.01,2013-05-31 15:48:00,
2013-05-31 10:49:00,73.7,57.5,29.51,WSW,237,3.0,6.0,57,0.00,,---,0.00,VWS V14.01,2013-05-31 15:49:00,
2013-05-31 10:50:00,73.7,53.9,29.50,SW,222,5.0,9.0,50,0.00,,---,0.00,VWS V14.01,2013-05-31 15:50:00,
2013-05-31 10:51:00,73.9,55.2,29.51,SSW,207,5.0,9.0,52,0.00,,---,0.00,VWS V14.01,2013-05-31 15:51:00,
2013-05-31 10:52:00,73.9,56.2,29.51,South,189,11.0,11.0,54,0.00,,---,0.00,VWS V14.01,2013-05-31 15:52:00,
2013-05-31 10:53:00,73.9,55.7,29.50,SSW,203,2.0,11.0,53,0.00,,---,0.00,VWS V14.01,2013-05-31 15:53:00,
2013-05-31 10:54:00,73.9,55.7,29.50,WSW,248,1.0,7.0,53,0.00,,---,0.00,VWS V14.01,2013-05-31 15:54:00,
2013-05-31 10:55:00,73.8,56.1,29.50,SSW,213,2.0,4.0,54,0.00,,---,0.00,VWS V14.01,2013-05-31 15:55:00,
2013-05-31 10:56:00,74.0,54.2,29.51,WSW,240,5.0,9.0,50,0.00,,---,0.00,VWS V14.01,2013-05-31 15:56:00,
2013-05-31 10:57:00,74.0,55.8,29.51,SW,224,0.0,7.0,53,0.00,,---,0.00,VWS V14.01,2013-05-31 15:57:00,
2013-05-31 10:58:00,74.0,55.8,29.51,SE,146,5.0,10.0,53,0.00,,---,0.00,VWS V14.01,2013-05-31 15:58:00,
2013-05-31 10:59:00,74.0,56.8,29.51,SW,226,2.0,6.0,55,0.00,,---,0.00,VWS V14.01,2013-05-31 15:59:00,
2013-05-31 11:00:00,74.0,55.3,29.51,West,268,4.0,9.0,52,0.00,,---,0.00,VWS V14.01,2013-05-31 16:00:00,
2013-05-31 11:01:00,74.0,55.3,29.52,WSW,241,5.0,10.0,52,0.00,,---,0.00,VWS V14.01,2013-05-31 16:01:00,
2013-05-31 11:02:00,73.9,54.7,29.53,WSW,258,6.0,6.0,51,0.00,,---,0.00,VWS V14.01,2013-05-31 16:02:00,
2013-05-31 11:03:00,73.9,54.7,29.53,SSW,211,5.0,13.0,51,0.00,,---,0.00,VWS V14.01,2013-05-31 16:03:00,
2013-05-31 11:04:00,73.8,55.1,29.53,SW,229,9.0,9.0,52,0.00,,---,0.00,VWS V14.01,2013-05-31 16:04:00,
2013-05-31 11:05:00,74.0,55.8,29.50,WSW,239,7.0,7.0,53,0.00,,---,0.00,VWS V14.01,2013-05-31 16:05:00,
2013-05-31 11:06:00,73.7,54.5,29.53,WSW,255,4.0,13.0,51,0.00,,---,0.00,VWS V14.01,2013-05-31 16:06:00,
2013-05-31 11:07:00,73.7,53.4,29.53,SW,234,10.0,12.0,49,0.00,,---,0.00,VWS V14.01,2013-05-31 16:07:00,
2013-05-31 11:08:00,73.7,55.0,29.52,WSW,242,4.0,13.0,52,0.00,,---,0.00,VWS V14.01,2013-05-31 16:08:00,
2013-05-31 11:09:00,73.7,55.0,29.53,West,259,6.0,13.0,52,0.00,,---,0.00,VWS V14.01,2013-05-31 16:09:00,
2013-05-31 11:10:00,73.8,54.0,29.53,WSW,253,11.0,11.0,50,0.00,,---,0.00,VWS V14.01,2013-05-31 16:10:00,
2013-05-31 11:11:00,73.7,56.5,29.53,SSW,207,6.0,7.0,55,0.00,,---,0.00,VWS V14.01,2013-05-31 16:11:00,
2013-05-31 11:12:00,73.7,55.5,29.53,WSW,244,4.0,6.0,53,0.00,,---,0.00,VWS V14.01,2013-05-31 16:12:00,
2013-05-31 11:13:00,73.7,54.5,29.53,WSW,252,10.0,14.0,51,0.00,,---,0.00,VWS V14.01,2013-05-31 16:13:00,
2013-05-31 11:14:00,73.7,53.4,29.53,SSW,212,3.0,10.0,49,0.00,,---,0.00,VWS V14.01,2013-05-31 16:14:00,
2013-05-31 11:15:00,73.7,53.9,29.52,West,259,3.0,11.0,50,0.00,,---,0.00,VWS V14.01,2013-05-31 16:15:00,
2013-05-31 11:16:00,73.8,54.6,29.53,SW,223,5.0,5.0,51,0.00,,---,0.00,VWS V14.01,2013-05-31 16:16:00,
2013-05-31 11:17:00,73.8,55.1,29.53,SSW,194,4.0,11.0,52,0.00,,---,0.00,VWS V14.01,2013-05-31 16:17:00,
2013-05-31 11:18:00,73.9,56.2,29.53,WSW,254,3.0,5.0,54,0.00,,---,0.00,VWS V14.01,2013-05-31 16:18:00,
2013-05-31 11:19:00,73.9,55.2,29.53,WSW,252,2.0,4.0,52,0.00,,---,0.00,VWS V14.01,2013-05-31 16:19:00,
2013-05-31 11:20:00,73.8,54.6,29.53,WSW,242,3.0,6.0,51,0.00,,---,0.00,VWS V14.01,2013-05-31 16:20:00,
2013-05-31 11:21:00,74.1,56.4,29.53,West,281,4.0,7.0,54,0.00,,---,0.00,VWS V14.01,2013-05-31 16:21:00,
2013-05-31 11:22:00,74.2,56.5,29.53,West,259,6.0,10.0,54,0.00,,---,0.00,VWS V14.01,2013-05-31 16:22:00,
2013-05-31 11:23:00,74.2,54.9,29.53,SW,225,13.0,13.0,51,0.00,,---,0.00,VWS V14.01,2013-05-31 16:23:00,
2013-05-31 11:24:00,74.2,55.5,29.53,West,263,2.0,13.0,52,0.00,,---,0.00,VWS V14.01,2013-05-31 16:24:00,
2013-05-31 11:25:00,74.0,57.3,29.53,West,260,2.0,7.0,56,0.00,,---,0.00,VWS V14.01,2013-05-31 16:25:00,
2013-05-31 11:26:00,74.3,57.1,29.53,SSW,213,4.0,10.0,55,0.00,,---,0.00,VWS V14.01,2013-05-31 16:26:00,
2013-05-31 11:27:00,74.3,55.6,29.53,SW,216,3.0,12.0,52,0.00,,---,0.00,VWS V14.01,2013-05-31 16:27:00,
2013-05-31 11:28:00,74.3,56.1,29.53,WSW,248,6.0,14.0,53,0.00,,---,0.00,VWS V14.01,2013-05-31 16:28:00,
2013-05-31 11:29:00,74.3,55.0,29.53,SW,219,7.0,12.0,51,0.00,,---,0.00,VWS V14.01,2013-05-31 16:29:00,
2013-05-31 11:30:00,74.2,55.5,29.53,SW,235,3.0,3.0,52,0.00,,---,0.00,VWS V14.01,2013-05-31 16:30:00,
2013-05-31 11:31:00,74.1,54.8,29.53,SW,222,5.0,15.0,51,0.00,,---,0.00,VWS V14.01,2013-05-31 16:31:00,
2013-05-31 11:32:00,74.1,55.4,29.53,WSW,248,5.0,11.0,52,0.00,,---,0.00,VWS V14.01,2013-05-31 16:32:00,
2013-05-31 11:33:00,74.1,54.8,29.53,WSW,254,2.0,10.0,51,0.00,,---,0.00,VWS V14.01,2013-05-31 16:33:00,
2013-05-31 11:34:00,74.0,54.2,29.53,SW,233,4.0,11.0,50,0.00,,---,0.00,VWS V14.01,2013-05-31 16:34:00,
2013-05-31 11:35:00,74.2,54.9,29.53,SSE,167,7.0,14.0,51,0.00,,---,0.00,VWS V14.01,2013-05-31 16:35:00,
2013-05-31 11:36:00,73.9,54.7,29.53,SW,223,6.0,13.0,51,0.00,,---,0.00,VWS V14.01,2013-05-31 16:36:00,
2013-05-31 11:37:00,73.9,54.1,29.53,WSW,247,6.0,9.0,50,0.00,,---,0.00,VWS V14.01,2013-05-31 16:37:00,
2013-05-31 11:38:00,73.8,55.1,29.53,West,259,4.0,9.0,52,0.00,,---,0.00,VWS V14.01,2013-05-31 16:38:00,
2013-05-31 11:39:00,73.8,55.1,29.53,West,264,4.0,5.0,52,0.00,,---,0.00,VWS V14.01,2013-05-31 16:39:00,
2013-05-31 11:40:00,74.0,54.2,29.53,West,263,10.0,15.0,50,0.00,,---,0.00,VWS V14.01,2013-05-31 16:40:00,
2013-05-31 11:41:00,73.9,56.2,29.53,SSW,202,2.0,11.0,54,0.00,,---,0.00,VWS V14.01,2013-05-31 16:41:00,
2013-05-31 11:42:00,74.0,56.8,29.53,SW,232,3.0,9.0,55,0.00,,---,0.00,VWS V14.01,2013-05-31 16:42:00,
2013-05-31 11:43:00,74.0,55.3,29.52,WNW,289,9.0,9.0,52,0.00,,---,0.00,VWS V14.01,2013-05-31 16:43:00,
2013-05-31 11:44:00,74.1,56.9,29.53,SW,236,5.0,9.0,55,0.00,,---,0.00,VWS V14.01,2013-05-31 16:44:00,
2013-05-31 11:45:00,73.8,55.1,29.53,SSE,153,2.0,5.0,52,0.00,,---,0.00,VWS V14.01,2013-05-31 16:45:00,
2013-05-31 11:46:00,74.1,54.3,29.53,WSW,255,5.0,9.0,50,0.00,,---,0.00,VWS V14.01,2013-05-31 16:46:00,
2013-05-31 11:47:00,74.1,55.4,29.53,West,259,6.0,7.0,52,0.00,,---,0.00,VWS V14.01,2013-05-31 16:47:00,
2013-05-31 11:48:00,74.0,55.3,29.53,SW,228,2.0,8.0,52,0.00,,---,0.00,VWS V14.01,2013-05-31 16:48:00,
2013-05-31 11:49:00,74.0,55.8,29.53,West,265,7.0,13.0,53,0.00,,---,0.00,VWS V14.01,2013-05-31 16:49:00,
2013-05-31 11:50:00,74.1,56.4,29.53,WNW,282,10.0,11.0,54,0.00,,---,0.00,VWS V14.01,2013-05-31 16:50:00,
2013-05-31 11:51:00,74.0,55.8,29.53,WSW,252,7.0,14.0,53,0.00,,---,0.00,VWS V14.01,2013-05-31 16:51:00,
2013-05-31 11:52:00,73.9,54.7,29.53,SW,220,3.0,10.0,51,0.00,,---,0.00,VWS V14.01,2013-05-31 16:52:00,
2013-05-31 11:53:00,73.9,54.7,29.53,West,262,4.0,9.0,51,0.00,,---,0.00,VWS V14.01,2013-05-31 16:53:00,
2013-05-31 11:54:00,73.9,55.2,29.53,SW,229,5.0,16.0,52,0.00,,---,0.00,VWS V14.01,2013-05-31 16:54:00,
2013-05-31 11:55:00,74.0,54.7,29.53,WSW,244,4.0,12.0,51,0.00,,---,0.00,VWS V14.01,2013-05-31 16:55:00,
2013-05-31 11:56:00,73.9,56.2,29.53,SW,230,1.0,6.0,54,0.00,,---,0.00,VWS V14.01,2013-05-31 16:56:00,
2013-05-31 11:57:00,73.9,56.2,29.53,West,263,1.0,4.0,54,0.00,,---,0.00,VWS V14.01,2013-05-31 16:57:00,
2013-05-31 11:58:00,74.0,57.3,29.53,SW,236,4.0,4.0,56,0.00,,---,0.00,VWS V14.01,2013-05-31 16:58:00,
2013-05-31 11:59:00,74.1,56.4,29.53,WSW,257,6.0,11.0,54,0.00,,---,0.00,VWS V14.01,2013-05-31 16:59:00,
2013-05-31 12:00:00,73.9,55.2,29.53,West,265,9.0,9.0,52,0.00,,---,0.00,VWS V14.01,2013-05-31 17:00:00,
2013-05-31 12:01:00,74.2,55.5,29.53,WSW,249,4.0,10.0,52,0.00,,---,0.00,VWS V14.01,2013-05-31 17:01:00,
2013-05-31 12:02:00,74.2,54.9,29.54,SW,235,7.0,7.0,51,0.00,,---,0.00,VWS V14.01,2013-05-31 17:02:00,
2013-05-31 12:03:00,74.2,54.9,29.54,SW,219,5.0,11.0,51,0.00,,---,0.00,VWS V14.01,2013-05-31 17:03:00,
2013-05-31 12:04:00,74.3,56.1,29.54,WSW,239,10.0,15.0,53,0.00,,---,0.00,VWS V14.01,2013-05-31 17:04:00,
2013-05-31 12:05:00,74.2,54.9,29.53,SW,226,2.0,11.0,51,0.00,,---,0.00,VWS V14.01,2013-05-31 17:05:00,
2013-05-31 12:06:00,74.2,54.9,29.53,SSW,213,10.0,10.0,51,0.00,,---,0.00,VWS V14.01,2013-05-31 17:06:00,
2013-05-31 12:07:00,74.2,56.0,29.54,WSW,257,6.0,10.0,53,0.00,,---,0.00,VWS V14.01,2013-05-31 17:07:00,
2013-05-31 12:08:00,74.2,56.0,29.53,SSW,202,2.0,7.0,53,0.00,,---,0.00,VWS V14.01,2013-05-31 17:08:00,
2013-05-31 12:09:00,74.2,55.5,29.54,West,275,9.0,11.0,52,0.00,,---,0.00,VWS V14.01,2013-05-31 17:09:00,
2013-05-31 12:10:00,74.2,54.9,29.53,WNW,301,3.0,10.0,51,0.00,,---,0.00,VWS V14.01,2013-05-31 17:10:00,
2013-05-31 12:11:00,74.2,55.5,29.54,SW,223,3.0,7.0,52,0.00,,---,0.00,VWS V14.01,2013-05-31 17:11:00,
2013-05-31 12:12:00,74.2,55.5,29.54,NW,321,4.0,8.0,52,0.00,,---,0.00,VWS V14.01,2013-05-31 17:12:00,
2013-05-31 12:13:00,74.2,54.4,29.54,SW,235,3.0,6.0,50,0.00,,---,0.00,VWS V14.01,2013-05-31 17:13:00,
2013-05-31 12:14:00,74.2,54.9,29.54,WSW,244,4.0,7.0,51,0.00,,---,0.00,VWS V14.01,2013-05-31 17:14:00,
2013-05-31 12:15:00,74.2,55.5,29.53,WSW,256,4.0,9.0,52,0.00,,---,0.00,VWS V14.01,2013-05-31 17:15:00,
2013-05-31 12:16:00,74.4,56.2,29.53,WSW,237,10.0,10.0,53,0.00,,---,0.00,VWS V14.01,2013-05-31 17:16:00,
2013-05-31 12:17:00,74.4,54.6,29.53,SW,225,2.0,13.0,50,0.00,,---,0.00,VWS V14.01,2013-05-31 17:17:00,
2013-05-31 12:18:00,74.5,56.3,29.53,WSW,244,5.0,10.0,53,0.00,,---,0.00,VWS V14.01,2013-05-31 17:18:00,
2013-05-31 12:19:00,74.6,55.3,29.52,WSW,258,6.0,11.0,51,0.00,,---,0.00,VWS V14.01,2013-05-31 17:19:00,
2013-05-31 12:20:00,74.3,55.0,29.54,SW,219,3.0,11.0,51,0.00,,---,0.00,VWS V14.01,2013-05-31 17:20:00,
2013-05-31 12:21:00,74.7,57.5,29.52,West,267,1.0,5.0,55,0.00,,---,0.00,VWS V14.01,2013-05-31 17:21:00,
2013-05-31 12:22:00,74.8,55.5,29.51,South,177,5.0,10.0,51,0.00,,---,0.00,VWS V14.01,2013-05-31 17:22:00,
2013-05-31 12:23:00,74.8,56.0,29.52,West,278,2.0,11.0,52,0.00,,---,0.00,VWS V14.01,2013-05-31 17:23:00,
2013-05-31 12:24:00,74.9,57.2,29.52,SW,227,9.0,10.0,54,0.00,,---,0.00,VWS V14.01,2013-05-31 17:24:00,
2013-05-31 12:25:00,74.6,55.8,29.52,West,259,1.0,6.0,52,0.00,,---,0.00,VWS V14.01,2013-05-31 17:25:00,
2013-05-31 12:26:00,75.1,55.2,29.52,SW,227,9.0,12.0,50,0.00,,---,0.00,VWS V14.01,2013-05-31 17:26:00,
2013-05-31 12:27:00,75.1,54.1,29.52,South,188,1.0,10.0,48,0.00,,---,0.00,VWS V14.01,2013-05-31 17:27:00,
2013-05-31 12:28:00,75.1,53.5,29.52,West,261,12.0,12.0,47,0.00,,---,0.00,VWS V14.01,2013-05-31 17:28:00,
2013-05-31 12:29:00,75.1,54.7,29.52,WSW,247,7.0,14.0,49,0.00,,---,0.00,VWS V14.01,2013-05-31 17:29:00,
2013-05-31 12:30:00,75.0,57.8,29.52,WSW,246,7.0,11.0,55,0.00,,---,0.00,VWS V14.01,2013-05-31 17:30:00,
2013-05-31 12:31:00,74.9,54.5,29.52,WSW,256,4.0,10.0,49,0.00,,---,0.00,VWS V14.01,2013-05-31 17:31:00,
2013-05-31 12:32:00,74.8,54.9,29.52,SW,216,5.0,9.0,50,0.00,,---,0.00,VWS V14.01,2013-05-31 17:32:00,
2013-05-31 12:33:00,74.8,55.5,29.52,SW,221,2.0,9.0,51,0.00,,---,0.00,VWS V14.01,2013-05-31 17:33:00,
2013-05-31 12:34:00,74.8,56.0,29.52,NW,311,5.0,11.0,52,0.00,,---,0.00,VWS V14.01,2013-05-31 17:34:00,
2013-05-31 12:35:00,75.0,54.6,29.52,SSW,209,7.0,7.0,49,0.00,,---,0.00,VWS V14.01,2013-05-31 17:35:00,
2013-05-31 12:36:00,74.9,55.0,29.52,SW,225,5.0,13.0,50,0.00,,---,0.00,VWS V14.01,2013-05-31 17:36:00,
2013-05-31 12:37:00,74.9,56.1,29.52,SW,223,6.0,9.0,52,0.00,,---,0.00,VWS V14.01,2013-05-31 17:37:00,
2013-05-31 12:38:00,75.0,56.2,29.52,South,172,5.0,14.0,52,0.00,,---,0.00,VWS V14.01,2013-05-31 17:38:00,
2013-05-31 12:39:00,75.0,55.1,29.51,WSW,246,7.0,7.0,50,0.00,,---,0.00,VWS V14.01,2013-05-31 17:39:00,
2013-05-31 12:40:00,74.9,55.6,29.51,WSW,246,5.0,6.0,51,0.00,,---,0.00,VWS V14.01,2013-05-31 17:40:00,
2013-05-31 12:41:00,75.0,56.2,29.51,SW,233,2.0,5.0,52,0.00,,---,0.00,VWS V14.01,2013-05-31 17:41:00,
2013-05-31 12:42:00,75.1,57.8,29.51,West,266,3.0,11.0,55,0.00,,---,0.00,VWS V14.01,2013-05-31 17:42:00,
2013-05-31 12:43:00,75.2,57.4,29.51,SW,221,4.0,11.0,54,0.00,,---,0.00,VWS V14.01,2013-05-31 17:43:00,
2013-05-31 12:44:00,75.3,55.9,29.51,West,275,6.0,11.0,51,0.00,,---,0.00,VWS V14.01,2013-05-31 17:44:00,
2013-05-31 12:45:00,74.9,54.5,29.52,SW,224,4.0,11.0,49,0.00,,---,0.00,VWS V14.01,2013-05-31 17:45:00,
2013-05-31 12:46:00,75.3,56.5,29.51,SW,236,9.0,15.0,52,0.00,,---,0.00,VWS V14.01,2013-05-31 17:46:00,
2013-05-31 12:47:00,75.4,56.0,29.51,SW,236,4.0,9.0,51,0.00,,---,0.00,VWS V14.01,2013-05-31 17:47:00,
2013-05-31 12:48:00,75.4,54.9,29.51,SW,226,10.0,12.0,49,0.00,,---,0.00,VWS V14.01,2013-05-31 17:48:00,
2013-05-31 12:49:00,75.3,54.8,29.51,West,271,3.0,10.0,49,0.00,,---,0.00,VWS V14.01,2013-05-31 17:49:00,
2013-05-31 12:50:00,75.3,55.4,29.51,WSW,249,2.0,10.0,50,0.00,,---,0.00,VWS V14.01,2013-05-31 17:50:00,
2013-05-31 12:51:00,75.4,56.0,29.51,West,277,4.0,12.0,51,0.00,,---,0.00,VWS V14.01,2013-05-31 17:51:00,
2013-05-31 12:52:00,75.4,58.1,29.51,West,259,5.0,6.0,55,0.00,,---,0.00,VWS V14.01,2013-05-31 17:52:00,
2013-05-31 12:53:00,75.5,56.7,29.51,WSW,250,4.0,10.0,52,0.00,,---,0.00,VWS V14.01,2013-05-31 17:53:00,
2013-05-31 12:54:00,75.6,56.8,29.50,WSW,250,3.0,11.0,52,0.00,,---,0.00,VWS V14.01,2013-05-31 17:54:00,
2013-05-31 12:55:00,75.3,55.4,29.51,SW,230,3.0,11.0,50,0.00,,---,0.00,VWS V14.01,2013-05-31 17:55:00,
2013-05-31 12:56:00,75.6,55.7,29.51,SW,224,9.0,9.0,50,0.00,,---,0.00,VWS V14.01,2013-05-31 17:56:00,
2013-05-31 12:57:00,75.5,54.5,29.51,SW,217,6.0,12.0,48,0.00,,---,0.00,VWS V14.01,2013-05-31 17:57:00,
2013-05-31 12:58:00,75.5,53.9,29.51,WSW,250,13.0,13.0,47,0.00,,---,0.00,VWS V14.01,2013-05-31 17:58:00,
2013-05-31 12:59:00,75.4,54.4,29.51,WSW,244,2.0,13.0,48,0.00,,---,0.00,VWS V14.01,2013-05-31 17:59:00,
2013-05-31 13:00:00,75.6,56.2,29.50,West,259,10.0,10.0,51,0.00,,---,0.00,VWS V14.01,2013-05-31 18:00:00,
2013-05-31 13:01:00,75.5,55.6,29.52,SSW,200,3.0,9.0,50,0.00,,---,0.00,VWS V14.01,2013-05-31 18:01:00,
2013-05-31 13:02:00,75.5,55.0,29.51,SW,217,10.0,14.0,49,0.00,,---,0.00,VWS V14.01,2013-05-31 18:02:00,
2013-05-31 13:03:00,75.5,54.5,29.51,WSW,238,9.0,16.0,48,0.00,,---,0.00,VWS V14.01,2013-05-31 18:03:00,
2013-05-31 13:04:00,75.5,53.9,29.51,SSW,209,6.0,11.0,47,0.00,,---,0.00,VWS V14.01,2013-05-31 18:04:00,
2013-05-31 13:05:00,75.4,55.5,29.51,SW,229,3.0,9.0,50,0.00,,---,0.00,VWS V14.01,2013-05-31 18:05:00,
2013-05-31 13:06:00,75.6,54.5,29.51,SSW,194,7.0,12.0,48,0.00,,---,0.00,VWS V14.01,2013-05-31 18:06:00,
2013-05-31 13:07:00,75.6,55.1,29.51,WSW,254,8.0,10.0,49,0.00,,---,0.00,VWS V14.01,2013-05-31 18:07:00,
2013-05-31 13:08:00,75.6,54.0,29.51,WSW,254,7.0,14.0,47,0.00,,---,0.00,VWS V14.01,2013-05-31 18:08:00,
2013-05-31 13:09:00,75.6,54.5,29.51,NNE,19,5.0,16.0,48,0.00,,---,0.00,VWS V14.01,2013-05-31 18:09:00,
2013-05-31 13:10:00,75.5,54.5,29.51,South,187,4.0,12.0,48,0.00,,---,0.00,VWS V14.01,2013-05-31 18:10:00,
2013-05-31 13:11:00,75.6,54.5,29.51,WSW,239,8.0,18.0,48,0.00,,---,0.00,VWS V14.01,2013-05-31 18:11:00,
2013-05-31 13:12:00,75.6,53.4,29.51,WSW,240,7.0,9.0,46,0.00,,---,0.00,VWS V14.01,2013-05-31 18:12:00,
2013-05-31 13:13:00,75.6,54.5,29.51,WNW,286,12.0,12.0,48,0.00,,---,0.00,VWS V14.01,2013-05-31 18:13:00,
2013-05-31 13:14:00,75.6,54.0,29.50,SW,226,6.0,12.0,47,0.00,,---,0.00,VWS V14.01,2013-05-31 18:14:00,
2013-05-31 13:15:00,75.6,54.0,29.51,WSW,237,13.0,13.0,47,0.00,,---,0.00,VWS V14.01,2013-05-31 18:15:00,
2013-05-31 13:16:00,75.7,54.6,29.51,SW,221,4.0,10.0,48,0.00,,---,0.00,VWS V14.01,2013-05-31 18:16:00,
2013-05-31 13:17:00,75.7,53.5,29.51,SW,217,5.0,10.0,46,0.00,,---,0.00,VWS V14.01,2013-05-31 18:17:00,
2013-05-31 13:18:00,75.7,54.6,29.50,SW,234,4.0,8.0,48,0.00,,---,0.00,VWS V14.01,2013-05-31 18:18:00,
2013-05-31 13:19:00,75.7,54.1,29.50,SW,226,9.0,20.0,47,0.00,,---,0.00,VWS V14.01,2013-05-31 18:19:00,
2013-05-31 13:20:00,75.6,54.0,29.50,SW,217,6.0,9.0,47,0.00,,---,0.00,VWS V14.01,2013-05-31 18:20:00,
2013-05-31 13:21:00,76.0,54.9,29.51,West,262,2.0,12.0,48,0.00,,---,0.00,VWS V14.01,2013-05-31 18:21:00,
2013-05-31 13:22:00,76.0,54.9,29.51,WNW,290,6.0,13.0,48,0.00,,---,0.00,VWS V14.01,2013-05-31 18:22:00,
2013-05-31 13:23:00,76.1,54.4,29.51,SW,236,6.0,7.0,47,0.00,,---,0.00,VWS V14.01,2013-05-31 18:23:00,
2013-05-31 13:24:00,76.2,56.2,29.51,South,186,2.0,7.0,50,0.00,,---,0.00,VWS V14.01,2013-05-31 18:24:00,
2013-05-31 13:25:00,75.8,54.2,29.50,WSW,251,10.0,13.0,47,0.00,,---,0.00,VWS V14.01,2013-05-31 18:25:00,
2013-05-31 13:26:00,76.3,55.2,29.51,SSW,213,8.0,16.0,48,0.00,,---,0.00,VWS V14.01,2013-05-31 18:26:00,
2013-05-31 13:27:00,76.3,55.2,29.51,SSW,208,4.0,11.0,48,0.00,,---,0.00,VWS V14.01,2013-05-31 18:27:00,
2013-05-31 13:28:00,76.3,54.6,29.51,SW,236,11.0,14.0,47,0.00,,---,0.00,VWS V14.01,2013-05-31 18:28:00,
2013-05-31 13:29:00,76.3,54.0,29.51,West,263,7.0,13.0,46,0.00,,---,0.00,VWS V14.01,2013-05-31 18:29:00,
2013-05-31 13:30:00,76.2,56.2,29.50,South,175,4.0,6.0,50,0.00,,---,0.00,VWS V14.01,2013-05-31 18:30:00,
2013-05-31 13:31:00,76.3,55.2,29.50,WSW,250,11.0,11.0,48,0.00,,---,0.00,VWS V14.01,2013-05-31 18:31:00,
2013-05-31 13:32:00,76.4,55.3,29.51,SSW,212,10.0,11.0,48,0.00,,---,0.00,VWS V14.01,2013-05-31 18:32:00,
2013-05-31 13:33:00,76.4,55.8,29.51,WSW,237,6.0,11.0,49,0.00,,---,0.00,VWS V14.01,2013-05-31 18:33:00,
2013-05-31 13:34:00,76.4,54.1,29.50,WSW,246,5.0,9.0,46,0.00,,---,0.00,VWS V14.01,2013-05-31 18:34:00,
2013-05-31 13:35:00,76.3,54.0,29.51,WSW,255,10.0,10.0,46,0.00,,---,0.00,VWS V14.01,2013-05-31 18:35:00,
2013-05-31 13:36:00,76.5,55.9,29.50,SW,229,3.0,13.0,49,0.00,,---,0.00,VWS V14.01,2013-05-31 18:36:00,
2013-05-31 13:37:00,76.6,56.0,29.50,WSW,244,6.0,7.0,49,0.00,,---,0.00,VWS V14.01,2013-05-31 18:37:00,
2013-05-31 13:38:00,76.6,54.9,29.50,ESE,113,2.0,9.0,47,0.00,,---,0.00,VWS V14.01,2013-05-31 18:38:00,
2013-05-31 13:39:00,76.7,55.0,29.51,SE,136,8.0,10.0,47,0.00,,---,0.00,VWS V14.01,2013-05-31 18:39:00,
2013-05-31 13:40:00,76.5,57.6,29.50,WSW,249,5.0,9.0,52,0.00,,---,0.00,VWS V14.01,2013-05-31 18:40:00,
2013-05-31 13:41:00,76.7,55.0,29.50,West,260,2.0,14.0,47,0.00,,---,0.00,VWS V14.01,2013-05-31 18:41:00,
2013-05-31 13:42:00,76.7,56.1,29.50,SW,220,4.0,11.0,49,0.00,,---,0.00,VWS V14.01,2013-05-31 18:42:00,
2013-05-31 13:43:00,76.7,54.4,29.50,SW,236,4.0,10.0,46,0.00,,---,0.00,VWS V14.01,2013-05-31 18:43:00,
2013-05-31 13:44:00,76.8,55.7,29.50,SSE,163,6.0,19.0,48,0.00,,---,0.00,VWS V14.01,2013-05-31 18:44:00,
2013-05-31 13:45:00,76.7,54.4,29.50,SSW,194,10.0,11.0,46,0.00,,---,0.00,VWS V14.01,2013-05-31 18:45:00,
2013-05-31 13:46:00,76.9,54.6,29.50,SW,229,4.0,12.0,46,0.00,,---,0.00,VWS V14.01,2013-05-31 18:46:00,
2013-05-31 13:47:00,76.9,54.6,29.50,WSW,245,5.0,6.0,46,0.00,,---,0.00,VWS V14.01,2013-05-31 18:47:00,
2013-05-31 13:48:00,77.0,55.8,29.50,WSW,244,3.0,9.0,48,0.00,,---,0.00,VWS V14.01,2013-05-31 18:48:00,
2013-05-31 13:49:00,77.2,56.0,29.50,WSW,249,6.0,9.0,48,0.00,,---,0.00,VWS V14.01,2013-05-31 18:49:00,
2013-05-31 13:50:00,76.8,55.1,29.50,WSW,251,8.0,12.0,47,0.00,,---,0.00,VWS V14.01,2013-05-31 18:50:00,
2013-05-31 13:51:00,77.5,55.1,29.50,West,265,4.0,13.0,46,0.00,,---,0.00,VWS V14.01,2013-05-31 18:51:00,
2013-05-31 13:52:00,77.6,55.2,29.49,West,264,6.0,9.0,46,0.00,,---,0.00,VWS V14.01,2013-05-31 18:52:00,
2013-05-31 13:53:00,77.7,55.3,29.49,SW,217,2.0,9.0,46,0.00,,---,0.00,VWS V14.01,2013-05-31 18:53:00,
2013-05-31 13:54:00,77.3,56.1,29.50,WSW,247,9.0,9.0,48,0.00,,---,0.00,VWS V14.01,2013-05-31 18:54:00,
2013-05-31 13:55:00,77.9,56.1,29.49,WSW,238,6.0,14.0,47,0.00,,---,0.00,VWS V14.01,2013-05-31 18:55:00,
2013-05-31 13:56:00,77.9,54.3,29.49,SW,219,4.0,14.0,44,0.00,,---,0.00,VWS V14.01,2013-05-31 18:56:00,
2013-05-31 13:57:00,77.9,55.5,29.49,SSW,210,4.0,11.0,46,0.00,,---,0.00,VWS V14.01,2013-05-31 18:57:00,
2013-05-31 13:58:00,77.8,55.4,29.49,West,269,3.0,10.0,46,0.00,,---,0.00,VWS V14.01,2013-05-31 18:58:00,
2013-05-31 13:59:00,77.8,56.6,29.49,WSW,257,10.0,14.0,48,0.00,,---,0.00,VWS V14.01,2013-05-31 18:59:00,
2013-05-31 14:00:00,77.6,54.6,29.49,WNW,284,3.0,9.0,45,0.00,,---,0.00,VWS V14.01,2013-05-31 19:00:00,
2013-05-31 14:01:00,77.5,55.7,29.50,West,274,4.0,12.0,47,0.00,,---,0.00,VWS V14.01,2013-05-31 19:01:00,
2013-05-31 14:02:00,77.4,55.6,29.50,WSW,252,10.0,15.0,47,0.00,,---,0.00,VWS V14.01,2013-05-31 19:02:00,
2013-05-31 14:03:00,77.4,55.0,29.50,West,259,12.0,13.0,46,0.00,,---,0.00,VWS V14.01,2013-05-31 19:03:00,
2013-05-31 14:04:00,77.7,54.7,29.49,WSW,257,5.0,6.0,45,0.00,,---,0.00,VWS V14.01,2013-05-31 19:04:00,
2013-05-31 14:05:00,77.5,56.3,29.50,SW,236,11.0,11.0,48,0.00,,---,0.00,VWS V14.01,2013-05-31 19:05:00,
2013-05-31 14:06:00,77.5,56.3,29.49,SW,225,8.0,11.0,48,0.00,,---,0.00,VWS V14.01,2013-05-31 19:06:00,
2013-05-31 14:07:00,77.5,56.3,29.49,SSW,205,2.0,8.0,48,0.00,,---,0.00,VWS V14.01,2013-05-31 19:07:00,
2013-05-31 14:08:00,77.6,57.0,29.49,South,178,6.0,15.0,49,0.00,,---,0.00,VWS V14.01,2013-05-31 19:08:00,
2013-05-31 14:09:00,77.4,53.8,29.50,WSW,240,6.0,7.0,44,0.00,,---,0.00,VWS V14.01,2013-05-31 19:09:00,
2013-05-31 14:10:00,77.8,56.0,29.49,WSW,258,10.0,15.0,47,0.00,,---,0.00,VWS V14.01,2013-05-31 19:10:00,
2013-05-31 14:11:00,77.8,54.8,29.49,SW,225,5.0,14.0,45,0.00,,---,0.00,VWS V14.01,2013-05-31 19:11:00,
2013-05-31 14:12:00,77.8,54.8,29.49,SSW,211,10.0,14.0,45,0.00,,---,0.00,VWS V14.01,2013-05-31 19:12:00,
2013-05-31 14:13:00,77.7,54.7,29.49,WSW,250,13.0,13.0,45,0.00,,---,0.00,VWS V14.01,2013-05-31 19:13:00,
2013-05-31 14:14:00,77.7,55.9,29.49,West,271,3.0,11.0,47,0.00,,---,0.00,VWS V14.01,2013-05-31 19:14:00,
2013-05-31 14:15:00,77.6,54.6,29.49,SW,227,7.0,13.0,45,0.00,,---,0.00,VWS V14.01,2013-05-31 19:15:00,
2013-05-31 14:16:00,77.6,54.6,29.49,South,173,3.0,12.0,45,0.00,,---,0.00,VWS V14.01,2013-05-31 19:16:00,
2013-05-31 14:17:00,77.6,56.4,29.49,SW,219,4.0,9.0,48,0.00,,---,0.00,VWS V14.01,2013-05-31 19:17:00,
2013-05-31 14:18:00,77.7,57.0,29.49,WSW,244,3.0,5.0,49,0.00,,---,0.00,VWS V14.01,2013-05-31 19:18:00,
2013-05-31 14:19:00,77.6,54.6,29.49,WSW,254,6.0,13.0,45,0.00,,---,0.00,VWS V14.01,2013-05-31 19:19:00,
2013-05-31 14:20:00,77.9,56.7,29.49,SW,225,7.0,13.0,48,0.00,,---,0.00,VWS V14.01,2013-05-31 19:20:00,
2013-05-31 14:21:00,78.0,55.6,29.48,WSW,257,9.0,13.0,46,0.00,,---,0.00,VWS V14.01,2013-05-31 19:21:00,
2013-05-31 14:22:00,78.1,55.7,29.49,South,174,9.0,13.0,46,0.00,,---,0.00,VWS V14.01,2013-05-31 19:22:00,
2013-05-31 14:23:00,78.1,54.4,29.49,SSW,211,6.0,10.0,44,0.00,,---,0.00,VWS V14.01,2013-05-31 19:23:00,
2013-05-31 14:24:00,77.9,56.7,29.49,WSW,248,9.0,10.0,48,0.00,,---,0.00,VWS V14.01,2013-05-31 19:24:00,
2013-05-31 14:25:00,78.2,56.3,29.49,SW,224,10.0,10.0,47,0.00,,---,0.00,VWS V14.01,2013-05-31 19:25:00,
2013-05-31 14:26:00,78.2,53.9,29.49,SW,215,4.0,10.0,43,0.00,,---,0.00,VWS V14.01,2013-05-31 19:26:00,
2013-05-31 14:27:00,78.1,55.0,29.49,SW,218,5.0,18.0,45,0.00,,---,0.00,VWS V14.01,2013-05-31 19:27:00,
2013-05-31 14:28:00,78.0,54.3,29.49,West,266,10.0,10.0,44,0.00,,---,0.00,VWS V14.01,2013-05-31 19:28:00,
2013-05-31 14:29:00,78.2,55.8,29.49,West,265,4.0,7.0,46,0.00,,---,0.00,VWS V14.01,2013-05-31 19:29:00,
2013-05-31 14:30:00,77.7,54.1,29.49,WSW,246,6.0,11.0,44,0.00,,---,0.00,VWS V14.01,2013-05-31 19:30:00,
2013-05-31 14:31:00,77.6,54.6,29.49,WSW,257,3.0,7.0,45,0.00,,---,0.00,VWS V14.01,2013-05-31 19:31:00,
2013-05-31 14:32:00,77.3,54.3,29.49,SW,230,6.0,6.0,45,0.00,,---,0.00,VWS V14.01,2013-05-31 19:32:00,
2013-05-31 14:33:00,77.1,54.2,29.49,WSW,257,5.0,6.0,45,0.00,,---,0.00,VWS V14.01,2013-05-31 19:33:00,
2013-05-31 14:34:00,77.8,54.8,29.49,SW,214,5.0,11.0,45,0.00,,---,0.00,VWS V14.01,2013-05-31 19:34:00,
2013-05-31 14:35:00,76.7,55.0,29.50,SW,232,6.0,7.0,47,0.00,,---,0.00,VWS V14.01,2013-05-31 19:35:00,
2013-05-31 14:36:00,76.6,53.7,29.49,SW,236,9.0,9.0,45,0.00,,---,0.00,VWS V14.01,2013-05-31 19:36:00,
2013-05-31 14:37:00,76.7,54.4,29.49,SW,216,3.0,9.0,46,0.00,,---,0.00,VWS V14.01,2013-05-31 19:37:00,
2013-05-31 14:38:00,76.9,56.3,29.49,South,184,5.0,14.0,49,0.00,,---,0.00,VWS V14.01,2013-05-31 19:38:00,
2013-05-31 14:39:00,76.8,53.9,29.50,SW,214,1.0,3.0,45,0.00,,---,0.00,VWS V14.01,2013-05-31 19:39:00,
2013-05-31 14:40:00,77.2,55.4,29.49,SW,229,3.0,5.0,47,0.00,,---,0.00,VWS V14.01,2013-05-31 19:40:00,
2013-05-31 14:41:00,77.5,55.7,29.49,SSE,157,4.0,5.0,47,0.00,,---,0.00,VWS V14.01,2013-05-31 19:41:00,
2013-05-31 14:42:00,77.7,55.9,29.48,South,191,4.0,12.0,47,0.00,,---,0.00,VWS V14.01,2013-05-31 19:42:00,
2013-05-31 14:43:00,77.9,54.3,29.48,SW,214,3.0,15.0,44,0.00,,---,0.00,VWS V14.01,2013-05-31 19:43:00,
2013-05-31 14:44:00,77.1,55.9,29.49,WSW,255,3.0,5.0,48,0.00,,---,0.00,VWS V14.01,2013-05-31 19:44:00,
2013-05-31 14:45:00,78.1,55.7,29.49,WSW,256,4.0,11.0,46,0.00,,---,0.00,VWS V14.01,2013-05-31 19:45:00,
2013-05-31 14:46:00,78.2,54.5,29.48,WSW,252,8.0,9.0,44,0.00,,---,0.00,VWS V14.01,2013-05-31 19:46:00,
2013-05-31 14:47:00,78.3,54.6,29.48,WSW,250,7.0,11.0,44,0.00,,---,0.00,VWS V14.01,2013-05-31 19:47:00,
2013-05-31 14:48:00,78.4,54.1,29.48,SW,225,4.0,11.0,43,0.00,,---,0.00,VWS V14.01,2013-05-31 19:48:00,
2013-05-31 14:49:00,78.1,55.7,29.49,WNW,282,9.0,11.0,46,0.00,,---,0.00,VWS V14.01,2013-05-31 19:49:00,
2013-05-31 14:50:00,78.3,53.3,29.48,West,262,5.0,14.0,42,0.00,,---,0.00,VWS V14.01,2013-05-31 19:50:00,
2013-05-31 14:51:00,78.3,54.0,29.48,SW,219,4.0,12.0,43,0.00,,---,0.00,VWS V14.01,2013-05-31 19:51:00,
2013-05-31 14:52:00,78.3,52.7,29.48,SW,217,12.0,17.0,41,0.00,,---,0.00,VWS V14.01,2013-05-31 19:52:00,
2013-05-31 14:53:00,78.3,52.7,29.48,WSW,246,6.0,15.0,41,0.00,,---,0.00,VWS V14.01,2013-05-31 19:53:00,
2013-05-31 14:54:00,78.4,53.4,29.48,WSW,240,10.0,14.0,42,0.00,,---,0.00,VWS V14.01,2013-05-31 19:54:00,
2013-05-31 14:55:00,78.1,51.8,29.49,SW,234,3.0,14.0,40,0.00,,---,0.00,VWS V14.01,2013-05-31 19:55:00,
2013-05-31 14:56:00,78.1,52.5,29.49,SW,227,13.0,13.0,41,0.00,,---,0.00,VWS V14.01,2013-05-31 19:56:00,
2013-05-31 14:57:00,78.0,51.8,29.49,West,267,7.0,13.0,40,0.00,,---,0.00,VWS V14.01,2013-05-31 19:57:00,
2013-05-31 14:58:00,78.1,52.5,29.48,SW,215,5.0,7.0,41,0.00,,---,0.00,VWS V14.01,2013-05-31 19:58:00,
2013-05-31 14:59:00,78.2,51.9,29.49,West,265,4.0,14.0,40,0.00,,---,0.00,VWS V14.01,2013-05-31 19:59:00,
2013-05-31 15:00:00,78.2,53.2,29.48,WSW,257,6.0,10.0,42,0.00,,---,0.00,VWS V14.01,2013-05-31 20:00:00,
2013-05-31 15:01:00,78.4,54.1,29.49,West,262,10.0,18.0,43,0.00,,---,0.00,VWS V14.01,2013-05-31 20:01:00,
2013-05-31 15:02:00,78.6,54.9,29.49,NW,313,12.0,13.0,44,0.00,,---,0.00,VWS V14.01,2013-05-31 20:02:00,
2013-05-31 15:03:00,78.7,53.7,29.48,WSW,256,6.0,16.0,42,0.00,,---,0.00,VWS V14.01,2013-05-31 20:03:00,
2013-05-31 15:04:00,78.2,53.2,29.48,West,277,7.0,7.0,42,0.00,,---,0.00,VWS V14.01,2013-05-31 20:04:00,
2013-05-31 15:05:00,78.7,53.0,29.48,WSW,242,7.0,16.0,41,0.00,,---,0.00,VWS V14.01,2013-05-31 20:05:00,
2013-05-31 15:06:00,78.7,53.7,29.48,WSW,257,9.0,9.0,42,0.00,,---,0.00,VWS V14.01,2013-05-31 20:06:00,
2013-05-31 15:07:00,78.8,53.8,29.49,West,273,5.0,9.0,42,0.00,,---,0.00,VWS V14.01,2013-05-31 20:07:00,
2013-05-31 15:08:00,78.9,53.9,29.48,WSW,252,10.0,15.0,42,0.00,,---,0.00,VWS V14.01,2013-05-31 20:08:00,
2013-05-31 15:09:00,78.7,53.7,29.48,SW,234,4.0,11.0,42,0.00,,---,0.00,VWS V14.01,2013-05-31 20:09:00,
2013-05-31 15:10:00,78.9,53.2,29.48,West,263,6.0,11.0,41,0.00,,---,0.00,VWS V14.01,2013-05-31 20:10:00,
2013-05-31 15:11:00,78.7,51.7,29.49,SSW,209,16.0,16.0,39,0.00,,---,0.00,VWS V14.01,2013-05-31 20:11:00,
2013-05-31 15:12:00,78.7,51.7,29.49,SW,228,6.0,16.0,39,0.00,,---,0.00,VWS V14.01,2013-05-31 20:12:00,
2013-05-31 15:13:00,78.5,54.2,29.49,WSW,246,4.0,16.0,43,0.00,,---,0.00,VWS V14.01,2013-05-31 20:13:00,
2013-05-31 15:14:00,78.9,53.2,29.48,SW,234,6.0,10.0,41,0.00,,---,0.00,VWS V14.01,2013-05-31 20:14:00,
2013-05-31 15:15:00,78.4,53.4,29.50,South,177,2.0,7.0,42,0.00,,---,0.00,VWS V14.01,2013-05-31 20:15:00,
2013-05-31 15:16:00,78.4,54.1,29.49,West,263,4.0,12.0,43,0.00,,---,0.00,VWS V14.01,2013-05-31 20:16:00,
2013-05-31 15:17:00,78.5,52.2,29.49,WSW,245,9.0,12.0,40,0.00,,---,0.00,VWS V14.01,2013-05-31 20:17:00,
2013-05-31 15:18:00,78.6,52.3,29.49,WSW,248,5.0,10.0,40,0.00,,---,0.00,VWS V14.01,2013-05-31 20:18:00,
2013-05-31 15:19:00,78.4,52.1,29.50,SW,227,4.0,7.0,40,0.00,,---,0.00,VWS V14.01,2013-05-31 20:19:00,
2013-05-31 15:20:00,78.7,55.0,29.49,WSW,241,13.0,13.0,44,0.00,,---,0.00,VWS V14.01,2013-05-31 20:20:00,
2013-05-31 15:21:00,78.8,52.5,29.49,WSW,238,4.0,13.0,40,0.00,,---,0.00,VWS V14.01,2013-05-31 20:21:00,
2013-05-31 15:22:00,78.9,53.9,29.49,West,273,7.0,9.0,42,0.00,,---,0.00,VWS V14.01,2013-05-31 20:22:00,
2013-05-31 15:23:00,79.1,53.4,29.49,WSW,243,14.0,14.0,41,0.00,,---,0.00,VWS V14.01,2013-05-31 20:23:00,
2013-05-31 15:24:00,78.7,55.0,29.49,West,259,9.0,12.0,44,0.00,,---,0.00,VWS V14.01,2013-05-31 20:24:00,
2013-05-31 15:25:00,79.3,54.9,29.49,SW,217,7.0,10.0,43,0.00,,---,0.00,VWS V14.01,2013-05-31 20:25:00,
2013-05-31 15:26:00,79.4,54.3,29.49,SW,215,4.0,11.0,42,0.00,,---,0.00,VWS V14.01,2013-05-31 20:26:00,
2013-05-31 15:27:00,79.4,54.3,29.49,WSW,239,6.0,14.0,42,0.00,,---,0.00,VWS V14.01,2013-05-31 20:27:00,
2013-05-31 15:28:00,79.5,52.4,29.48,WSW,250,5.0,14.0,39,0.00,,---,0.00,VWS V14.01,2013-05-31 20:28:00,
2013-05-31 15:29:00,79.2,54.8,29.49,SW,234,5.0,5.0,43,0.00,,---,0.00,VWS V14.01,2013-05-31 20:29:00,
2013-05-31 15:30:00,79.5,55.1,29.49,WSW,258,12.0,12.0,43,0.00,,---,0.00,VWS V14.01,2013-05-31 20:30:00,
2013-05-31 15:31:00,79.6,53.2,29.49,WSW,246,6.0,12.0,40,0.00,,---,0.00,VWS V14.01,2013-05-31 20:31:00,
2013-05-31 15:32:00,79.7,52.6,29.48,SSE,156,3.0,9.0,39,0.00,,---,0.00,VWS V14.01,2013-05-31 20:32:00,
2013-05-31 15:33:00,79.7,52.6,29.48,WSW,243,5.0,11.0,39,0.00,,---,0.00,VWS V14.01,2013-05-31 20:33:00,
2013-05-31 15:34:00,79.5,53.8,29.49,SW,232,4.0,11.0,41,0.00,,---,0.00,VWS V14.01,2013-05-31 20:34:00,
2013-05-31 15:35:00,79.6,52.5,29.48,West,260,9.0,12.0,39,0.00,,---,0.00,VWS V14.01,2013-05-31 20:35:00,
2013-05-31 15:36:00,79.6,54.5,29.49,SW,231,9.0,14.0,42,0.00,,---,0.00,VWS V14.01,2013-05-31 20:36:00,
2013-05-31 15:37:00,79.5,52.4,29.49,WSW,255,6.0,14.0,39,0.00,,---,0.00,VWS V14.01,2013-05-31 20:37:00,
2013-05-31 15:38:00,79.4,53.7,29.49,WSW,258,7.0,16.0,41,0.00,,---,0.00,VWS V14.01,2013-05-31 20:38:00,
2013-05-31 15:39:00,79.7,52.6,29.48,West,275,9.0,11.0,39,0.00,,---,0.00,VWS V14.01,2013-05-31 20:39:00,
2013-05-31 15:40:00,79.2,52.1,29.48,SW,226,6.0,14.0,39,0.00,,---,0.00,VWS V14.01,2013-05-31 20:40:00,
2013-05-31 15:41:00,79.2,52.1,29.48,WSW,246,14.0,14.0,39,0.00,,---,0.00,VWS V14.01,2013-05-31 20:41:00,
2013-05-31 15:42:00,79.3,53.6,29.48,SE,137,3.0,14.0,41,0.00,,---,0.00,VWS V14.01,2013-05-31 20:42:00,
2013-05-31 15:43:00,79.3,55.5,29.48,WSW,249,3.0,12.0,44,0.00,,---,0.00,VWS V14.01,2013-05-31 20:43:00,
2013-05-31 15:44:00,79.3,52.9,29.48,WSW,240,5.0,12.0,40,0.00,,---,0.00,VWS V14.01,2013-05-31 20:44:00,
2013-05-31 15:45:00,79.5,53.8,29.49,SSE,156,6.0,14.0,41,0.00,,---,0.00,VWS V14.01,2013-05-31 20:45:00,
2013-05-31 15:46:00,79.4,52.3,29.48,West,261,6.0,9.0,39,0.00,,---,0.00,VWS V14.01,2013-05-31 20:46:00,
2013-05-31 15:47:00,79.4,55.0,29.48,WSW,257,4.0,12.0,43,0.00,,---,0.00,VWS V14.01,2013-05-31 20:47:00,
2013-05-31 15:48:00,79.4,53.7,29.48,WSW,254,5.0,11.0,41,0.00,,---,0.00,VWS V14.01,2013-05-31 20:48:00,
2013-05-31 15:49:00,79.5,54.4,29.49,SW,234,7.0,14.0,42,0.00,,---,0.00,VWS V14.01,2013-05-31 20:49:00,
2013-05-31 15:50:00,79.5,53.8,29.48,West,267,13.0,18.0,41,0.00,,---,0.00,VWS V14.01,2013-05-31 20:50:00,
2013-05-31 15:51:00,79.5,53.1,29.48,WSW,254,9.0,13.0,40,0.00,,---,0.00,VWS V14.01,2013-05-31 20:51:00,
2013-05-31 15:52:00,79.5,53.1,29.48,WSW,242,9.0,20.0,40,0.00,,---,0.00,VWS V14.01,2013-05-31 20:52:00,
2013-05-31 15:53:00,79.5,51.7,29.48,SW,227,6.0,14.0,38,0.00,,---,0.00,VWS V14.01,2013-05-31 20:53:00,
2013-05-31 15:54:00,79.5,53.8,29.48,WSW,243,4.0,6.0,41,0.00,,---,0.00,VWS V14.01,2013-05-31 20:54:00,
2013-05-31 15:55:00,79.5,51.7,29.48,WSW,238,11.0,11.0,38,0.00,,---,0.00,VWS V14.01,2013-05-31 20:55:00,
2013-05-31 15:56:00,79.6,51.8,29.48,WSW,248,5.0,15.0,38,0.00,,---,0.00,VWS V14.01,2013-05-31 20:56:00,
2013-05-31 15:57:00,79.5,52.4,29.48,North,350,9.0,12.0,39,0.00,,---,0.00,VWS V14.01,2013-05-31 20:57:00,
2013-05-31 15:58:00,79.6,53.2,29.48,WSW,254,3.0,10.0,40,0.00,,---,0.00,VWS V14.01,2013-05-31 20:58:00,
2013-05-31 15:59:00,79.5,51.7,29.48,WSW,250,3.0,6.0,38,0.00,,---,0.00,VWS V14.01,2013-05-31 20:59:00,
2013-05-31 16:00:00,79.5,51.7,29.48,SW,227,5.0,10.0,38,0.00,,---,0.00,VWS V14.01,2013-05-31 21:00:00,
2013-05-31 16:01:00,79.5,53.1,29.49,WSW,246,5.0,9.0,40,0.00,,---,0.00,VWS V14.01,2013-05-31 21:01:00,
2013-05-31 16:02:00,79.3,51.5,29.49,West,259,6.0,12.0,38,0.00,,---,0.00,VWS V14.01,2013-05-31 21:02:00,
2013-05-31 16:03:00,79.1,51.3,29.49,SW,227,5.0,10.0,38,0.00,,---,0.00,VWS V14.01,2013-05-31 21:03:00,
2013-05-31 16:04:00,79.6,51.8,29.48,West,260,7.0,10.0,38,0.00,,---,0.00,VWS V14.01,2013-05-31 21:04:00,
2013-05-31 16:05:00,78.7,51.0,29.49,SW,235,3.0,8.0,38,0.00,,---,0.00,VWS V14.01,2013-05-31 21:05:00,
2013-05-31 16:06:00,78.6,52.3,29.49,SW,222,14.0,14.0,40,0.00,,---,0.00,VWS V14.01,2013-05-31 21:06:00,
2013-05-31 16:07:00,78.4,52.1,29.49,SW,227,3.0,14.0,40,0.00,,---,0.00,VWS V14.01,2013-05-31 21:07:00,
2013-05-31 16:08:00,78.1,50.5,29.49,WNW,294,4.0,11.0,38,0.00,,---,0.00,VWS V14.01,2013-05-31 21:08:00,
2013-05-31 16:09:00,78.7,50.3,29.49,WNW,298,8.0,8.0,37,0.00,,---,0.00,VWS V14.01,2013-05-31 21:09:00,
2013-05-31 16:10:00,77.8,52.2,29.49,SW,218,4.0,12.0,41,0.00,,---,0.00,VWS V14.01,2013-05-31 21:10:00,
2013-05-31 16:11:00,77.8,51.6,29.49,SW,230,5.0,7.0,40,0.00,,---,0.00,VWS V14.01,2013-05-31 21:11:00,
2013-05-31 16:12:00,77.8,50.9,29.49,South,170,12.0,15.0,39,0.00,,---,0.00,VWS V14.01,2013-05-31 21:12:00,
2013-05-31 16:13:00,78.0,51.1,29.49,West,273,4.0,12.0,39,0.00,,---,0.00,VWS V14.01,2013-05-31 21:13:00,
2013-05-31 16:14:00,77.9,51.0,29.49,WSW,254,6.0,7.0,39,0.00,,---,0.00,VWS V14.01,2013-05-31 21:14:00,
2013-05-31 16:15:00,78.4,50.7,29.50,WSW,258,9.0,14.0,38,0.00,,---,0.00,VWS V14.01,2013-05-31 21:15:00,
2013-05-31 16:16:00,78.5,50.1,29.49,WSW,254,5.0,11.0,37,0.00,,---,0.00,VWS V14.01,2013-05-31 21:16:00,
2013-05-31 16:17:00,78.5,49.3,29.49,WSW,258,9.0,15.0,36,0.00,,---,0.00,VWS V14.01,2013-05-31 21:17:00,
2013-05-31 16:18:00,78.4,50.0,29.48,WNW,284,7.0,13.0,37,0.00,,---,0.00,VWS V14.01,2013-05-31 21:18:00,
2013-05-31 16:19:00,78.2,51.2,29.50,SW,234,13.0,13.0,39,0.00,,---,0.00,VWS V14.01,2013-05-31 21:19:00,
2013-05-31 16:20:00,78.1,51.2,29.50,WSW,252,5.0,14.0,39,0.00,,---,0.00,VWS V14.01,2013-05-31 21:20:00,
2013-05-31 16:21:00,78.0,51.1,29.50,WSW,254,5.0,10.0,39,0.00,,---,0.00,VWS V14.01,2013-05-31 21:21:00,
2013-05-31 16:22:00,78.0,52.4,29.50,WSW,255,5.0,14.0,41,0.00,,---,0.00,VWS V14.01,2013-05-31 21:22:00,
2013-05-31 16:23:00,78.2,51.9,29.49,WSW,250,6.0,17.0,40,0.00,,---,0.00,VWS V14.01,2013-05-31 21:23:00,
2013-05-31 16:24:00,78.2,50.5,29.50,South,186,9.0,9.0,38,0.00,,---,0.00,VWS V14.01,2013-05-31 21:24:00,
2013-05-31 16:25:00,78.4,50.7,29.50,West,259,3.0,14.0,38,0.00,,---,0.00,VWS V14.01,2013-05-31 21:25:00,
2013-05-31 16:26:00,78.4,50.7,29.50,SW,223,10.0,11.0,38,0.00,,---,0.00,VWS V14.01,2013-05-31 21:26:00,
2013-05-31 16:27:00,78.4,51.4,29.49,West,265,5.0,10.0,39,0.00,,---,0.00,VWS V14.01,2013-05-31 21:27:00,
2013-05-31 16:28:00,78.4,51.4,29.50,SW,236,11.0,18.0,39,0.00,,---,0.00,VWS V14.01,2013-05-31 21:28:00,
2013-05-31 16:29:00,78.3,50.6,29.50,WNW,299,13.0,14.0,38,0.00,,---,0.00,VWS V14.01,2013-05-31 21:29:00,
2013-05-31 16:30:00,78.3,49.9,29.50,WSW,257,14.0,16.0,37,0.00,,---,0.00,VWS V14.01,2013-05-31 21:30:00,
2013-05-31 16:31:00,78.3,51.3,29.50,SW,232,14.0,15.0,39,0.00,,---,0.00,VWS V14.01,2013-05-31 21:31:00,
2013-05-31 16:32:00,78.2,49.8,29.49,West,259,7.0,19.0,37,0.00,,---,0.00,VWS V14.01,2013-05-31 21:32:00,
2013-05-31 16:33:00,78.1,49.0,29.50,West,271,13.0,13.0,36,0.00,,---,0.00,VWS V14.01,2013-05-31 21:33:00,
2013-05-31 16:34:00,78.3,49.9,29.50,SW,235,11.0,16.0,37,0.00,,---,0.00,VWS V14.01,2013-05-31 21:34:00,
2013-05-31 16:35:00,78.0,48.9,29.50,WSW,252,4.0,7.0,36,0.00,,---,0.00,VWS V14.01,2013-05-31 21:35:00,
2013-05-31 16:36:00,78.1,49.7,29.50,SW,226,15.0,15.0,37,0.00,,---,0.00,VWS V14.01,2013-05-31 21:36:00,
2013-05-31 16:37:00,78.2,48.3,29.50,SSE,166,11.0,15.0,35,0.00,,---,0.00,VWS V14.01,2013-05-31 21:37:00,
2013-05-31 16:38:00,78.2,49.1,29.49,WSW,248,6.0,11.0,36,0.00,,---,0.00,VWS V14.01,2013-05-31 21:38:00,
2013-05-31 16:39:00,78.0,48.9,29.50,West,269,4.0,7.0,36,0.00,,---,0.00,VWS V14.01,2013-05-31 21:39:00,
2013-05-31 16:40:00,78.5,50.8,29.49,West,270,9.0,12.0,38,0.00,,---,0.00,VWS V14.01,2013-05-31 21:40:00,
2013-05-31 16:41:00,78.7,51.7,29.49,WSW,254,12.0,18.0,39,0.00,,---,0.00,VWS V14.01,2013-05-31 21:41:00,
2013-05-31 16:42:00,78.7,50.3,29.49,West,261,12.0,16.0,37,0.00,,---,0.00,VWS V14.01,2013-05-31 21:42:00,
2013-05-31 16:43:00,78.7,51.0,29.49,WSW,250,9.0,18.0,38,0.00,,---,0.00,VWS V14.01,2013-05-31 21:43:00,
2013-05-31 16:44:00,78.4,50.7,29.49,West,270,7.0,9.0,38,0.00,,---,0.00,VWS V14.01,2013-05-31 21:44:00,
2013-05-31 16:45:00,78.5,50.1,29.49,WSW,257,9.0,21.0,37,0.00,,---,0.00,VWS V14.01,2013-05-31 21:45:00,
2013-05-31 16:46:00,78.3,50.6,29.49,West,263,10.0,16.0,38,0.00,,---,0.00,VWS V14.01,2013-05-31 21:46:00,
2013-05-31 16:47:00,78.1,49.7,29.50,West,278,14.0,14.0,37,0.00,,---,0.00,VWS V14.01,2013-05-31 21:47:00,
2013-05-31 16:48:00,77.9,49.6,29.49,WSW,257,9.0,14.0,37,0.00,,---,0.00,VWS V14.01,2013-05-31 21:48:00,
2013-05-31 16:49:00,78.6,50.9,29.49,WNW,296,9.0,11.0,38,0.00,,---,0.00,VWS V14.01,2013-05-31 21:49:00,
2013-05-31 16:50:00,77.8,50.2,29.50,SW,220,11.0,11.0,38,0.00,,---,0.00,VWS V14.01,2013-05-31 21:50:00,
2013-05-31 16:51:00,77.9,51.0,29.49,WNW,286,7.0,22.0,39,0.00,,---,0.00,VWS V14.01,2013-05-31 21:51:00,
2013-05-31 16:52:00,78.0,49.7,29.50,WSW,247,10.0,15.0,37,0.00,,---,0.00,VWS V14.01,2013-05-31 21:52:00,
2013-05-31 16:53:00,78.1,49.7,29.49,WSW,240,9.0,13.0,37,0.00,,---,0.00,VWS V14.01,2013-05-31 21:53:00,
2013-05-31 16:54:00,77.8,50.2,29.50,WSW,253,5.0,6.0,38,0.00,,---,0.00,VWS V14.01,2013-05-31 21:54:00,
2013-05-31 16:55:00,78.0,50.4,29.50,WSW,238,9.0,19.0,38,0.00,,---,0.00,VWS V14.01,2013-05-31 21:55:00,
2013-05-31 16:56:00,78.0,51.8,29.49,WSW,239,6.0,13.0,40,0.00,,---,0.00,VWS V14.01,2013-05-31 21:56:00,
2013-05-31 16:57:00,78.0,52.4,29.49,West,264,9.0,16.0,41,0.00,,---,0.00,VWS V14.01,2013-05-31 21:57:00,
2013-05-31 16:58:00,78.0,51.1,29.49,West,274,16.0,16.0,39,0.00,,---,0.00,VWS V14.01,2013-05-31 21:58:00,
2013-05-31 16:59:00,78.1,49.7,29.50,West,280,10.0,10.0,37,0.00,,---,0.00,VWS V14.01,2013-05-31 21:59:00,
2013-05-31 17:00:00,77.9,49.6,29.49,West,269,6.0,11.0,37,0.00,,---,0.00,VWS V14.01,2013-05-31 22:00:00,
2013-05-31 17:01:00,77.9,50.3,29.50,West,259,4.0,10.0,38,0.00,,---,0.00,VWS V14.01,2013-05-31 22:01:00,
2013-05-31 17:02:00,77.8,49.5,29.50,West,268,6.0,12.0,37,0.00,,---,0.00,VWS V14.01,2013-05-31 22:02:00,
2013-05-31 17:03:00,77.7,49.4,29.50,West,259,5.0,11.0,37,0.00,,---,0.00,VWS V14.01,2013-05-31 22:03:00,
2013-05-31 17:04:00,77.9,49.6,29.49,WSW,251,11.0,11.0,37,0.00,,---,0.00,VWS V14.01,2013-05-31 22:04:00,
2013-05-31 17:05:00,77.5,50.6,29.50,SSW,207,15.0,15.0,39,0.00,,---,0.00,VWS V14.01,2013-05-31 22:05:00,
2013-05-31 17:06:00,77.6,49.3,29.50,WSW,248,10.0,15.0,37,0.00,,---,0.00,VWS V14.01,2013-05-31 22:06:00,
2013-05-31 17:07:00,77.6,50.7,29.50,SW,221,13.0,13.0,39,0.00,,---,0.00,VWS V14.01,2013-05-31 22:07:00,
2013-05-31 17:08:00,77.8,50.9,29.50,West,259,5.0,13.0,39,0.00,,---,0.00,VWS V14.01,2013-05-31 22:08:00,
2013-05-31 17:09:00,77.6,50.7,29.50,West,263,5.0,10.0,39,0.00,,---,0.00,VWS V14.01,2013-05-31 22:09:00,
2013-05-31 17:10:00,77.8,50.9,29.50,WSW,240,8.0,13.0,39,0.00,,---,0.00,VWS V14.01,2013-05-31 22:10:00,
2013-05-31 17:11:00,77.9,49.6,29.50,West,267,7.0,12.0,37,0.00,,---,0.00,VWS V14.01,2013-05-31 22:11:00,
2013-05-31 17:12:00,77.9,51.0,29.50,WSW,240,7.0,11.0,39,0.00,,---,0.00,VWS V14.01,2013-05-31 22:12:00,
2013-05-31 17:13:00,77.9,51.0,29.50,WSW,256,10.0,19.0,39,0.00,,---,0.00,VWS V14.01,2013-05-31 22:13:00,
2013-05-31 17:14:00,77.8,51.6,29.50,WSW,256,6.0,12.0,40,0.00,,---,0.00,VWS V14.01,2013-05-31 22:14:00,
2013-05-31 17:15:00,77.9,51.7,29.50,West,263,8.0,10.0,40,0.00,,---,0.00,VWS V14.01,2013-05-31 22:15:00,
2013-05-31 17:16:00,78.0,51.1,29.50,WSW,256,12.0,19.0,39,0.00,,---,0.00,VWS V14.01,2013-05-31 22:16:00,
2013-05-31 17:17:00,78.0,50.4,29.50,WSW,250,6.0,12.0,38,0.00,,---,0.00,VWS V14.01,2013-05-31 22:17:00,
2013-05-31 17:18:00,78.1,51.8,29.50,WSW,257,7.0,14.0,40,0.00,,---,0.00,VWS V14.01,2013-05-31 22:18:00,
2013-05-31 17:19:00,77.9,50.3,29.50,West,270,8.0,9.0,38,0.00,,---,0.00,VWS V14.01,2013-05-31 22:19:00,
2013-05-31 17:20:00,78.2,50.5,29.50,WSW,248,4.0,9.0,38,0.00,,---,0.00,VWS V14.01,2013-05-31 22:20:00,
2013-05-31 17:21:00,78.1,50.5,29.50,WSW,240,10.0,10.0,38,0.00,,---,0.00,VWS V14.01,2013-05-31 22:21:00,
2013-05-31 17:22:00,78.0,51.8,29.50,SSW,195,10.0,10.0,40,0.00,,---,0.00,VWS V14.01,2013-05-31 22:22:00,
2013-05-31 17:23:00,77.9,49.6,29.50,SW,227,3.0,10.0,37,0.00,,---,0.00,VWS V14.01,2013-05-31 22:23:00,
2013-05-31 17:24:00,78.1,51.8,29.50,WSW,239,8.0,9.0,40,0.00,,---,0.00,VWS V14.01,2013-05-31 22:24:00,
2013-05-31 17:25:00,77.4,49.8,29.50,WSW,255,4.0,10.0,38,0.00,,---,0.00,VWS V14.01,2013-05-31 22:25:00,
2013-05-31 17:26:00,77.2,48.9,29.50,SW,214,6.0,7.0,37,0.00,,---,0.00,VWS V14.01,2013-05-31 22:26:00,
2013-05-31 17:27:00,77.0,49.5,29.50,West,261,10.0,11.0,38,0.00,,---,0.00,VWS V14.01,2013-05-31 22:27:00,
2013-05-31 17:28:00,76.8,49.3,29.50,WSW,250,5.0,12.0,38,0.00,,---,0.00,VWS V14.01,2013-05-31 22:28:00,
2013-05-31 17:29:00,77.6,49.3,29.50,WSW,246,8.0,8.0,37,0.00,,---,0.00,VWS V14.01,2013-05-31 22:29:00,
2013-05-31 17:30:00,76.7,49.9,29.50,West,263,11.0,11.0,39,0.00,,---,0.00,VWS V14.01,2013-05-31 22:30:00,
2013-05-31 17:31:00,76.7,49.9,29.50,SW,234,7.0,12.0,39,0.00,,---,0.00,VWS V14.01,2013-05-31 22:31:00,
2013-05-31 17:32:00,76.7,49.2,29.50,West,259,7.0,12.0,38,0.00,,---,0.00,VWS V14.01,2013-05-31 22:32:00,
2013-05-31 17:33:00,76.8,48.6,29.50,WSW,246,7.0,11.0,37,0.00,,---,0.00,VWS V14.01,2013-05-31 22:33:00,
2013-05-31 17:34:00,76.7,49.9,29.50,West,261,4.0,7.0,39,0.00,,---,0.00,VWS V14.01,2013-05-31 22:34:00,
2013-05-31 17:35:00,77.0,49.5,29.49,WSW,254,12.0,15.0,38,0.00,,---,0.00,VWS V14.01,2013-05-31 22:35:00,
2013-05-31 17:36:00,77.1,50.3,29.49,WSW,252,7.0,14.0,39,0.00,,---,0.00,VWS V14.01,2013-05-31 22:36:00,
2013-05-31 17:37:00,77.2,49.7,29.50,SW,232,11.0,12.0,38,0.00,,---,0.00,VWS V14.01,2013-05-31 22:37:00,
2013-05-31 17:38:00,77.3,49.7,29.49,West,261,7.0,11.0,38,0.00,,---,0.00,VWS V14.01,2013-05-31 22:38:00,
2013-05-31 17:39:00,76.9,49.4,29.49,WSW,257,15.0,15.0,38,0.00,,---,0.00,VWS V14.01,2013-05-31 22:39:00,
2013-05-31 17:40:00,77.3,50.4,29.49,WSW,249,5.0,13.0,39,0.00,,---,0.00,VWS V14.01,2013-05-31 22:40:00,
2013-05-31 17:41:00,77.3,49.0,29.50,West,277,10.0,10.0,37,0.00,,---,0.00,VWS V14.01,2013-05-31 22:41:00,
2013-05-31 17:42:00,77.3,49.0,29.49,WSW,254,5.0,14.0,37,0.00,,---,0.00,VWS V14.01,2013-05-31 22:42:00,
2013-05-31 17:43:00,77.4,49.8,29.49,SW,222,11.0,15.0,38,0.00,,---,0.00,VWS V14.01,2013-05-31 22:43:00,
2013-05-31 17:44:00,77.4,50.5,29.49,SSW,213,10.0,13.0,39,0.00,,---,0.00,VWS V14.01,2013-05-31 22:44:00,
2013-05-31 17:45:00,77.4,49.8,29.49,SW,223,4.0,11.0,38,0.00,,---,0.00,VWS V14.01,2013-05-31 22:45:00,
2013-05-31 17:46:00,77.3,49.7,29.49,WSW,252,7.0,15.0,38,0.00,,---,0.00,VWS V14.01,2013-05-31 22:46:00,
2013-05-31 17:47:00,77.1,48.8,29.49,WSW,237,11.0,12.0,37,0.00,,---,0.00,VWS V14.01,2013-05-31 22:47:00,
2013-05-31 17:48:00,77.0,50.2,29.49,WSW,255,4.0,14.0,39,0.00,,---,0.00,VWS V14.01,2013-05-31 22:48:00,
2013-05-31 17:49:00,77.4,49.1,29.49,SSW,211,10.0,11.0,37,0.00,,---,0.00,VWS V14.01,2013-05-31 22:49:00,
2013-05-31 17:50:00,76.6,49.1,29.49,West,269,5.0,11.0,38,0.00,,---,0.00,VWS V14.01,2013-05-31 22:50:00,
2013-05-31 17:51:00,76.3,50.2,29.49,West,266,5.0,15.0,40,0.00,,---,0.00,VWS V14.01,2013-05-31 22:51:00,
2013-05-31 17:52:00,76.2,50.1,29.50,SW,217,8.0,13.0,40,0.00,,---,0.00,VWS V14.01,2013-05-31 22:52:00,
2013-05-31 17:53:00,76.0,50.0,29.50,WSW,257,3.0,12.0,40,0.00,,---,0.00,VWS V14.01,2013-05-31 22:53:00,
2013-05-31 17:54:00,76.7,49.9,29.49,SW,215,10.0,10.0,39,0.00,,---,0.00,VWS V14.01,2013-05-31 22:54:00,
2013-05-31 17:55:00,75.8,50.5,29.50,WSW,250,7.0,13.0,41,0.00,,---,0.00,VWS V14.01,2013-05-31 22:55:00,
2013-05-31 17:56:00,75.7,49.0,29.50,WSW,245,9.0,17.0,39,0.00,,---,0.00,VWS V14.01,2013-05-31 22:56:00,
2013-05-31 17:57:00,75.7,49.7,29.50,WSW,238,6.0,9.0,40,0.00,,---,0.00,VWS V14.01,2013-05-31 22:57:00,
2013-05-31 17:58:00,75.7,49.7,29.50,West,276,7.0,14.0,40,0.00,,---,0.00,VWS V14.01,2013-05-31 22:58:00,
2013-05-31 17:59:00,75.9,49.9,29.50,West,277,6.0,13.0,40,0.00,,---,0.00,VWS V14.01,2013-05-31 22:59:00,
2013-05-31 18:00:00,76.0,50.0,29.50,West,264,6.0,9.0,40,0.00,,---,0.00,VWS V14.01,2013-05-31 23:00:00,
2013-05-31 18:01:00,76.1,50.0,29.50,SW,236,4.0,9.0,40,0.00,,---,0.00,VWS V14.01,2013-05-31 23:01:00,
2013-05-31 18:02:00,76.1,50.7,29.47,West,259,7.0,9.0,41,0.00,,---,0.00,VWS V14.01,2013-05-31 23:02:00,
2013-05-31 18:03:00,76.1,50.0,29.47,WSW,248,5.0,7.0,40,0.00,,---,0.00,VWS V14.01,2013-05-31 23:03:00,
2013-05-31 18:04:00,75.9,51.2,29.50,West,277,5.0,8.0,42,0.00,,---,0.00,VWS V14.01,2013-05-31 23:04:00,
2013-05-31 18:05:00,75.9,49.9,29.47,WSW,242,9.0,9.0,40,0.00,,---,0.00,VWS V14.01,2013-05-31 23:05:00,
2013-05-31 18:06:00,75.8,49.8,29.47,WSW,247,7.0,11.0,40,0.00,,---,0.00,VWS V14.01,2013-05-31 23:06:00,
2013-05-31 18:07:00,75.6,49.6,29.47,WSW,255,7.0,11.0,40,0.00,,---,0.00,VWS V14.01,2013-05-31 23:07:00,
2013-05-31 18:08:00,75.5,50.2,29.47,WSW,249,5.0,12.0,41,0.00,,---,0.00,VWS V14.01,2013-05-31 23:08:00,
2013-05-31 18:09:00,76.0,50.6,29.47,WSW,251,6.0,8.0,41,0.00,,---,0.00,VWS V14.01,2013-05-31 23:09:00,
2013-05-31 18:10:00,75.2,49.2,29.48,WSW,238,14.0,14.0,40,0.00,,---,0.00,VWS V14.01,2013-05-31 23:10:00,
2013-05-31 18:11:00,75.1,49.2,29.48,WSW,248,5.0,14.0,40,0.00,,---,0.00,VWS V14.01,2013-05-31 23:11:00,
2013-05-31 18:12:00,74.9,49.0,29.48,West,262,4.0,11.0,40,0.00,,---,0.00,VWS V14.01,2013-05-31 23:12:00,
2013-05-31 18:13:00,74.8,48.9,29.48,WSW,247,11.0,11.0,40,0.00,,---,0.00,VWS V14.01,2013-05-31 23:13:00,
2013-05-31 18:14:00,75.3,49.3,29.48,WSW,256,7.0,7.0,40,0.00,,---,0.00,VWS V14.01,2013-05-31 23:14:00,
2013-05-31 18:15:00,74.6,48.7,29.48,WSW,244,4.0,11.0,40,0.00,,---,0.00,VWS V14.01,2013-05-31 23:15:00,
2013-05-31 18:16:00,74.5,49.3,29.48,West,260,6.0,9.0,41,0.00,,---,0.00,VWS V14.01,2013-05-31 23:16:00,
2013-05-31 18:17:00,74.5,48.6,29.48,WSW,244,5.0,16.0,40,0.00,,---,0.00,VWS V14.01,2013-05-31 23:17:00,
2013-05-31 18:18:00,74.4,48.5,29.48,WSW,250,5.0,9.0,40,0.00,,---,0.00,VWS V14.01,2013-05-31 23:18:00,
2013-05-31 18:19:00,74.7,49.5,29.48,WSW,248,6.0,11.0,41,0.00,,---,0.00,VWS V14.01,2013-05-31 23:19:00,
2013-05-31 18:20:00,74.6,49.4,29.48,WSW,258,4.0,12.0,41,0.00,,---,0.00,VWS V14.01,2013-05-31 23:20:00,
2013-05-31 18:21:00,74.8,49.5,29.48,WSW,255,5.0,10.0,41,0.00,,---,0.00,VWS V14.01,2013-05-31 23:21:00,
2013-05-31 18:22:00,74.9,50.3,29.48,WSW,254,6.0,10.0,42,0.00,,---,0.00,VWS V14.01,2013-05-31 23:22:00,
2013-05-31 18:23:00,75.0,51.6,29.48,SW,227,7.0,9.0,44,0.00,,---,0.00,VWS V14.01,2013-05-31 23:23:00,
2013-05-31 18:24:00,74.6,48.7,29.48,WSW,257,6.0,12.0,40,0.00,,---,0.00,VWS V14.01,2013-05-31 23:24:00,
2013-05-31 18:25:00,75.1,49.8,29.47,WSW,243,7.0,10.0,41,0.00,,---,0.00,VWS V14.01,2013-05-31 23:25:00,
2013-05-31 18:26:00,75.2,50.6,29.48,WSW,247,5.0,9.0,42,0.00,,---,0.00,VWS V14.01,2013-05-31 23:26:00,
2013-05-31 18:27:00,75.2,50.6,29.48,West,263,10.0,12.0,42,0.00,,---,0.00,VWS V14.01,2013-05-31 23:27:00,
2013-05-31 18:28:00,75.2,50.6,29.47,WSW,256,6.0,10.0,42,0.00,,---,0.00,VWS V14.01,2013-05-31 23:28:00,
2013-05-31 18:29:00,75.1,50.5,29.47,WSW,252,6.0,6.0,42,0.00,,---,0.00,VWS V14.01,2013-05-31 23:29:00,
2013-05-31 18:30:00,75.1,51.1,29.48,SW,236,5.0,14.0,43,0.00,,---,0.00,VWS V14.01,2013-05-31 23:30:00,
2013-05-31 18:31:00,75.0,51.0,29.48,West,261,4.0,7.0,43,0.00,,---,0.00,VWS V14.01,2013-05-31 23:31:00,
2013-05-31 18:32:00,75.0,49.7,29.48,WSW,250,6.0,14.0,41,0.00,,---,0.00,VWS V14.01,2013-05-31 23:32:00,
2013-05-31 18:33:00,74.9,50.3,29.47,West,259,7.0,10.0,42,0.00,,---,0.00,VWS V14.01,2013-05-31 23:33:00,
2013-05-31 18:34:00,75.1,50.5,29.48,WSW,250,6.0,6.0,42,0.00,,---,0.00,VWS V14.01,2013-05-31 23:34:00,
2013-05-31 18:35:00,75.0,49.1,29.48,SW,219,12.0,14.0,40,0.00,,---,0.00,VWS V14.01,2013-05-31 23:35:00,
2013-05-31 18:36:00,75.0,49.7,29.47,West,259,4.0,12.0,41,0.00,,---,0.00,VWS V14.01,2013-05-31 23:36:00,
2013-05-31 18:37:00,75.1,49.8,29.48,West,267,4.0,8.0,41,0.00,,---,0.00,VWS V14.01,2013-05-31 23:37:00,
2013-05-31 18:38:00,75.1,49.8,29.48,WSW,250,4.0,7.0,41,0.00,,---,0.00,VWS V14.01,2013-05-31 23:38:00,
2013-05-31 18:39:00,74.9,49.6,29.48,West,273,10.0,10.0,41,0.00,,---,0.00,VWS V14.01,2013-05-31 23:39:00,
2013-05-31 18:40:00,75.3,50.0,29.48,WSW,257,5.0,10.0,41,0.00,,---,0.00,VWS V14.01,2013-05-31 23:40:00,
2013-05-31 18:41:00,75.4,50.7,29.48,SW,225,6.0,12.0,42,0.00,,---,0.00,VWS V14.01,2013-05-31 23:41:00,
2013-05-31 18:42:00,75.5,51.5,29.48,WSW,254,7.0,14.0,43,0.00,,---,0.00,VWS V14.01,2013-05-31 23:42:00,
2013-05-31 18:43:00,75.5,51.5,29.47,NNW,329,6.0,10.0,43,0.00,,---,0.00,VWS V14.01,2013-05-31 23:43:00,
2013-05-31 18:44:00,75.2,49.9,29.48,WSW,255,5.0,10.0,41,0.00,,---,0.00,VWS V14.01,2013-05-31 23:44:00,
2013-05-31 18:45:00,75.4,50.7,29.47,SW,217,3.0,8.0,42,0.00,,---,0.00,VWS V14.01,2013-05-31 23:45:00,
2013-05-31 18:46:00,75.4,51.4,29.48,WSW,253,3.0,7.0,43,0.00,,---,0.00,VWS V14.01,2013-05-31 23:46:00,
2013-05-31 18:47:00,75.3,50.7,29.48,WSW,247,4.0,5.0,42,0.00,,---,0.00,VWS V14.01,2013-05-31 23:47:00,
2013-05-31 18:48:00,75.3,51.3,29.48,WSW,246,5.0,9.0,43,0.00,,---,0.00,VWS V14.01,2013-05-31 23:48:00,
2013-05-31 18:49:00,75.4,50.7,29.47,WSW,258,2.0,5.0,42,0.00,,---,0.00,VWS V14.01,2013-05-31 23:49:00,
2013-05-31 18:50:00,75.2,51.2,29.48,WSW,257,5.0,7.0,43,0.00,,---,0.00,VWS V14.01,2013-05-31 23:50:00,
2013-05-31 18:51:00,75.1,50.5,29.48,WSW,254,7.0,7.0,42,0.00,,---,0.00,VWS V14.01,2013-05-31 23:51:00,
2013-05-31 18:52:00,75.1,50.5,29.48,WSW,257,5.0,12.0,42,0.00,,---,0.00,VWS V14.01,2013-05-31 23:52:00,
2013-05-31 18:53:00,75.0,51.6,29.48,West,267,0.0,6.0,44,0.00,,---,0.00,VWS V14.01,2013-05-31 23:53:00,
2013-05-31 18:54:00,75.3,51.9,29.48,WSW,254,7.0,7.0,44,0.00,,---,0.00,VWS V14.01,2013-05-31 23:54:00,
2013-05-31 18:55:00,74.8,52.1,29.48,WSW,255,9.0,9.0,45,0.00,,---,0.00,VWS V14.01,2013-05-31 23:55:00,
2013-05-31 18:56:00,74.7,51.4,29.48,West,271,2.0,9.0,44,0.00,,---,0.00,VWS V14.01,2013-05-31 23:56:00,
2013-05-31 18:57:00,74.7,50.7,29.48,West,271,9.0,9.0,43,0.00,,---,0.00,VWS V14.01,2013-05-31 23:57:00,
2013-05-31 18:58:00,74.6,51.3,29.48,WSW,243,10.0,10.0,44,0.00,,---,0.00,VWS V14.01,2013-05-31 23:58:00,
2013-05-31 18:59:00,74.9,50.9,29.48,West,263,4.0,7.0,43,0.00,,---,0.00,VWS V14.01,2013-05-31 23:59:00,
2013-05-31 19:00:00,74.5,50.6,29.48,SSW,207,5.0,13.0,43,0.00,,---,0.00,VWS V14.01,2013-06-01 00:00:00,
2013-05-31 19:01:00,74.5,51.2,29.48,WSW,247,6.0,9.0,44,0.00,,---,0.00,VWS V14.01,2013-06-01 00:01:00,
2013-05-31 19:02:00,74.5,50.6,29.46,WSW,251,4.0,6.0,43,0.00,,---,0.00,VWS V14.01,2013-06-01 00:02:00,
2013-05-31 19:03:00,74.4,51.1,29.46,WNW,292,7.0,11.0,44,0.00,,---,0.00,VWS V14.01,2013-06-01 00:03:00,
2013-05-31 19:04:00,74.5,50.6,29.48,West,279,13.0,13.0,43,0.00,,---,0.00,VWS V14.01,2013-06-01 00:04:00,
2013-05-31 19:05:00,74.3,49.8,29.47,West,280,6.0,17.0,42,0.00,,---,0.00,VWS V14.01,2013-06-01 00:05:00,
2013-05-31 19:06:00,74.3,49.8,29.47,WNW,291,5.0,14.0,42,0.00,,---,0.00,VWS V14.01,2013-06-01 00:06:00,
2013-05-31 19:07:00,74.2,49.7,29.47,West,259,4.0,12.0,42,0.00,,---,0.00,VWS V14.01,2013-06-01 00:07:00,
2013-05-31 19:08:00,74.2,50.3,29.47,NW,325,3.0,9.0,43,0.00,,---,0.00,VWS V14.01,2013-06-01 00:08:00,
2013-05-31 19:09:00,74.3,51.0,29.47,WSW,257,11.0,17.0,44,0.00,,---,0.00,VWS V14.01,2013-06-01 00:09:00,
2013-05-31 19:10:00,74.1,50.8,29.47,WNW,299,9.0,9.0,44,0.00,,---,0.00,VWS V14.01,2013-06-01 00:10:00,
2013-05-31 19:11:00,73.9,50.0,29.47,WSW,244,9.0,12.0,43,0.00,,---,0.00,VWS V14.01,2013-06-01 00:11:00,
2013-05-31 19:12:00,73.8,49.9,29.47,WSW,241,6.0,9.0,43,0.00,,---,0.00,VWS V14.01,2013-06-01 00:12:00,
2013-05-31 19:13:00,73.7,50.5,29.47,West,281,8.0,10.0,44,0.00,,---,0.00,VWS V14.01,2013-06-01 00:13:00,
2013-05-31 19:14:00,74.1,50.8,29.47,WSW,247,8.0,8.0,44,0.00,,---,0.00,VWS V14.01,2013-06-01 00:14:00,
2013-05-31 19:15:00,73.6,50.4,29.47,WSW,257,7.0,7.0,44,0.00,,---,0.00,VWS V14.01,2013-06-01 00:15:00,
2013-05-31 19:16:00,73.5,49.7,29.47,WSW,257,4.0,11.0,43,0.00,,---,0.00,VWS V14.01,2013-06-01 00:16:00,
2013-05-31 19:17:00,73.5,49.7,29.47,West,264,5.0,12.0,43,0.00,,---,0.00,VWS V14.01,2013-06-01 00:17:00,
2013-05-31 19:18:00,73.4,49.6,29.47,NNW,336,6.0,7.0,43,0.00,,---,0.00,VWS V14.01,2013-06-01 00:18:00,
2013-05-31 19:19:00,73.7,49.8,29.47,NW,316,7.0,7.0,43,0.00,,---,0.00,VWS V14.01,2013-06-01 00:19:00,
2013-05-31 19:20:00,73.4,50.2,29.47,WSW,251,6.0,10.0,44,0.00,,---,0.00,VWS V14.01,2013-06-01 00:20:00,
2013-05-31 19:21:00,73.4,50.2,29.47,WSW,250,5.0,8.0,44,0.00,,---,0.00,VWS V14.01,2013-06-01 00:21:00,
2013-05-31 19:22:00,73.3,50.7,29.48,SSW,208,10.0,10.0,45,0.00,,---,0.00,VWS V14.01,2013-06-01 00:22:00,
2013-05-31 19:23:00,73.3,50.1,29.48,WNW,296,3.0,10.0,44,0.00,,---,0.00,VWS V14.01,2013-06-01 00:23:00,
2013-05-31 19:24:00,73.4,50.2,29.47,NNW,332,7.0,7.0,44,0.00,,---,0.00,VWS V14.01,2013-06-01 00:24:00,
2013-05-31 19:25:00,73.2,50.6,29.48,WSW,247,3.0,11.0,45,0.00,,---,0.00,VWS V14.01,2013-06-01 00:25:00,
2013-05-31 19:26:00,73.2,50.6,29.48,WNW,290,7.0,7.0,45,0.00,,---,0.00,VWS V14.01,2013-06-01 00:26:00,
2013-05-31 19:27:00,73.1,50.5,29.48,West,269,6.0,10.0,45,0.00,,---,0.00,VWS V14.01,2013-06-01 00:27:00,
2013-05-31 19:28:00,73.1,50.5,29.48,WSW,248,4.0,10.0,45,0.00,,---,0.00,VWS V14.01,2013-06-01 00:28:00,
2013-05-31 19:29:00,73.3,50.1,29.48,West,267,5.0,6.0,44,0.00,,---,0.00,VWS V14.01,2013-06-01 00:29:00,
2013-05-31 19:30:00,72.9,51.5,29.48,WSW,258,5.0,5.0,47,0.00,,---,0.00,VWS V14.01,2013-06-01 00:30:00,
2013-05-31 19:31:00,72.8,50.8,29.48,WSW,247,6.0,11.0,46,0.00,,---,0.00,VWS V14.01,2013-06-01 00:31:00,
2013-05-31 19:32:00,72.7,51.3,29.48,West,271,9.0,10.0,47,0.00,,---,0.00,VWS V14.01,2013-06-01 00:32:00,
2013-05-31 19:33:00,72.6,51.2,29.48,SW,236,5.0,9.0,47,0.00,,---,0.00,VWS V14.01,2013-06-01 00:33:00,
2013-05-31 19:34:00,73.0,50.4,29.48,WNW,288,2.0,3.0,45,0.00,,---,0.00,VWS V14.01,2013-06-01 00:34:00,
2013-05-31 19:35:00,72.3,50.4,29.49,WSW,246,7.0,11.0,46,0.00,,---,0.00,VWS V14.01,2013-06-01 00:35:00,
2013-05-31 19:36:00,72.2,50.9,29.49,WSW,248,6.0,13.0,47,0.00,,---,0.00,VWS V14.01,2013-06-01 00:36:00,
2013-05-31 19:37:00,72.1,49.6,29.49,WSW,252,6.0,6.0,45,0.00,,---,0.00,VWS V14.01,2013-06-01 00:37:00,
2013-05-31 19:38:00,72.1,50.2,29.49,West,275,3.0,10.0,46,0.00,,---,0.00,VWS V14.01,2013-06-01 00:38:00,
2013-05-31 19:39:00,72.4,51.0,29.49,West,275,4.0,6.0,47,0.00,,---,0.00,VWS V14.01,2013-06-01 00:39:00,
2013-05-31 19:40:00,71.9,50.0,29.49,SW,225,3.0,7.0,46,0.00,,---,0.00,VWS V14.01,2013-06-01 00:40:00,
2013-05-31 19:41:00,71.8,49.9,29.49,SSW,201,5.0,17.0,46,0.00,,---,0.00,VWS V14.01,2013-06-01 00:41:00,
2013-05-31 19:42:00,71.7,49.8,29.49,West,270,13.0,15.0,46,0.00,,---,0.00,VWS V14.01,2013-06-01 00:42:00,
2013-05-31 19:43:00,71.6,49.8,29.49,WSW,248,4.0,13.0,46,0.00,,---,0.00,VWS V14.01,2013-06-01 00:43:00,
2013-05-31 19:44:00,71.9,50.6,29.49,WSW,241,6.0,6.0,47,0.00,,---,0.00,VWS V14.01,2013-06-01 00:44:00,
2013-05-31 19:45:00,71.6,50.3,29.49,WSW,244,6.0,9.0,47,0.00,,---,0.00,VWS V14.01,2013-06-01 00:45:00,
2013-05-31 19:46:00,71.5,49.7,29.49,WSW,248,10.0,10.0,46,0.00,,---,0.00,VWS V14.01,2013-06-01 00:46:00,
2013-05-31 19:47:00,71.5,49.7,29.49,West,269,9.0,13.0,46,0.00,,---,0.00,VWS V14.01,2013-06-01 00:47:00,
2013-05-31 19:48:00,71.5,49.7,29.49,West,273,11.0,11.0,46,0.00,,---,0.00,VWS V14.01,2013-06-01 00:48:00,
2013-05-31 19:49:00,71.6,49.8,29.49,WSW,253,8.0,9.0,46,0.00,,---,0.00,VWS V14.01,2013-06-01 00:49:00,
2013-05-31 19:50:00,71.3,49.5,29.49,WSW,257,10.0,10.0,46,0.00,,---,0.00,VWS V14.01,2013-06-01 00:50:00,
2013-05-31 19:51:00,71.3,50.0,29.49,West,270,8.0,11.0,47,0.00,,---,0.00,VWS V14.01,2013-06-01 00:51:00,
2013-05-31 19:52:00,71.2,50.0,29.49,WNW,300,7.0,11.0,47,0.00,,---,0.00,VWS V14.01,2013-06-01 00:52:00,
2013-05-31 19:53:00,71.1,49.3,29.49,WSW,252,5.0,7.0,46,0.00,,---,0.00,VWS V14.01,2013-06-01 00:53:00,
2013-05-31 19:54:00,71.3,49.5,29.49,WSW,258,5.0,6.0,46,0.00,,---,0.00,VWS V14.01,2013-06-01 00:54:00,
2013-05-31 19:55:00,71.0,49.2,29.49,WSW,248,5.0,6.0,46,0.00,,---,0.00,VWS V14.01,2013-06-01 00:55:00,
2013-05-31 19:56:00,71.0,49.8,29.49,West,264,3.0,11.0,47,0.00,,---,0.00,VWS V14.01,2013-06-01 00:56:00,
2013-05-31 19:57:00,71.0,49.8,29.49,SW,223,4.0,10.0,47,0.00,,---,0.00,VWS V14.01,2013-06-01 00:57:00,
2013-05-31 19:58:00,70.9,50.2,29.49,WNW,296,4.0,7.0,48,0.00,,---,0.00,VWS V14.01,2013-06-01 00:58:00,
2013-05-31 19:59:00,71.1,49.9,29.49,WSW,253,6.0,6.0,47,0.00,,---,0.00,VWS V14.01,2013-06-01 00:59:00,
2013-05-31 20:00:00,70.8,49.6,29.49,WSW,247,6.0,10.0,47,0.00,,---,0.00,VWS V14.01,2013-06-01 01:00:00,
2013-05-31 20:01:00,70.7,50.1,29.48,SW,221,5.0,9.0,48,0.00,,---,0.00,VWS V14.01,2013-06-01 01:01:00,
2013-05-31 20:02:00,70.6,49.4,29.48,WSW,254,4.0,8.0,47,0.00,,---,0.00,VWS V14.01,2013-06-01 01:02:00,
2013-05-31 20:03:00,70.6,49.4,29.48,West,269,0.0,6.0,47,0.00,,---,0.00,VWS V14.01,2013-06-01 01:03:00,
2013-05-31 20:04:00,70.9,50.2,29.49,WSW,242,8.0,10.0,48,0.00,,---,0.00,VWS V14.01,2013-06-01 01:04:00,
2013-05-31 20:05:00,70.5,49.9,29.48,WSW,257,4.0,10.0,48,0.00,,---,0.00,VWS V14.01,2013-06-01 01:05:00,
2013-05-31 20:06:00,70.4,49.8,29.48,West,261,4.0,7.0,48,0.00,,---,0.00,VWS V14.01,2013-06-01 01:06:00,
2013-05-31 20:07:00,70.4,49.8,29.49,West,277,2.0,12.0,48,0.00,,---,0.00,VWS V14.01,2013-06-01 01:07:00,
2013-05-31 20:08:00,70.3,49.7,29.49,West,267,13.0,13.0,48,0.00,,---,0.00,VWS V14.01,2013-06-01 01:08:00,
2013-05-31 20:09:00,70.5,49.9,29.48,WSW,245,4.0,4.0,48,0.00,,---,0.00,VWS V14.01,2013-06-01 01:09:00,
2013-05-31 20:10:00,70.3,49.7,29.49,SW,232,5.0,10.0,48,0.00,,---,0.00,VWS V14.01,2013-06-01 01:10:00,
2013-05-31 20:11:00,70.3,49.7,29.49,West,265,2.0,12.0,48,0.00,,---,0.00,VWS V14.01,2013-06-01 01:11:00,
2013-05-31 20:12:00,70.2,49.6,29.49,WNW,282,3.0,9.0,48,0.00,,---,0.00,VWS V14.01,2013-06-01 01:12:00,
2013-05-31 20:13:00,70.2,49.6,29.49,WSW,254,2.0,9.0,48,0.00,,---,0.00,VWS V14.01,2013-06-01 01:13:00,
2013-05-31 20:14:00,70.3,49.1,29.49,West,278,3.0,4.0,47,0.00,,---,0.00,VWS V14.01,2013-06-01 01:14:00,
2013-05-31 20:15:00,70.1,49.5,29.49,West,280,2.0,11.0,48,0.00,,---,0.00,VWS V14.01,2013-06-01 01:15:00,
2013-05-31 20:16:00,70.1,49.5,29.49,West,261,4.0,5.0,48,0.00,,---,0.00,VWS V14.01,2013-06-01 01:16:00,
2013-05-31 20:17:00,70.0,49.4,29.49,WSW,254,3.0,6.0,48,0.00,,---,0.00,VWS V14.01,2013-06-01 01:17:00,
2013-05-31 20:18:00,70.0,50.0,29.50,West,263,7.0,13.0,49,0.00,,---,0.00,VWS V14.01,2013-06-01 01:18:00,
2013-05-31 20:19:00,70.2,49.6,29.49,West,273,11.0,11.0,48,0.00,,---,0.00,VWS V14.01,2013-06-01 01:19:00,
2013-05-31 20:20:00,69.8,49.8,29.49,WSW,254,3.0,10.0,49,0.00,,---,0.00,VWS V14.01,2013-06-01 01:20:00,
2013-05-31 20:21:00,69.6,49.1,29.49,WSW,246,6.0,9.0,48,0.00,,---,0.00,VWS V14.01,2013-06-01 01:21:00,
2013-05-31 20:22:00,69.5,49.0,29.49,West,273,3.0,7.0,48,0.00,,---,0.00,VWS V14.01,2013-06-01 01:22:00,
2013-05-31 20:23:00,69.4,49.4,29.50,WSW,255,3.0,10.0,49,0.00,,---,0.00,VWS V14.01,2013-06-01 01:23:00,
2013-05-31 20:24:00,69.9,49.9,29.49,SSW,209,9.0,9.0,49,0.00,,---,0.00,VWS V14.01,2013-06-01 01:24:00,
2013-05-31 20:25:00,69.2,49.2,29.49,WNW,302,7.0,8.0,49,0.00,,---,0.00,VWS V14.01,2013-06-01 01:25:00,
2013-05-31 20:26:00,69.1,49.2,29.50,WSW,241,4.0,7.0,49,0.00,,---,0.00,VWS V14.01,2013-06-01 01:26:00,
2013-05-31 20:27:00,68.9,49.5,29.50,WSW,248,3.0,5.0,50,0.00,,---,0.00,VWS V14.01,2013-06-01 01:27:00,
2013-05-31 20:28:00,68.8,49.4,29.50,WNW,282,7.0,8.0,50,0.00,,---,0.00,VWS V14.01,2013-06-01 01:28:00,
2013-05-31 20:29:00,69.3,49.3,29.50,NNE,12,5.0,7.0,49,0.00,,---,0.00,VWS V14.01,2013-06-01 01:29:00,
2013-05-31 20:30:00,68.6,49.2,29.50,West,271,4.0,9.0,50,0.00,,---,0.00,VWS V14.01,2013-06-01 01:30:00,
2013-05-31 20:31:00,68.5,49.2,29.50,West,267,4.0,7.0,50,0.00,,---,0.00,VWS V14.01,2013-06-01 01:31:00,
2013-05-31 20:32:00,68.3,49.0,29.50,West,267,3.0,6.0,50,0.00,,---,0.00,VWS V14.01,2013-06-01 01:32:00,
2013-05-31 20:33:00,68.2,48.9,29.50,WSW,246,3.0,9.0,50,0.00,,---,0.00,VWS V14.01,2013-06-01 01:33:00,
2013-05-31 20:34:00,68.7,49.3,29.50,WSW,253,4.0,10.0,50,0.00,,---,0.00,VWS V14.01,2013-06-01 01:34:00,
2013-05-31 20:35:00,68.0,49.2,29.50,WSW,252,5.0,7.0,51,0.00,,---,0.00,VWS V14.01,2013-06-01 01:35:00,
2013-05-31 20:36:00,67.9,49.1,29.50,WNW,288,5.0,7.0,51,0.00,,---,0.00,VWS V14.01,2013-06-01 01:36:00,
2013-05-31 20:37:00,67.8,49.0,29.50,WSW,254,6.0,9.0,51,0.00,,---,0.00,VWS V14.01,2013-06-01 01:37:00,
2013-05-31 20:38:00,67.7,48.9,29.50,WSW,252,6.0,6.0,51,0.00,,---,0.00,VWS V14.01,2013-06-01 01:38:00,
2013-05-31 20:39:00,68.1,49.3,29.50,WSW,249,4.0,9.0,51,0.00,,---,0.00,VWS V14.01,2013-06-01 01:39:00,
2013-05-31 20:40:00,67.4,48.7,29.50,WSW,245,4.0,10.0,51,0.00,,---,0.00,VWS V14.01,2013-06-01 01:40:00,
2013-05-31 20:41:00,67.4,48.7,29.51,WSW,258,5.0,7.0,51,0.00,,---,0.00,VWS V14.01,2013-06-01 01:41:00,
2013-05-31 20:42:00,67.3,48.6,29.51,NNE,31,4.0,6.0,51,0.00,,---,0.00,VWS V14.01,2013-06-01 01:42:00,
2013-05-31 20:43:00,67.2,48.5,29.51,WSW,245,3.0,6.0,51,0.00,,---,0.00,VWS V14.01,2013-06-01 01:43:00,
2013-05-31 20:44:00,67.6,49.4,29.50,West,276,6.0,9.0,52,0.00,,---,0.00,VWS V14.01,2013-06-01 01:44:00,
2013-05-31 20:45:00,67.2,48.5,29.51,WSW,248,5.0,7.0,51,0.00,,---,0.00,VWS V14.01,2013-06-01 01:45:00,
2013-05-31 20:46:00,67.1,48.9,29.51,WSW,257,3.0,6.0,52,0.00,,---,0.00,VWS V14.01,2013-06-01 01:46:00,
2013-05-31 20:47:00,67.1,48.4,29.51,WSW,254,5.0,10.0,51,0.00,,---,0.00,VWS V14.01,2013-06-01 01:47:00,
2013-05-31 20:48:00,67.0,49.3,29.51,WSW,257,5.0,5.0,53,0.00,,---,0.00,VWS V14.01,2013-06-01 01:48:00,
2013-05-31 20:49:00,67.2,48.5,29.51,West,267,5.0,5.0,51,0.00,,---,0.00,VWS V14.01,2013-06-01 01:49:00,
2013-05-31 20:50:00,66.8,48.6,29.51,West,271,5.0,5.0,52,0.00,,---,0.00,VWS V14.01,2013-06-01 01:50:00,
2013-05-31 20:51:00,66.7,49.0,29.51,West,277,3.0,5.0,53,0.00,,---,0.00,VWS V14.01,2013-06-01 01:51:00,
2013-05-31 20:52:00,66.6,49.0,29.51,West,262,5.0,6.0,53,0.00,,---,0.00,VWS V14.01,2013-06-01 01:52:00,
2013-05-31 20:53:00,66.5,48.9,29.51,WSW,245,4.0,5.0,53,0.00,,---,0.00,VWS V14.01,2013-06-01 01:53:00,
2013-05-31 20:54:00,66.9,48.7,29.51,West,266,3.0,5.0,52,0.00,,---,0.00,VWS V14.01,2013-06-01 01:54:00,
2013-05-31 20:55:00,66.3,48.7,29.52,WSW,245,3.0,4.0,53,0.00,,---,0.00,VWS V14.01,2013-06-01 01:55:00,
2013-05-31 20:56:00,66.2,48.6,29.52,WSW,245,3.0,4.0,53,0.00,,---,0.00,VWS V14.01,2013-06-01 01:56:00,
2013-05-31 20:57:00,66.1,48.5,29.52,SW,235,3.0,6.0,53,0.00,,---,0.00,VWS V14.01,2013-06-01 01:57:00,
2013-05-31 20:58:00,66.0,48.9,29.52,WSW,252,3.0,6.0,54,0.00,,---,0.00,VWS V14.01,2013-06-01 01:58:00,
2013-05-31 20:59:00,66.4,48.3,29.51,WSW,245,4.0,4.0,52,0.00,,---,0.00,VWS V14.01,2013-06-01 01:59:00,
2013-05-31 21:00:00,65.8,48.7,29.52,WSW,257,3.0,4.0,54,0.00,,---,0.00,VWS V14.01,2013-06-01 02:00:00,
2013-05-31 21:01:00,65.7,48.6,29.50,West,271,3.0,4.0,54,0.00,,---,0.00,VWS V14.01,2013-06-01 02:01:00,
2013-05-31 21:02:00,65.6,48.5,29.51,WSW,246,2.0,4.0,54,0.00,,---,0.00,VWS V14.01,2013-06-01 02:02:00,
2013-05-31 21:03:00,65.6,48.5,29.51,WSW,246,3.0,3.0,54,0.00,,---,0.00,VWS V14.01,2013-06-01 02:03:00,
2013-05-31 21:04:00,65.9,48.8,29.52,WSW,242,4.0,5.0,54,0.00,,---,0.00,VWS V14.01,2013-06-01 02:04:00,
2013-05-31 21:05:00,65.4,48.3,29.51,SW,232,3.0,4.0,54,0.00,,---,0.00,VWS V14.01,2013-06-01 02:05:00,
2013-05-31 21:06:00,65.3,48.2,29.51,WSW,243,2.0,3.0,54,0.00,,---,0.00,VWS V14.01,2013-06-01 02:06:00,
2013-05-31 21:07:00,65.2,48.6,29.51,West,263,3.0,3.0,55,0.00,,---,0.00,VWS V14.01,2013-06-01 02:07:00,
2013-05-31 21:08:00,65.1,48.5,29.51,WNW,290,0.0,5.0,55,0.00,,---,0.00,VWS V14.01,2013-06-01 02:08:00,
2013-05-31 21:09:00,65.4,48.3,29.51,SSW,210,3.0,4.0,54,0.00,,---,0.00,VWS V14.01,2013-06-01 02:09:00,
2013-05-31 21:10:00,64.9,48.8,29.50,WSW,239,2.0,3.0,56,0.00,,---,0.00,VWS V14.01,2013-06-01 02:10:00,
2013-05-31 21:11:00,64.8,48.8,29.50,WSW,248,3.0,4.0,56,0.00,,---,0.00,VWS V14.01,2013-06-01 02:11:00,
2013-05-31 21:12:00,64.7,48.7,29.50,West,259,2.0,4.0,56,0.00,,---,0.00,VWS V14.01,2013-06-01 02:12:00,
2013-05-31 21:13:00,64.7,48.7,29.51,WSW,257,2.0,4.0,56,0.00,,---,0.00,VWS V14.01,2013-06-01 02:13:00,
2013-05-31 21:14:00,65.0,48.9,29.51,West,259,1.0,5.0,56,0.00,,---,0.00,VWS V14.01,2013-06-01 02:14:00,
2013-05-31 21:15:00,64.5,48.5,29.51,WSW,251,4.0,10.0,56,0.00,,---,0.00,VWS V14.01,2013-06-01 02:15:00,
2013-05-31 21:16:00,64.4,48.8,29.51,WSW,246,4.0,6.0,57,0.00,,---,0.00,VWS V14.01,2013-06-01 02:16:00,
2013-05-31 21:17:00,64.3,48.3,29.52,WSW,252,2.0,9.0,56,0.00,,---,0.00,VWS V14.01,2013-06-01 02:17:00,
2013-05-31 21:18:00,64.3,48.3,29.52,WSW,258,2.0,6.0,56,0.00,,---,0.00,VWS V14.01,2013-06-01 02:18:00,
2013-05-31 21:19:00,64.6,48.6,29.51,SW,218,5.0,10.0,56,0.00,,---,0.00,VWS V14.01,2013-06-01 02:19:00,
2013-05-31 21:20:00,64.3,47.8,29.51,NW,311,3.0,11.0,55,0.00,,---,0.00,VWS V14.01,2013-06-01 02:20:00,
2013-05-31 21:21:00,64.3,47.8,29.51,West,275,4.0,9.0,55,0.00,,---,0.00,VWS V14.01,2013-06-01 02:21:00,
2013-05-31 21:22:00,64.4,47.9,29.51,NW,313,6.0,6.0,55,0.00,,---,0.00,VWS V14.01,2013-06-01 02:22:00,
2013-05-31 21:23:00,64.5,48.0,29.51,WSW,253,4.0,10.0,55,0.00,,---,0.00,VWS V14.01,2013-06-01 02:23:00,
2013-05-31 21:24:00,64.3,48.3,29.52,SW,236,9.0,9.0,56,0.00,,---,0.00,VWS V14.01,2013-06-01 02:24:00,
2013-05-31 21:25:00,64.6,48.1,29.50,WSW,245,5.0,6.0,55,0.00,,---,0.00,VWS V14.01,2013-06-01 02:25:00,
2013-05-31 21:26:00,64.6,48.1,29.50,West,261,5.0,6.0,55,0.00,,---,0.00,VWS V14.01,2013-06-01 02:26:00,
2013-05-31 21:27:00,64.6,48.1,29.50,WSW,258,3.0,5.0,55,0.00,,---,0.00,VWS V14.01,2013-06-01 02:27:00,
2013-05-31 21:28:00,64.6,48.1,29.50,West,260,6.0,6.0,55,0.00,,---,0.00,VWS V14.01,2013-06-01 02:28:00,
2013-05-31 21:29:00,64.5,48.0,29.50,WSW,255,5.0,6.0,55,0.00,,---,0.00,VWS V14.01,2013-06-01 02:29:00,
2013-05-31 21:30:00,64.5,48.0,29.50,WSW,250,3.0,9.0,55,0.00,,---,0.00,VWS V14.01,2013-06-01 02:30:00,
2013-05-31 21:31:00,64.5,48.0,29.50,WSW,243,9.0,9.0,55,0.00,,---,0.00,VWS V14.01,2013-06-01 02:31:00,
2013-05-31 21:32:00,64.4,47.9,29.50,NW,319,7.0,9.0,55,0.00,,---,0.00,VWS V14.01,2013-06-01 02:32:00,
2013-05-31 21:33:00,64.4,47.9,29.51,WSW,250,9.0,10.0,55,0.00,,---,0.00,VWS V14.01,2013-06-01 02:33:00,
2013-05-31 21:34:00,64.6,48.1,29.50,WSW,254,7.0,9.0,55,0.00,,---,0.00,VWS V14.01,2013-06-01 02:34:00,
2013-05-31 21:35:00,64.2,47.7,29.51,SW,232,10.0,10.0,55,0.00,,---,0.00,VWS V14.01,2013-06-01 02:35:00,
2013-05-31 21:36:00,64.2,47.2,29.51,WSW,250,9.0,16.0,54,0.00,,---,0.00,VWS V14.01,2013-06-01 02:36:00,
2013-05-31 21:37:00,64.2,47.2,29.51,WSW,254,4.0,11.0,54,0.00,,---,0.00,VWS V14.01,2013-06-01 02:37:00,
2013-05-31 21:38:00,64.2,47.2,29.51,WSW,252,10.0,12.0,54,0.00,,---,0.00,VWS V14.01,2013-06-01 02:38:00,
2013-05-31 21:39:00,64.3,47.8,29.51,West,265,11.0,11.0,55,0.00,,---,0.00,VWS V14.01,2013-06-01 02:39:00,
2013-05-31 21:40:00,64.2,47.2,29.51,WSW,256,5.0,13.0,54,0.00,,---,0.00,VWS V14.01,2013-06-01 02:40:00,
2013-05-31 21:41:00,64.1,47.1,29.52,WSW,255,9.0,12.0,54,0.00,,---,0.00,VWS V14.01,2013-06-01 02:41:00,
2013-05-31 21:42:00,64.1,47.1,29.51,West,261,9.0,11.0,54,0.00,,---,0.00,VWS V14.01,2013-06-01 02:42:00,
2013-05-31 21:43:00,64.1,47.1,29.52,WSW,251,5.0,10.0,54,0.00,,---,0.00,VWS V14.01,2013-06-01 02:43:00,
2013-05-31 21:44:00,64.1,47.1,29.51,West,275,7.0,11.0,54,0.00,,---,0.00,VWS V14.01,2013-06-01 02:44:00,
2013-05-31 21:45:00,64.0,47.0,29.52,West,263,4.0,8.0,54,0.00,,---,0.00,VWS V14.01,2013-06-01 02:45:00,
2013-05-31 21:46:00,63.9,47.0,29.52,WSW,253,7.0,12.0,54,0.00,,---,0.00,VWS V14.01,2013-06-01 02:46:00,
2013-05-31 21:47:00,63.8,46.8,29.52,SW,225,6.0,11.0,54,0.00,,---,0.00,VWS V14.01,2013-06-01 02:47:00,
2013-05-31 21:48:00,63.8,46.8,29.52,WNW,284,9.0,13.0,54,0.00,,---,0.00,VWS V14.01,2013-06-01 02:48:00,
2013-05-31 21:49:00,64.0,47.0,29.52,WNW,295,5.0,9.0,54,0.00,,---,0.00,VWS V14.01,2013-06-01 02:49:00,
2013-05-31 21:50:00,63.6,47.2,29.52,WSW,256,4.0,7.0,55,0.00,,---,0.00,VWS V14.01,2013-06-01 02:50:00,
2013-05-31 21:51:00,63.4,47.5,29.52,WSW,252,5.0,6.0,56,0.00,,---,0.00,VWS V14.01,2013-06-01 02:51:00,
2013-05-31 21:52:00,63.3,46.9,29.52,WSW,243,7.0,16.0,55,0.00,,---,0.00,VWS V14.01,2013-06-01 02:52:00,
2013-05-31 21:53:00,63.2,46.8,29.52,NNW,331,6.0,7.0,55,0.00,,---,0.00,VWS V14.01,2013-06-01 02:53:00,
2013-05-31 21:54:00,63.7,47.2,29.52,South,190,3.0,9.0,55,0.00,,---,0.00,VWS V14.01,2013-06-01 02:54:00,
2013-05-31 21:55:00,63.1,47.2,29.52,SW,232,5.0,6.0,56,0.00,,---,0.00,VWS V14.01,2013-06-01 02:55:00,
2013-05-31 21:56:00,63.0,47.1,29.52,West,264,6.0,6.0,56,0.00,,---,0.00,VWS V14.01,2013-06-01 02:56:00,
2013-05-31 21:57:00,62.9,47.0,29.52,West,274,4.0,6.0,56,0.00,,---,0.00,VWS V14.01,2013-06-01 02:57:00,
2013-05-31 21:58:00,62.8,46.9,29.52,West,259,5.0,10.0,56,0.00,,---,0.00,VWS V14.01,2013-06-01 02:58:00,
2013-05-31 21:59:00,63.2,47.3,29.52,WSW,249,6.0,6.0,56,0.00,,---,0.00,VWS V14.01,2013-06-01 02:59:00,
2013-05-31 22:00:00,62.7,46.8,29.53,West,263,10.0,12.0,56,0.00,,---,0.00,VWS V14.01,2013-06-01 03:00:00,
2013-05-31 22:01:00,62.7,47.3,29.52,WSW,252,3.0,10.0,57,0.00,,---,0.00,VWS V14.01,2013-06-01 03:01:00,
2013-05-31 22:02:00,62.7,47.3,29.52,WSW,254,6.0,11.0,57,0.00,,---,0.00,VWS V14.01,2013-06-01 03:02:00,
2013-05-31 22:03:00,62.6,47.2,29.52,West,262,5.0,12.0,57,0.00,,---,0.00,VWS V14.01,2013-06-01 03:03:00,
2013-05-31 22:04:00,62.8,46.9,29.53,West,269,6.0,11.0,56,0.00,,---,0.00,VWS V14.01,2013-06-01 03:04:00,
2013-05-31 22:05:00,62.6,47.2,29.52,West,260,4.0,6.0,57,0.00,,---,0.00,VWS V14.01,2013-06-01 03:05:00,
2013-05-31 22:06:00,62.6,47.2,29.53,West,266,4.0,7.0,57,0.00,,---,0.00,VWS V14.01,2013-06-01 03:06:00,
2013-05-31 22:07:00,62.5,47.1,29.53,SW,231,6.0,7.0,57,0.00,,---,0.00,VWS V14.01,2013-06-01 03:07:00,
2013-05-31 22:08:00,62.6,46.7,29.52,SW,230,5.0,9.0,56,0.00,,---,0.00,VWS V14.01,2013-06-01 03:08:00,
2013-05-31 22:09:00,62.6,47.2,29.52,WSW,258,5.0,11.0,57,0.00,,---,0.00,VWS V14.01,2013-06-01 03:09:00,
2013-05-31 22:10:00,62.5,47.1,29.53,WSW,244,5.0,7.0,57,0.00,,---,0.00,VWS V14.01,2013-06-01 03:10:00,
2013-05-31 22:11:00,62.5,47.1,29.53,WSW,243,8.0,10.0,57,0.00,,---,0.00,VWS V14.01,2013-06-01 03:11:00,
2013-05-31 22:12:00,62.4,47.0,29.53,West,263,5.0,10.0,57,0.00,,---,0.00,VWS V14.01,2013-06-01 03:12:00,
2013-05-31 22:13:00,62.4,47.0,29.53,West,265,6.0,7.0,57,0.00,,---,0.00,VWS V14.01,2013-06-01 03:13:00,
2013-05-31 22:14:00,62.5,47.1,29.53,West,267,10.0,10.0,57,0.00,,---,0.00,VWS V14.01,2013-06-01 03:14:00,
2013-05-31 22:15:00,62.3,46.9,29.53,West,265,5.0,7.0,57,0.00,,---,0.00,VWS V14.01,2013-06-01 03:15:00,
2013-05-31 22:16:00,62.3,46.9,29.53,WSW,256,6.0,11.0,57,0.00,,---,0.00,VWS V14.01,2013-06-01 03:16:00,
2013-05-31 22:17:00,62.3,46.9,29.53,West,261,9.0,9.0,57,0.00,,---,0.00,VWS V14.01,2013-06-01 03:17:00,
2013-05-31 22:18:00,62.2,46.8,29.53,WSW,247,5.0,12.0,57,0.00,,---,0.00,VWS V14.01,2013-06-01 03:18:00,
2013-05-31 22:19:00,62.3,46.9,29.53,West,265,6.0,9.0,57,0.00,,---,0.00,VWS V14.01,2013-06-01 03:19:00,
2013-05-31 22:20:00,62.1,47.2,29.53,WSW,253,5.0,10.0,58,0.00,,---,0.00,VWS V14.01,2013-06-01 03:20:00,
2013-05-31 22:21:00,62.1,47.2,29.53,WSW,254,6.0,12.0,58,0.00,,---,0.00,VWS V14.01,2013-06-01 03:21:00,
2013-05-31 22:22:00,62.0,47.1,29.53,WSW,242,10.0,14.0,58,0.00,,---,0.00,VWS V14.01,2013-06-01 03:22:00,
2013-05-31 22:23:00,62.0,47.1,29.53,West,261,6.0,10.0,58,0.00,,---,0.00,VWS V14.01,2013-06-01 03:23:00,
2013-05-31 22:24:00,62.2,47.3,29.53,WSW,254,7.0,8.0,58,0.00,,---,0.00,VWS V14.01,2013-06-01 03:24:00,
2013-05-31 22:25:00,61.8,46.9,29.53,WSW,248,5.0,9.0,58,0.00,,---,0.00,VWS V14.01,2013-06-01 03:25:00,
2013-05-31 22:26:00,61.8,46.9,29.53,WSW,250,4.0,10.0,58,0.00,,---,0.00,VWS V14.01,2013-06-01 03:26:00,
2013-05-31 22:27:00,61.8,46.9,29.53,WSW,250,3.0,10.0,58,0.00,,---,0.00,VWS V14.01,2013-06-01 03:27:00,
2013-05-31 22:28:00,61.7,46.8,29.53,SW,231,7.0,7.0,58,0.00,,---,0.00,VWS V14.01,2013-06-01 03:28:00,
2013-05-31 22:29:00,61.9,47.0,29.53,SW,220,6.0,7.0,58,0.00,,---,0.00,VWS V14.01,2013-06-01 03:29:00,
2013-05-31 22:30:00,61.6,47.2,29.54,WSW,238,3.0,7.0,59,0.00,,---,0.00,VWS V14.01,2013-06-01 03:30:00,
2013-05-31 22:31:00,61.6,46.7,29.54,West,264,5.0,6.0,58,0.00,,---,0.00,VWS V14.01,2013-06-01 03:31:00,
2013-05-31 22:32:00,61.5,46.6,29.54,WSW,246,6.0,6.0,58,0.00,,---,0.00,VWS V14.01,2013-06-01 03:32:00,
2013-05-31 22:33:00,61.4,47.0,29.54,SW,216,6.0,11.0,59,0.00,,---,0.00,VWS V14.01,2013-06-01 03:33:00,
2013-05-31 22:34:00,61.7,46.8,29.53,WSW,247,3.0,7.0,58,0.00,,---,0.00,VWS V14.01,2013-06-01 03:34:00,
2013-05-31 22:35:00,61.3,46.9,29.55,West,260,2.0,7.0,59,0.00,,---,0.00,VWS V14.01,2013-06-01 03:35:00,
2013-05-31 22:36:00,61.2,46.8,29.55,SW,233,4.0,12.0,59,0.00,,---,0.00,VWS V14.01,2013-06-01 03:36:00,
2013-05-31 22:37:00,61.2,46.8,29.55,West,259,4.0,6.0,59,0.00,,---,0.00,VWS V14.01,2013-06-01 03:37:00,
2013-05-31 22:38:00,61.1,46.7,29.55,WSW,252,6.0,9.0,59,0.00,,---,0.00,VWS V14.01,2013-06-01 03:38:00,
2013-05-31 22:39:00,61.4,47.0,29.55,WSW,257,4.0,9.0,59,0.00,,---,0.00,VWS V14.01,2013-06-01 03:39:00,
2013-05-31 22:40:00,61.0,47.0,29.55,WNW,291,4.0,11.0,60,0.00,,---,0.00,VWS V14.01,2013-06-01 03:40:00,
2013-05-31 22:41:00,60.9,46.9,29.56,WSW,248,8.0,8.0,60,0.00,,---,0.00,VWS V14.01,2013-06-01 03:41:00,
2013-05-31 22:42:00,60.9,46.9,29.55,West,267,6.0,8.0,60,0.00,,---,0.00,VWS V14.01,2013-06-01 03:42:00,
2013-05-31 22:43:00,60.8,47.3,29.55,SW,230,8.0,8.0,61,0.00,,---,0.00,VWS V14.01,2013-06-01 03:43:00,
2013-05-31 22:44:00,61.1,47.1,29.55,WSW,254,5.0,7.0,60,0.00,,---,0.00,VWS V14.01,2013-06-01 03:44:00,
2013-05-31 22:45:00,60.6,47.1,29.55,WSW,254,6.0,10.0,61,0.00,,---,0.00,VWS V14.01,2013-06-01 03:45:00,
2013-05-31 22:46:00,60.5,47.4,29.55,SE,135,10.0,14.0,62,0.00,,---,0.00,VWS V14.01,2013-06-01 03:46:00,
2013-05-31 22:47:00,60.4,47.3,29.55,West,266,5.0,11.0,62,0.00,,---,0.00,VWS V14.01,2013-06-01 03:47:00,
2013-05-31 22:48:00,60.4,47.3,29.55,WSW,247,9.0,9.0,62,0.00,,---,0.00,VWS V14.01,2013-06-01 03:48:00,
2013-05-31 22:49:00,60.7,47.2,29.55,WSW,258,4.0,12.0,61,0.00,,---,0.00,VWS V14.01,2013-06-01 03:49:00,
2013-05-31 22:50:00,60.2,47.2,29.55,WSW,244,5.0,11.0,62,0.00,,---,0.00,VWS V14.01,2013-06-01 03:50:00,
2013-05-31 22:51:00,60.2,47.6,29.55,WSW,258,4.0,5.0,63,0.00,,---,0.00,VWS V14.01,2013-06-01 03:51:00,
2013-05-31 22:52:00,60.2,47.6,29.55,West,266,7.0,9.0,63,0.00,,---,0.00,VWS V14.01,2013-06-01 03:52:00,
2013-05-31 22:53:00,60.1,47.5,29.55,West,265,4.0,8.0,63,0.00,,---,0.00,VWS V14.01,2013-06-01 03:53:00,
2013-05-31 22:54:00,60.3,47.2,29.55,WSW,252,6.0,9.0,62,0.00,,---,0.00,VWS V14.01,2013-06-01 03:54:00,
2013-05-31 22:55:00,60.0,47.4,29.56,West,266,11.0,11.0,63,0.00,,---,0.00,VWS V14.01,2013-06-01 03:55:00,
2013-05-31 22:56:00,59.9,47.7,29.56,West,281,4.0,11.0,64,0.00,,---,0.00,VWS V14.01,2013-06-01 03:56:00,
2013-05-31 22:57:00,59.9,47.7,29.55,WSW,244,3.0,6.0,64,0.00,,---,0.00,VWS V14.01,2013-06-01 03:57:00,
2013-05-31 22:58:00,59.8,47.6,29.56,WSW,244,3.0,6.0,64,0.00,,---,0.00,VWS V14.01,2013-06-01 03:58:00,
2013-05-31 22:59:00,60.0,47.4,29.55,West,263,6.0,6.0,63,0.00,,---,0.00,VWS V14.01,2013-06-01 03:59:00,
2013-05-31 23:00:00,59.6,47.4,29.56,WSW,246,6.0,9.0,64,0.00,,---,0.00,VWS V14.01,2013-06-01 04:00:00,
2013-05-31 23:01:00,59.9,47.7,29.56,WSW,242,4.0,11.0,64,0.00,,---,0.00,VWS V14.01,2013-06-01 04:01:00,
2013-05-31 23:02:00,59.6,47.8,29.56,WSW,242,4.0,6.0,65,0.00,,---,0.00,VWS V14.01,2013-06-01 04:02:00,
2013-05-31 23:03:00,59.5,47.7,29.56,WSW,248,2.0,10.0,65,0.00,,---,0.00,VWS V14.01,2013-06-01 04:03:00,
2013-05-31 23:04:00,59.4,47.7,29.56,WSW,246,4.0,9.0,65,0.00,,---,0.00,VWS V14.01,2013-06-01 04:04:00,
2013-05-31 23:05:00,59.4,47.7,29.57,WSW,253,2.0,10.0,65,0.00,,---,0.00,VWS V14.01,2013-06-01 04:05:00,
2013-05-31 23:06:00,59.6,47.4,29.56,WSW,240,4.0,7.0,64,0.00,,---,0.00,VWS V14.01,2013-06-01 04:06:00,
2013-05-31 23:07:00,59.2,47.5,29.57,WSW,252,5.0,5.0,65,0.00,,---,0.00,VWS V14.01,2013-06-01 04:07:00,
2013-05-31 23:08:00,59.1,47.4,29.58,West,281,6.0,6.0,65,0.00,,---,0.00,VWS V14.01,2013-06-01 04:08:00,
2013-05-31 23:09:00,59.1,47.8,29.58,SW,221,3.0,6.0,66,0.00,,---,0.00,VWS V14.01,2013-06-01 04:09:00,
2013-05-31 23:10:00,59.0,47.7,29.57,SW,225,3.0,4.0,66,0.00,,---,0.00,VWS V14.01,2013-06-01 04:10:00,
2013-05-31 23:11:00,59.3,47.5,29.57,WSW,247,3.0,10.0,65,0.00,,---,0.00,VWS V14.01,2013-06-01 04:11:00,
2013-05-31 23:12:00,59.0,47.7,29.57,WSW,250,3.0,5.0,66,0.00,,---,0.00,VWS V14.01,2013-06-01 04:12:00,
2013-05-31 23:13:00,59.0,47.7,29.57,WSW,250,3.0,4.0,66,0.00,,---,0.00,VWS V14.01,2013-06-01 04:13:00,
2013-05-31 23:14:00,59.0,47.7,29.58,West,275,3.0,3.0,66,0.00,,---,0.00,VWS V14.01,2013-06-01 04:14:00,
2013-05-31 23:15:00,59.0,48.1,29.57,WSW,250,5.0,5.0,67,0.00,,---,0.00,VWS V14.01,2013-06-01 04:15:00,
2013-05-31 23:16:00,59.0,47.7,29.57,WSW,239,4.0,5.0,66,0.00,,---,0.00,VWS V14.01,2013-06-01 04:16:00,
2013-05-31 23:17:00,58.9,48.0,29.57,WSW,254,2.0,4.0,67,0.00,,---,0.00,VWS V14.01,2013-06-01 04:17:00,
2013-05-31 23:18:00,58.8,47.9,29.57,WSW,242,2.0,4.0,67,0.00,,---,0.00,VWS V14.01,2013-06-01 04:18:00,
2013-05-31 23:19:00,58.7,47.8,29.57,WSW,257,4.0,5.0,67,0.00,,---,0.00,VWS V14.01,2013-06-01 04:19:00,
2013-05-31 23:20:00,58.7,47.8,29.57,WSW,250,2.0,4.0,67,0.00,,---,0.00,VWS V14.01,2013-06-01 04:20:00,
2013-05-31 23:21:00,59.0,48.1,29.57,WSW,254,3.0,7.0,67,0.00,,---,0.00,VWS V14.01,2013-06-01 04:21:00,
2013-05-31 23:22:00,58.7,47.8,29.57,WSW,248,3.0,4.0,67,0.00,,---,0.00,VWS V14.01,2013-06-01 04:22:00,
2013-05-31 23:23:00,58.6,47.7,29.57,West,271,4.0,10.0,67,0.00,,---,0.00,VWS V14.01,2013-06-01 04:23:00,
2013-05-31 23:24:00,58.6,47.7,29.57,WNW,287,4.0,6.0,67,0.00,,---,0.00,VWS V14.01,2013-06-01 04:24:00,
2013-05-31 23:25:00,58.6,47.7,29.57,WSW,251,4.0,11.0,67,0.00,,---,0.00,VWS V14.01,2013-06-01 04:25:00,
2013-05-31 23:26:00,58.7,47.8,29.57,WSW,257,3.0,5.0,67,0.00,,---,0.00,VWS V14.01,2013-06-01 04:26:00,
2013-05-31 23:27:00,58.5,47.6,29.58,SW,232,2.0,5.0,67,0.00,,---,0.00,VWS V14.01,2013-06-01 04:27:00,
2013-05-31 23:28:00,58.4,47.9,29.58,West,276,3.0,4.0,68,0.00,,---,0.00,VWS V14.01,2013-06-01 04:28:00,
2013-05-31 23:29:00,58.4,47.9,29.57,SW,236,2.0,3.0,68,0.00,,---,0.00,VWS V14.01,2013-06-01 04:29:00,
2013-05-31 23:30:00,58.4,47.9,29.57,SW,222,3.0,4.0,68,0.00,,---,0.00,VWS V14.01,2013-06-01 04:30:00,
2013-05-31 23:31:00,58.5,47.6,29.57,WSW,251,3.0,4.0,67,0.00,,---,0.00,VWS V14.01,2013-06-01 04:31:00,
2013-05-31 23:32:00,58.3,47.8,29.58,West,266,3.0,3.0,68,0.00,,---,0.00,VWS V14.01,2013-06-01 04:32:00,
2013-05-31 23:33:00,58.2,47.7,29.58,WSW,253,1.0,4.0,68,0.00,,---,0.00,VWS V14.01,2013-06-01 04:33:00,
2013-05-31 23:34:00,58.2,47.7,29.58,WSW,253,2.0,4.0,68,0.00,,---,0.00,VWS V14.01,2013-06-01 04:34:00,
2013-05-31 23:35:00,58.2,48.1,29.58,WSW,249,2.0,5.0,69,0.00,,---,0.00,VWS V14.01,2013-06-01 04:35:00,
2013-05-31 23:36:00,58.4,47.9,29.58,West,260,2.0,6.0,68,0.00,,---,0.00,VWS V14.01,2013-06-01 04:36:00,
2013-05-31 23:37:00,58.1,48.0,29.58,WSW,255,2.0,3.0,69,0.00,,---,0.00,VWS V14.01,2013-06-01 04:37:00,
2013-05-31 23:38:00,58.0,47.9,29.58,SW,232,3.0,6.0,69,0.00,,---,0.00,VWS V14.01,2013-06-01 04:38:00,
2013-05-31 23:39:00,57.9,47.8,29.58,SW,232,1.0,3.0,69,0.00,,---,0.00,VWS V14.01,2013-06-01 04:39:00,
2013-05-31 23:40:00,57.9,47.8,29.58,SW,236,2.0,5.0,69,0.00,,---,0.00,VWS V14.01,2013-06-01 04:40:00,
2013-05-31 23:41:00,58.1,48.0,29.58,WSW,247,3.0,3.0,69,0.00,,---,0.00,VWS V14.01,2013-06-01 04:41:00,
2013-05-31 23:42:00,57.8,47.7,29.58,SW,234,2.0,3.0,69,0.00,,---,0.00,VWS V14.01,2013-06-01 04:42:00,
2013-05-31 23:43:00,57.7,48.0,29.58,SW,234,1.0,5.0,70,0.00,,---,0.00,VWS V14.01,2013-06-01 04:43:00,
2013-05-31 23:44:00,57.7,48.0,29.58,SW,234,1.0,4.0,70,0.00,,---,0.00,VWS V14.01,2013-06-01 04:44:00,
2013-05-31 23:45:00,57.6,47.9,29.58,WSW,258,2.0,3.0,70,0.00,,---,0.00,VWS V14.01,2013-06-01 04:45:00,
2013-05-31 23:46:00,57.8,47.7,29.58,SW,232,2.0,5.0,69,0.00,,---,0.00,VWS V14.01,2013-06-01 04:46:00,
2013-05-31 23:47:00,57.6,47.9,29.58,WSW,244,3.0,4.0,70,0.00,,---,0.00,VWS V14.01,2013-06-01 04:47:00,
2013-05-31 23:48:00,57.5,47.8,29.58,WSW,243,2.0,3.0,70,0.00,,---,0.00,VWS V14.01,2013-06-01 04:48:00,
2013-05-31 23:49:00,57.5,47.8,29.59,SSW,211,0.0,4.0,70,0.00,,---,0.00,VWS V14.01,2013-06-01 04:49:00,
2013-05-31 23:50:00,57.4,47.7,29.59,SW,223,2.0,4.0,70,0.00,,---,0.00,VWS V14.01,2013-06-01 04:50:00,
2013-05-31 23:51:00,57.6,47.9,29.58,WSW,246,2.0,2.0,70,0.00,,---,0.00,VWS V14.01,2013-06-01 04:51:00,
2013-05-31 23:52:00,57.3,47.6,29.60,SW,223,0.0,2.0,70,0.00,,---,0.00,VWS V14.01,2013-06-01 04:52:00,
2013-05-31 23:53:00,57.3,48.0,29.60,West,263,0.0,2.0,71,0.00,,---,0.00,VWS V14.01,2013-06-01 04:53:00,
2013-05-31 23:54:00,57.2,47.5,29.60,SW,225,4.0,4.0,70,0.00,,---,0.00,VWS V14.01,2013-06-01 04:54:00,
2013-05-31 23:55:00,57.2,47.5,29.60,SW,216,0.0,4.0,70,0.00,,---,0.00,VWS V14.01,2013-06-01 04:55:00,
2013-05-31 23:56:00,57.4,47.7,29.60,SW,222,0.0,3.0,70,0.00,,---,0.00,VWS V14.01,2013-06-01 04:56:00,
2013-05-31 23:57:00,57.1,47.8,29.59,South,169,0.0,2.0,71,0.00,,---,0.00,VWS V14.01,2013-06-01 04:57:00,
2013-05-31 23:58:00,57.1,47.8,29.59,WSW,244,2.0,3.0,71,0.00,,---,0.00,VWS V14.01,2013-06-01 04:58:00,
2013-05-31 23:59:00,57.1,47.8,29.60,SW,226,0.0,6.0,71,0.00,,---,0.00,VWS V14.01,2013-06-01 04:59:00,